     2.10           OBSERVATION DATA    G (GPS)             RINEX VERSION / TYPE
teqc 2000Jul20 Karen Wendt 20040726 21:09:39UTC             PGM / RUN BY / DATE
Linux 2.0.36|Pentium II|gcc -static|Linux|486/DX+           COMMENT
teqc 2000Jul20 Karen Wendt 20040726 21:09:39UTC             COMMENT
BIT 2 OF LLI FLAGS DATA COLLECTED UNDER A/S CONDITION       COMMENT
0221 0221_1990_CalTrans                                     MARKER NAME
CHS USGS                                                    OBSERVER / AGENCY
LP019992809 ASHTECH Z-XII3 CD00                             REC # / TYPE / VERS
CR520031622 ASH701945E_M NONE                               ANT # / TYPE
 -2646167.0000 -4084659.0000  4109901.0000                  APPROX POSITION XYZ
        1.3914        0.0000        0.0000                  ANTENNA: DELTA H/E/N
     1     1                                                WAVELENGTH FACT L1/2
     5    C1    L1    L2    P1    P2                        # / TYPES OF OBSERV
    30.0000                                                 INTERVAL
                                                            COMMENT
National Earthquake Hazard Reduction Program                COMMENT
Crustal Strain Project                                      COMMENT
345 Middlefield Road, MS/977                                COMMENT
U.S. Geological Survey, Menlo Park, California 94025        COMMENT
Contact: kwendt@usgs.gov (Ph: 650-329-4866)                 COMMENT
Antenna height is vertical to base of antenna               COMMENT
                                                            COMMENT
SNR is mapped to RINEX snr flag value [1-9]                 COMMENT
L1: 1 -> 1; 90 -> 5; 210 -> 9                               COMMENT
L2: 1 -> 1; 150 -> 5; 250 -> 9                              COMMENT
  2004     7    19    16     0    0.0000000     GPS         TIME OF FIRST OBS
                                                            END OF HEADER
 04  7 19 16  0  0.0000000  0  7G19G 3G18G15G14G22G21
  23449239.169     -240289.56649   -169788.63446  23449237.171    23449243.273
  21557260.693      -30967.55649    -21823.70247  21557260.169    21557266.976
  21276776.412      125190.80049     89279.11447  21276776.404    21276781.548
  20090813.343      -61540.48549    -43341.07548  20090812.760    20090819.325
  22093251.271     -269897.82249   -192769.82347  22093251.590    22093258.314
  20501270.879      -13769.68949     -9761.60048  20501270.956    20501274.476
  21810613.836      160737.16749    115434.82247  21810612.967    21810618.717
 04  7 19 16  0 30.0000000  0  6G19G 3G18G14G22G21
  23432623.965     -327599.11749   -237822.02046  23432622.843    23432628.706
  21555480.283      -40325.93149    -29115.95847  21555479.402    21555486.111
  21285661.287      171883.22349    125662.79647  21285661.623    21285666.875
  22074365.841     -369151.30849   -270110.13747  22074364.186    22074370.926
  20500424.300      -18222.18949    -13231.07148  20500423.672    20500427.221
  21822105.905      221130.94349    162494.87347  21822105.551    21822111.216
 04  7 19 16  1  0.0000000  0  8G19G 3G18G15G14G 9G22G21
  23356985.767     -725083.42849   -547550.03146  23356984.216    23356989.945
  21494715.286     -359647.61249   -277938.05547  21494714.519    21494721.259
  21235495.837      -91741.36849    -79758.97747  21235495.602    21235500.830
  20023513.617     -415203.20549   -318922.40648  20023513.060    20023519.594
  21996448.806     -778603.84349   -589163.99247  21996447.896    21996454.590
                   -495074.18049   -373442.20545                  23794387.983
  20440544.243     -332893.29849   -258429.33348  20440543.786    20440547.272
  21774563.576      -28706.62649    -32183.77347  21774563.103    21774568.767
 04  7 19 16  1 30.0000000  0  8G19G 3G18G15G14G 9G22G21
  23341797.287     -804898.45249   -609743.52646  23341795.931    23341801.618
  21494440.270     -361091.96249   -279063.53347  21494439.749    21494446.478
  21245752.148      -37844.20249    -37761.21247  21245751.862    21245757.207
  20020806.321     -429430.62749   -330008.70548  20020805.695    20020812.162
  21978978.015     -870411.41349   -660702.29747  21978977.480    21978984.087
  23785411.734     -542203.48149   -410166.24745  23785411.692    23785419.486
  20441105.481     -329943.41249   -256130.71848  20441105.127    20441108.602
  21787460.074       39063.89849     20624.41247  21787459.515    21787465.168
 04  7 19 16  2  0.0000000  0  8G19G 3G18G15G14G 9G22G21
  23326678.501     -884347.85649   -671652.14746  23326677.247    23326682.747
  21494274.262     -361964.64949   -279743.58647  21494273.804    21494280.442
  21256049.465       16268.01749      4404.14647  21256049.123    21256054.459
  20018171.017     -443279.42849   -340799.98048  20018170.359    20018176.874
  21961572.509     -961877.95649   -731974.85547  21961572.040    21961578.504
  23776531.333     -588868.53149   -446528.53745  23776531.090    23776539.518
  20441726.576     -326679.21349   -253587.18348  20441726.297    20441729.788
  21800414.030      107136.55849     73667.96847  21800413.418    21800418.990
 04  7 19 16  2 30.0000000  0  8G19G 3G18G15G14G 9G22G21
  23311630.660     -963424.39649   -733270.18946  23311629.505    23311634.969
  21494218.016     -362260.76749   -279974.34047  21494217.573    21494224.074
  21266388.257       70598.96749     46739.93547  21266387.956    21266393.316
  20015608.971     -456743.45749   -351291.42948  20015608.303    20015614.821
  21944233.350    -1052996.05249   -802975.90747  21944232.884    21944239.229
  23767740.551     -635061.81749   -482523.22045  23767740.436    23767749.248
  20442408.290     -323096.67049   -250795.58648  20442408.055    20442411.541
  21813426.257      175515.85749    126950.50247  21813425.620    21813431.179
 04  7 19 16  3  0.0000000  0  8G19G 3G18G15G14G 9G22G21
  23296654.185    -1042126.22749   -794596.29946  23296653.093    23296658.380
  21494271.280     -361981.31749   -279756.59647  21494270.786    21494277.344
  21276768.537      125146.89449     89244.79147  21276768.170    21276773.519
  20013120.158     -469822.11449   -361482.59048  20013119.496    20013126.059
  21926960.693    -1143764.00949   -873704.12547  21926960.231    21926966.564
  23759040.426     -680781.62649   -518148.94345  23759040.159    23759049.295
  20443150.314     -319197.23149   -247757.06348  20443150.112    20443153.602
  21826496.413      244200.71549    180471.13647  21826495.861    21826501.530
 04  7 19 16  3 30.0000000  0  8G19G 3G18G15G14G 9G22G21
  23281749.349    -1120451.35249   -855628.82846  23281748.351    23281753.668
  21494433.900     -361126.64949   -279090.63047  21494433.433    21494440.039
  21287189.716      179909.89049    131917.24047  21287189.285    21287194.531
  20010704.877     -482514.75649   -371372.95848  20010704.228    20010710.723
  21909755.051    -1234179.84249   -944157.95447  21909754.613    21909760.908
  23750430.983     -726025.56349   -553403.87845  23750430.529    23750439.674
  20443952.423     -314982.39449   -244472.77448  20443952.176    20443955.681
  21839624.671      313190.29449    234229.20947  21839624.193    21839629.932
 04  7 19 16  4  0.0000000  0  8G19G 3G18G15G14G 9G22G21
  23266916.928    -1198396.42749   -916365.23346  23266915.929    23266921.169
  21494705.997     -359696.22449   -277976.02547  21494705.595    21494712.220
  21297651.613      234887.52649    174756.94047  21297651.193    21297656.461
  20008363.425     -494819.05449   -380960.72648  20008362.789    20008369.322
  21892617.090    -1324240.16749  -1014334.77747  21892616.677    21892622.959
  23741912.324     -770790.13949   -588285.27245  23741911.987    23741921.247
  20444814.507     -310452.00249   -240942.60548  20444814.310    20444817.799
  21852811.082      382485.11949    288225.13547  21852810.614    21852816.349
 04  7 19 16  4 30.0000000  0  8G19G 3G18G15G14G 9G22G21
  23252157.407    -1275957.98149   -976802.78846  23252156.418    23252161.701
  21495088.027     -357689.30149   -276412.21347  21495087.630    21495094.160
  21308154.346      290079.56849    217763.69947  21308153.912    21308159.244
  20006096.303     -506733.01549   -390244.33548  20006095.668    20006102.219
  21875547.312    -1413942.10649  -1084232.33347  21875546.984    21875553.241
  23733485.710     -815072.18149   -622790.66845  23733485.450    23733494.489
  20445736.617     -305606.22349   -237166.67548  20445736.431    20445739.938
  21866055.889      452085.76349    342459.33447  21866055.315    21866060.922
 04  7 19 16  5  0.0000000  0  8G19G 3G18G15G14G 9G22G21
  23237471.401    -1353133.02449  -1036939.16246  23237470.454    23237475.822
  21495579.738     -355105.54649   -274398.91047  21495579.280    21495585.895
  21318697.701      345485.27149    260936.95347  21318697.293    21318702.674
  20003903.822     -518255.03849   -399222.53548  20003903.156    20003909.702
  21858546.422    -1503282.41649  -1153848.11447  21858546.084    21858552.289
  23725151.885     -858868.59749   -656917.64645  23725151.290    23725160.279
  20446718.651     -300445.45049   -233145.28948  20446718.501    20446722.013
  21879358.622      521991.92749    396931.63047  21879358.076    21879363.686
 04  7 19 16  5 30.0000000  0  8G19G 3G18G15G14G 9G22G21
  23222859.168    -1429920.90549  -1096773.85346  23222858.249    23222863.510
  21496180.785     -351946.76649   -271937.54447  21496180.414    21496187.003
  21329281.226      401101.67549    304274.39547  21329280.786    21329286.119
  20001785.725     -529385.72649   -407895.79848  20001785.082    20001791.601
  21841614.465    -1592260.86549  -1223181.91947  21841614.065    21841620.241
  23716910.080     -902178.35849   -690665.44445  23716909.635    23716918.561
  20447760.195     -294972.29249   -228880.50248  20447760.070    20447763.572
  21892719.090      592201.63049    451640.43646  21892718.566    21892724.204
 04  7 19 16  6  0.0000000  0  8G19G 3G18G15G14G 9G22G21
  23208321.446    -1506317.99549  -1156304.02546  23208320.384    23208325.674
  21496891.418     -348212.24449   -269027.55047  21496891.102    21496897.671
  21339904.762      456928.69849    347775.95247  21339904.351    21339909.741
  19999742.615     -540122.75249   -416262.31148  19999741.927    19999748.465
  21824751.995    -1680873.78249  -1292230.88647  21824751.539    21824757.814
  23708761.807     -944998.04049   -724031.36245  23708761.506    23708769.957
  20448861.248     -289186.60349   -224372.17148  20448861.078    20448864.593
  21906137.628      662715.56049    506586.29647  21906137.057    21906142.584
 04  7 19 16  6 30.0000000  0  8G19G 3G18G15G14G 9G22G21
  23193858.447    -1582321.37249  -1215527.39246  23193857.357    23193862.814
  21497711.848     -343901.32549   -265668.40747  21497711.484    21497718.048
  21350568.377      512965.85349    391441.24847  21350567.939    21350573.345
  19997774.719     -550464.26349   -424320.63648  19997774.029    19997780.581
  21807959.555    -1769118.13549  -1360992.67647  21807959.124    21807965.475
  23700707.277     -987324.34349   -757012.83245  23700707.021    23700715.657
  20450021.664     -283088.51549   -219620.42048  20450021.505    20450025.091
  21919613.982      733533.72849    561769.24546  21919613.328    21919618.960
 04  7 19 16  7  0.0000000  0  8G19G 3G18G15G14G 9G22G21
  23179470.709    -1657928.65349  -1274442.15246  23179469.697    23179475.244
  21498641.719     -339014.59649   -261860.57747  21498641.400    21498648.026
  21361271.667      569211.44949    435268.97447  21361271.220    21361276.603
  19995882.293     -560409.32949   -432070.03548  19995881.589    19995888.107
  21791237.741    -1856991.70349  -1429465.53847  21791237.330    21791243.680
  23692746.768    -1029155.20049   -789608.22745  23692746.683    23692755.527
  20451241.298     -276679.31049   -214626.24048  20451241.180    20451244.731
  21933148.018      804655.81649    617188.99846  21933147.468    21933153.144
 04  7 19 16  7 30.0000000  0  8G19G 3G18G15G14G 9G22G21
  23165158.806    -1733138.09749  -1333046.90146  23165157.855    23165163.406
  21499681.003     -333553.28049   -257605.02247  21499680.720    21499687.385
  21372014.165      625663.63849    479257.66747  21372013.703    21372019.111
  19994065.376     -569957.42649   -439510.11348  19994064.647    19994071.174
  21774586.802    -1944492.93949  -1497648.27447  21774586.398    21774592.729
  23684881.064    -1070488.71049   -821816.10745  23684881.058    23684889.835
  20452519.959     -269960.43049   -209390.75048  20452519.775    20452523.295
  21946739.788      876080.15249    672844.26647  21946739.109    21946744.779
 04  7 19 16  8  0.0000000  0  8G19G 3G18G15G14G 9G22G21
  23150923.276    -1807946.88849  -1391339.45746  23150922.339    23150927.735
  21500829.746     -327517.29849   -252901.68347  21500829.435    21500836.040
  21382795.901      682321.75049    523406.83547  21382795.449    21382800.834
  19992324.175     -579107.13549   -446639.75948  19992323.532    19992330.045
  21758007.263    -2031619.13049  -1565538.77047  21758006.845    21758013.168
  23677110.680    -1111322.10549   -853634.26445  23677110.637    23677119.595
  20453857.331     -262932.50649   -203914.45148  20453857.159    20453860.711
  21960388.905      947806.65149    728734.99147  21960388.289    21960393.949
 04  7 19 16  8 30.0000000  0  8G19G 3G18G15G14G 9G22G21
  23136764.332    -1882353.86249  -1449318.90446  23136763.312    23136768.651
  21502087.399     -320908.22349   -247751.77147  21502087.075    21502093.710
  21393616.293      739183.24549    567714.46647  21393615.838    21393621.244
  19990658.915     -587858.54449   -453459.04648  19990658.215    19990664.754
  21741499.263    -2118369.71549  -1633136.58347  21741498.833    21741505.112
  23669436.306    -1151654.37649   -885061.94345  23669435.801    23669444.700
  20455253.161     -255597.67549   -198199.00248  20455252.983    20455256.495
  21974095.243     1019833.66449    784859.87646  21974094.691    21974100.364
 04  7 19 16  9  0.0000000  0  8G19G 3G18G15G14G 9G22G21
  23122682.306    -1956355.87949  -1506982.80546  23122681.241    23122686.599
  21503454.247     -313725.34749   -242154.73647  21503453.968    21503460.600
  21404475.277      796247.55149    612180.13547  21404474.840    21404480.241
  19989069.775     -596209.65049   -459966.40048  19989069.095    19989075.669
  21725063.271    -2204741.15549  -1700438.96547  21725062.872    21725069.133
  23661857.182    -1191482.32949   -916096.66245  23661856.668    23661865.552
  20456707.393     -247955.90749   -192244.38148  20456707.206    20456710.655
  21987858.816     1092161.76349    841219.38046  21987858.212    21987863.905
 04  7 19 16  9 30.0000000  0  8G19G 3G18G15G14G 9G22G21
  23108677.784    -2029949.25949  -1564328.26746  23108676.766    23108682.195
  21504930.476     -305967.96349   -236110.04747  21504930.186    21504936.842
  21415372.929      853514.97049    656804.08847  21415372.506    21415377.872
  19987557.221     -604158.06149   -466159.97748  19987556.533    19987563.102
  21708700.062    -2290730.06249  -1767443.27247  21708699.700    21708705.917
  23654374.771    -1230802.25949   -946735.51445  23654374.407    23654383.118
  20458219.935     -240007.20649   -186050.59548  20458219.769    20458223.269
  22001679.645     1164791.41349    897813.86046  22001679.124    22001684.879
 04  7 19 16 10  0.0000000  0  8G19G 3G18G15G14G 9G22G21
  23094751.466    -2103132.46649  -1621354.11546  23094750.497    23094755.893
  21506515.769     -297637.45249   -229618.75747  21506515.449    21506522.138
  21426308.934      910983.53949    701584.77147  21426308.455    21426313.872
  19986121.386     -611703.48949   -472039.54048  19986120.726    19986127.249
  21692410.050    -2376334.79649  -1834148.22647  21692409.697    21692415.810
  23646989.710    -1269612.54149   -976977.24045  23646989.110    23646997.694
  20459790.668     -231753.10349   -179618.83148  20459790.512    20459794.049
  22015557.913     1237721.33649    954642.30446  22015557.337    22015563.091
 04  7 19 16 10 30.0000000  0  8G19G 3G18G15G14G 9G22G21
  23080903.181    -2175906.17449  -1678060.87246  23080902.114    23080907.391
  21508209.334     -288737.68149   -222683.88847  21508209.067    21508215.809
  21437282.291      968648.52249    746518.50747  21437281.769    21437287.260
  19984761.820     -618848.25449   -477606.88848  19984761.158    19984767.710
  21676193.018    -2461556.65849  -1900554.83247  21676192.574    21676198.585
  23639700.985    -1307914.16049  -1006822.60445  23639700.386    23639709.137
  20461418.694     -223197.95349   -172952.48548  20461418.545    20461422.083
  22029492.429     1310947.40849   1011701.53646  22029491.830    22029497.669
 04  7 19 16 11  0.0000000  0  8G19G 3G18G15G14G 9G22G21
  23067134.467    -2248261.54749  -1734441.67946  23067133.416    23067138.540
  21510012.601     -279262.10349   -215300.34147  21510012.298    21510019.000
  21448294.106     1026515.68449    791609.78747  21448293.585    21448298.993
  19983480.072     -625584.18949   -482855.67948  19983479.355    19983485.937
  21660050.531    -2546386.55049  -1966656.00547  21660050.049    21660055.926
  23632510.611    -1345697.81249  -1036264.39545  23632510.284    23632519.131
  20463105.191     -214335.67749   -166046.82348  20463105.017    20463108.508
  22043484.523     1384476.54049   1068996.89746  22043484.003    22043489.900
 04  7 19 16 11 30.0000000  0  8G19G 3G18G15G14G 9G22G21
  23053445.487    -2320197.09249  -1790495.35446  23053444.493    23053449.589
  21511925.077     -269212.28449   -207469.33047  21511924.764    21511931.493
  21459343.897     1084582.78349    836856.84847  21459343.356    21459348.791
  19982276.054     -631911.31749   -487785.91848  19982275.349    19982281.901
  21643982.721    -2630823.32349  -2032450.85647  21643982.273    21643988.107
  23625419.743    -1382962.50149  -1065301.77245  23625419.183    23625427.745
  20464849.687     -205168.52449   -158903.59248  20464849.519    20464853.005
  22057533.971     1458306.48449   1126526.65146  22057533.447    22057539.302
 04  7 19 16 12  0.0000000  0  8G19G 3G18G15G14G 9G22G21
  23039835.375    -2391717.89149  -1846225.83046  23039834.465    23039839.650
  21513945.227     -258596.21649   -199197.08547  21513944.946    21513951.636
  21470429.987     1142841.35449    882253.13447  21470429.581    21470435.075
  19981148.627     -637835.80649   -492402.41248  19981147.959    19981154.529
  21627988.750    -2714871.89049  -2097943.19647  21627988.285    21627994.219
  23618425.978    -1419713.26149  -1093938.70645  23618425.435    23618434.122
  20466650.555     -195704.72349   -151529.21048  20466650.383    20466653.858
  22071639.200     1532429.49349   1184284.76946  22071638.692    22071644.508
 04  7 19 16 12 30.0000000  0  8G19G 3G18G15G14G 9G22G21
  23026306.617    -2462812.01649  -1901623.84046  23026305.760    23026310.833
  21516074.868     -247404.84449   -190476.56647  21516074.602    21516081.173
  21481554.415     1201299.63649    927805.02147  21481553.920    21481559.365
  19980099.858     -643347.27149   -496697.06048  19980099.215    19980105.778
  21612070.783    -2798520.82549  -2163124.14447  21612070.345    21612076.327
  23611532.549    -1455938.48849  -1122166.14545  23611532.256    23611540.695
  20468509.601     -185935.53949   -143916.85348  20468509.426    20468512.877
  22085802.133     1606854.64549   1242278.33546  22085801.418    22085807.211
 04  7 19 16 13  0.0000000  0  8G19G 3G18G15G14G 9G22G21
  23012857.773    -2533485.16449  -1956693.80246  23012857.091    23012862.271
  21518312.285     -235646.91949   -181314.56247  21518312.063    21518318.671
  21492714.927     1259948.28749    973505.25947  21492714.374    21492719.863
  19979128.377     -648452.47649   -500675.14548  19979127.718    19979134.309
  21596227.712    -2881775.91049  -2227998.19047  21596227.373    21596233.383
  23604738.284    -1491643.88249  -1149988.48445  23604737.800    23604746.083
  20470425.086     -175869.94549   -136073.53748  20470424.880    20470428.377
  22100020.469     1681573.35149   1300500.64246  22100019.924    22100025.771
 04  7 19 16 13 30.0000000  0  8G19G 3G18G15G14G 9G22G21
  22999490.376    -2603731.30249  -2011431.03846  22999489.635    22999494.923
  21520658.230     -223319.20349   -171708.56447  21520657.988    21520664.633
  21503912.089     1318790.24449   1019356.11947  21503911.642    21503917.183
  19978235.130     -653146.68949   -504332.98948  19978234.476    19978241.039
  21580460.858    -2964631.00549  -2292560.55847  21580460.558    21580466.530
  23598043.917    -1526823.30949  -1177400.99945  23598043.365    23598051.628
  20472397.402     -165505.19649   -127997.11148  20472397.244    20472400.734
  22114295.438     1756588.49649   1358953.94146  22114294.862    22114300.796
 04  7 19 16 14  0.0000000  0  8G19G 3G18G15G14G 9G22G21
  22986204.668    -2673548.69149  -2065834.18446  22986203.792    22986209.034
  21523112.439     -210422.70749   -161659.37147  21523112.169    21523118.817
  21515145.738     1377823.23149   1065355.83347  21515145.295    21515150.812
  19977420.162     -657429.61249   -507670.33048  19977419.500    19977426.039
  21564770.442    -3047084.83649  -2356810.24947  21564770.080    21564776.098
  23591449.690    -1561475.33749  -1204402.53145  23591449.369    23591457.588
  20474426.448     -154842.84149   -119688.78448  20474426.270    20474429.676
  22128626.559     1831898.88849   1417637.31246  22128625.971    22128631.992
 04  7 19 16 14 30.0000000  0  8G19G 3G18G15G14G 9G22G21
  22973001.116    -2742934.56849  -2119901.07646  22973000.153    22973005.373
  21525674.662     -196957.79849   -151167.25647  21525674.436    21525681.138
  21526415.677     1437047.00149   1111504.20447  21526415.263    21526420.694
  19976683.722     -661299.65049   -510685.94848  19976683.060    19976689.638
  21549156.776    -3129134.66149  -2420745.13447  21549156.489    21549162.570
  23584956.564    -1595597.38249  -1230991.10945  23584956.294    23584964.355
  20476511.997     -143883.22349   -111148.82348  20476511.816    20476515.225
  22143013.984     1907504.72849   1476550.87646  22143013.381    22143019.434
 04  7 19 16 15  0.0000000  0  8G19G 3G18G15G14G 9G22G21
  22959879.957    -2811887.53449  -2173630.64846  22959878.896    22959884.093
  21528344.705     -182926.11449   -140233.50247  21528344.577    21528351.344
  21537721.560     1496459.56749   1157799.68847  21537721.106    21537726.577
  19976025.956     -664756.55749   -513379.65548  19976025.265    19976031.820
  21533620.280    -3210779.40949  -2484364.37647  21533620.005    21533626.120
  23578564.659    -1629188.10949  -1257165.70845  23578564.290    23578572.238
  20478653.751     -132628.39649   -102378.82848  20478653.553    20478657.021
  22157457.265     1983404.27449   1535693.30046  22157456.692    22157462.717
 04  7 19 16 15 30.0000000  0  8G19G 3G18G15G14G 9G22G21
  22946841.548    -2880404.74849  -2227020.65646  22946840.443    22946845.773
  21531122.844     -168327.30649   -128857.83147  21531122.694    21531129.452
  21549062.934     1556059.91549   1204241.49447  21549062.614    21549068.159
  19975447.142     -667798.22149   -515749.79148  19975446.476    19975453.053
  21518161.446    -3292016.00549  -2547665.57147  21518161.127    21518167.270
  23572274.245    -1662244.51849  -1282923.93445  23572273.974    23572281.877
  20480851.652     -121078.43049    -93378.86748  20480851.452    20480854.902
  22171956.413     2059597.61149   1595064.67646  22171955.884    22171961.939
 04  7 19 16 16  0.0000000  0  8G19G 3G18G15G14G 9G22G21
  22933886.624    -2948483.46349  -2280068.98946  22933885.541    22933890.811
  21534008.664     -153162.63149   -117041.21647  21534008.476    21534015.271
  21560440.243     1615847.74849   1250829.39847  21560439.928    21560445.445
  19974947.488     -670424.06649   -517795.90448  19974946.832    19974953.398
  21502780.636    -3372842.23449  -2610647.00147  21502780.335    21502786.532
  23566085.941    -1694764.97649  -1308264.49445  23566085.449    23566093.437
  20483105.518     -109234.18249    -84149.58048  20483105.341    20483108.759
  22186511.249     2136084.44549   1654664.74246  22186510.868    22186516.976
 04  7 19 16 16 30.0000000  0  8G19G 3G18G15G14G 9G22G21
  22921015.403    -3016122.15349  -2332774.44346  22921014.312    22921019.467
  21537001.922     -137433.00449   -104784.39447  21537001.714    21537008.501
  21571852.784     1675821.01549   1297561.79247  21571852.557    21571858.050
  19974527.084     -672633.39149   -519517.47248  19974526.413    19974532.965
  21487478.326    -3453256.58249  -2673307.48247  21487477.979    21487484.198
  23559999.559    -1726747.65449  -1333186.06145  23559999.082    23560007.351
  20485415.151      -97097.08749    -74692.11848  20485414.972    20485418.472
  22201122.077     2212863.19249   1714492.27346  22201121.543    22201127.495
 04  7 19 16 17  0.0000000  0  8G19G 3G18G15G14G 9G22G21
  22908228.441    -3083317.43349  -2385134.38446  22908227.394    22908232.616
  21540102.851     -121137.99349    -92087.01247  21540102.627    21540109.388
  21583300.845     1735979.69349   1344438.66247  21583300.402    21583305.869
  19974186.361     -674424.01649   -520912.77248  19974185.689    19974192.267
  21472254.898    -3533255.98949  -2735644.63547  21472254.597    21472260.728
  23554016.067    -1758189.26649  -1357685.99545  23554015.885    23554024.079
  20487780.516      -84667.03249    -65006.37248  20487780.325    20487783.884
  22215788.267     2289934.41349   1774547.71346  22215787.770    22215793.739
 04  7 19 16 17 30.0000000  0  8G19G 3G18G15G14G 9G22G21
  22895526.454    -3150066.54849  -2437146.66646  22895525.427    22895530.660
  21543311.236     -104277.80749    -78949.22747  21543311.026    21543317.839
  21594783.736     1796323.46149   1391459.75547  21594783.422    21594788.850
  19973925.599     -675794.38649   -521980.60248  19973924.949    19973931.514
  21457110.987    -3612837.64249  -2797656.26047  21457110.702    21457116.747
  23548136.361    -1789087.00249  -1381762.13045  23548136.265    23548144.503
  20490201.537      -71944.36749    -55092.61348  20490201.399    20490204.935
  22230510.072     2367298.32049   1834831.22446  22230509.658    22230515.767
 04  7 19 16 18  0.0000000  0  8G19G 3G18G15G14G 9G22G21
  22882909.549    -3216369.38049  -2488811.18946  22882908.502    22882913.657
  21546626.580      -86855.60949    -65373.50547  21546626.351    21546633.251
  21606301.548     1856848.88049   1438622.39247  21606301.109    21606306.492
  19973744.551     -676745.80349   -522721.97648  19973743.925    19973750.434
  21442046.535    -3692001.79249  -2859342.56147  21442046.260    21442052.226
  23542360.262    -1819441.31149  -1405414.81145  23542360.123    23542368.261
  20492677.651      -58932.34149    -44953.38448  20492677.505    20492681.013
  22245287.223     2444951.82249   1895340.38346  22245286.708    22245292.746
 04  7 19 16 18 30.0000000  0  8G19G 3G18G15G14G 9G22G21
  22870378.028    -3282223.18749  -2540125.81846  22870377.017    22870382.115
  21550048.984      -68871.49949    -51359.94347  21550048.702    21550055.534
  21617853.510     1917555.13749   1485925.94247  21617853.112    21617858.562
  19973643.592     -677276.57749   -523135.57348  19973642.915    19973649.487
  21427062.121    -3770745.80549  -2920701.48447  21427061.764    21427067.755
  23536687.838    -1849249.50849  -1428641.91045  23536687.671    23536696.060
  20495208.738      -45631.31949    -34588.96048  20495208.612    20495212.126
  22260119.478     2522894.93449   1956075.20246  22260118.850    22260124.767
 04  7 19 16 19  0.0000000  0  8G19G 3G18G15G14G 9G22G21
  22857932.346    -3347625.74749  -2591088.83246  22857931.353    22857936.474
  21553578.111      -50326.37249    -36909.22647  21553577.759    21553584.541
  21629439.837     1978441.41449   1533369.76847  21629439.441    21629444.837
  19973622.804     -677385.70049   -523220.61448  19973622.169    19973628.740
  21412157.891    -3849067.59049  -2981731.39747  21412157.552    21412163.566
  23531119.756    -1878509.70649  -1451442.07245  23531119.565    23531128.085
  20497794.711      -32042.09949    -23999.97048  20497794.602    20497798.091
  22275006.583     2601126.92749   2017035.12646  22275005.944    22275011.898
 04  7 19 16 19 30.0000000  0  8G19G 3G18G15G14G 9G22G21
  22845573.169    -3412574.19549  -2641698.00346  22845572.120    22845577.232
  21557213.749      -31220.34749    -22021.42447  21557213.462    21557220.302
  21641060.409     2039507.61949   1580953.79247  21641059.976    21641065.447
  19973682.666     -677071.53649   -522975.82448  19973681.998    19973688.547
  21397334.548    -3926964.40749  -3042430.16747  21397334.243    21397340.186
  23525656.713    -1907219.28349  -1473813.12945  23525656.407    23525664.811
  20500435.478      -18164.86449    -13186.55148  20500435.334    20500438.913
  22289948.626     2679647.87549   2078220.21646  22289948.020    22289954.117
 04  7 19 16 20  0.0000000  0  8G19G 3G18G15G14G 9G22G21
  22833300.487    -3477067.17249  -2691952.25746  22833299.466    22833304.616
  21560955.988      -11555.15349     -6697.92847  21560955.741    21560962.489
  21652714.748     2100751.49449   1628676.25647  21652714.367    21652719.837
  19973823.059     -676333.81849   -522400.99148  19973822.381    19973828.974
  21382592.465    -4004435.16349  -3102796.93847  21382592.070    21382598.073
  23520298.438    -1935377.02049  -1495754.21945  23520298.207    23520306.488
  20503130.655       -4001.32849     -2150.04248  20503130.548    20503134.183
  22304945.508     2758456.63249   2139629.56746  22304944.908    22304951.013
 04  7 19 16 20 30.0000000  0  8G19G 3G18G15G14G 9G22G21
  22821114.999    -3541102.39749  -2741849.82546  22821113.991    22821119.112
  21564804.497        8667.95549      9060.31547  21564804.167    21564810.828
  21664402.792     2162171.95449   1676536.31147  21664402.306    21664407.792
  19974044.108     -675172.00549   -521495.69348  19974043.487    19974050.093
  21367931.611    -4081477.87149  -3162830.17147  21367931.259    21367937.392
  23515045.630    -1962981.09449  -1517263.86045  23515045.193    23515053.625
  20505880.219       10447.39149      9108.68348  20505880.095    20505883.729
  22319996.899     2837551.72749   2201262.06446  22319996.278    22320002.444
 04  7 19 16 21  0.0000000  0  8G19G 3G18G15G14G 9G22G21
  22809017.247    -3604676.92749  -2791388.41046  22809016.217    22809021.248
  21568759.021       29448.96649     25253.28747  21568758.729    21568765.385
  21676124.276     2223768.84849   1724533.87647  21676123.871    21676129.407
  19974346.374     -673584.17449   -520258.42648  19974345.698    19974352.250
  21353352.829    -4158089.69349  -3222527.65147  21353352.492    21353358.600
  23509898.689    -1990028.91549  -1538340.03045  23509898.326    23509906.617
  20508683.947       25181.03349     20589.43948  20508683.814    20508687.422
  22335102.750     2916933.35149   2263117.82446  22335102.170    22335108.384
 04  7 19 16 21 30.0000000  0  8G19G 3G18G15G14G 9G22G21
  22797007.667    -3667788.39449  -2840566.17746  22797006.581    22797011.471
  21572819.626       50787.31249     41880.54647  21572819.318    21572825.956
  21687879.381     2285541.06149   1772668.03547  21687878.874    21687884.280
  19974729.832     -671569.05349   -518688.21548  19974729.183    19974735.717
  21338856.655    -4234268.34449  -3281887.59347  21338856.277    21338862.246
  23504857.987    -2016518.38649  -1558981.17945  23504857.526    23504865.778
  20511541.909       40199.14949     32291.85548  20511541.755    20511545.299
  22350263.072     2996601.20349   2325196.60346  22350262.525    22350268.691
 04  7 19 16 22  0.0000000  0  8G19G 3G18G15G14G 9G22G21
  22785086.109    -3730436.10849  -2889382.56746  22785085.114    22785089.974
  21576985.773       72680.46749     58940.12247  21576985.434    21576992.102
  21699667.067     2347486.31749   1820937.03247  21699666.653    21699672.072
  19975194.598     -669127.05049   -516785.36648  19975193.931    19975200.445
  21324442.881    -4310013.38549  -3340909.66347  21324442.506    21324448.418
  23499923.238    -2042449.16549  -1579186.92845  23499922.882    23499931.084
  20514453.421       55499.20749     44213.96848  20514453.249    20514456.793
  22365477.536     3076553.32349   2387496.89246  22365476.992    22365483.060
 04  7 19 16 22 30.0000000  0  8G19G 3G18G15G14G 9G22G21
  22773253.425    -3792617.19649  -2937835.35646  22773252.445    22773257.324
  21581257.521       95128.26649     76431.88647  21581257.176    21581263.771
  21711487.790     2409604.31349   1869340.62947  21711487.320    21711492.690
  19975740.888     -666256.75949   -514548.78548  19975740.193    19975746.712
  21310112.152    -4385322.12349  -3399591.76047  21310111.766    21310117.632
  23495095.480    -2067818.59749  -1598955.29445  23495095.224    23495103.449
  20517418.663       71081.08649     56355.68448  20517418.477    20517421.996
  22380746.164     3156789.66649   2450018.66546  22380745.572    22380751.708
 04  7 19 16 23  0.0000000  0  8G19G 3G18G15G14G 9G22G21
  22761509.951    -3854329.97849  -2985923.25046  22761508.955    22761513.685
  21585634.546      118129.09749     94354.58847  21585634.166    21585640.709
  21723340.967     2471893.38849   1917877.53847  21723340.574    21723346.042
  19976368.788     -662957.47749   -511977.92648  19976368.078    19976374.581
  21295864.761    -4460192.98049  -3457932.63947  21295864.320    21295870.151
  23490374.925    -2092625.44049  -1618285.27045  23490374.632    23490382.707
  20520437.284       86943.71249     68716.16048  20520437.077    20520440.629
  22396068.698     3237308.94249   2512760.88846  22396068.004    22396074.134
 04  7 19 16 23 30.0000000  0  8G19G 3G18G15G14G 9G22G21
  22749855.936    -3915572.45849  -3033644.64346  22749854.953    22749859.658
  21590116.529      141681.70349    112707.24147  21590116.123    21590122.677
  21735226.676     2534352.50049   1966546.93547  21735226.256    21735231.669
  19977078.486     -659228.14549   -509071.96648  19977077.777    19977084.230
  21281700.882    -4534624.31849  -3515931.03847  21281700.445    21281706.255
  23485761.750    -2116868.16149  -1637175.67345  23485761.456    23485769.549
  20523509.074      103085.82549     81294.41848  20523508.880    20523512.412
  22411444.888     3318110.61249   2575723.16746  22411444.140    22411450.232
 04  7 19 16 24  0.0000000  0  8G19G 3G18G15G14G 9G22G21
  22738292.026    -3976341.42549  -3080997.08446  22738290.959    22738295.726
  21594703.653      165786.49349    131490.17947  21594703.198    21594709.758
  21747144.712     2596981.74649   2015348.92247  21747144.265    21747149.632
  19977870.468     -655066.72949   -505829.31748  19977869.709    19977876.137
  21267621.285    -4608613.06649  -3573584.56647  21267620.853    21267626.639
  23481256.345    -2140543.39249  -1655623.88645  23481256.115    23481264.407
  20526634.104      119507.65449     94090.63448  20526633.897    20526637.370
  22426874.662     3399194.82549   2638905.62246  22426874.018    22426880.151
 04  7 19 16 24 30.0000000  0  8G19G 3G18G15G14G 9G22G21
  22726818.484    -4036635.15149  -3127979.18446  22726817.442    22726822.344
  21599395.396      190441.82449    150702.09547  21599394.970    21599401.517
  21759094.790     2659779.76249   2064282.39947  21759094.342    21759099.753
  19978744.620     -650473.01849   -502249.80748  19978743.913    19978750.333
  21253626.234    -4682157.58049  -3630891.93547  21253625.751    21253631.522
  23476859.431    -2163649.92749  -1673628.95945  23476859.139    23476867.244
  20529812.098      136207.87749    107103.78948  20529811.857    20529815.267
  22442357.774     3480560.14849   2702307.12446  22442357.249    22442363.505
 04  7 19 16 25  0.0000000  0  8G19G 3G18G15G14G 9G22G21
  22715435.785    -4096451.98549  -3174589.69246  22715434.732    22715439.565
  21604191.624      215646.28549    170341.89947  21604191.260    21604197.799
  21771076.866     2722745.46649   2113346.54147  21771076.377    21771081.774
  19979701.213     -645446.38849   -498332.96448  19979700.481    19979706.878
  21239715.917    -4755256.41049  -3687852.02747  21239715.441    21239721.194
  23472571.065    -2186186.46149  -1691189.88045  23472570.658    23472578.638
  20533042.900      153185.32849    120332.97048  20533042.640    20533046.003
  22457894.356     3562205.80549   2765927.04746  22457893.953    22457900.248
 04  7 19 16 25 30.0000000  0  8G19G 3G18G15G14G 9G22G21
  22704144.072    -4155789.87449  -3220827.00846  22704143.059    22704147.959
  21609092.092      241398.39049    190408.44847  21609091.717    21609098.308
  21783090.516     2785877.30349   2162540.14147  21783090.090    21783095.403
  19980740.195     -639986.25149   -494078.31648  19980739.482    19980745.916
  21225890.783    -4827907.94749  -3744463.57647  21225890.302    21225895.986
  23468391.277    -2208151.63649  -1708305.59245  23468390.911    23468398.941
  20536326.137      170438.85749    133777.27548  20536325.847    20536329.251
  22473484.292     3644130.74249   2829764.60646  22473483.841    22473490.134
 04  7 19 16 26  0.0000000  0  8G19G 3G18G15G14G 9G22G21
  22692943.977    -4214647.01549  -3266689.73446  22692942.982    22692947.808
  21614096.559      267696.86149    210900.73747  21614096.153    21614102.741
  21795135.646     2849174.02049   2211862.22747  21795135.142    21795140.405
  19981861.974     -634091.68049   -489485.15948  19981861.235    19981867.660
  21212151.035    -4900110.25749  -3800725.07947  21212150.614    21212156.286
  23464320.442    -2229543.97449  -1724974.90745  23464320.090    23464328.150
  20539661.684      187967.21749    147435.72248  20539661.398    20539664.862
  22489127.147     3726333.87949   2893818.93946  22489126.652    22489132.922
 04  7 19 16 26 30.0000000  0  8G19G 3G18G15G14G 9G22G21
  22681835.871    -4273020.98749  -3312175.94346  22681834.782    22681839.559
  21619204.843      294541.15549    231818.34547  21619204.426    21619211.093
  21807211.877     2912635.28649   2261312.52947  21807211.362    21807216.760
  19983066.631     -627761.22649   -484552.34948  19983065.891    19983072.332
  21198497.323    -4971861.12849  -3856634.81347  21198496.876    21198502.504
  23460359.098    -2250361.30049  -1741196.20345  23460358.682    23460366.577
  20543049.544      205770.15249    161308.13248  20543049.253    20543052.673
  22504822.841     3808815.32249   2958090.12446  22504822.336    22504828.637
 04  7 19 16 27  0.0000000  0  8G19G 3G18G15G14G 9G22G21
  22670820.037    -4330910.20149  -3357284.41046  22670818.888    22670823.604
  21624416.600      321929.66249    253160.01147  21624416.248    21624422.980
  21819319.175     2976259.52049   2310889.81447  21819318.640    21819324.083
  19984354.274     -620994.70249   -479279.73448  19984353.540    19984359.985
  21184929.766    -5043159.20949  -3912191.71347  21184929.289    21184934.873
  23456507.390    -2270602.51949  -1756968.56345  23456507.068    23456514.982
  20546489.373      223846.30549    175393.44148  20546489.072    20546492.406
  22520571.319     3891573.42049   3022576.90046  22520570.773    22520577.018
 04  7 19 16 27 30.0000000  0  8G19G 3G18G15G14G 9G22G21
  22659896.768    -4388312.34149  -3402013.34646  22659895.621    22659900.318
  21629731.924      349861.31249    274924.90847  21629731.548    21629738.314
  21831457.364     3040046.24849   2360593.72347  21831456.867    21831462.286
  19985725.185     -613791.02549   -473666.48648  19985724.391    19985730.837
  21171448.749    -5114002.62249  -3967394.33147  21171448.232    21171453.815
  23452765.729    -2290265.70149  -1772290.49045  23452765.299    23452773.221
  20549981.021      242194.85849    189691.00648  20549980.704    20549984.044
  22536372.437     3974607.93849   3087279.09046  22536371.804    22536378.046
 04  7 19 16 28  0.0000000  0  8G19G 3G18G15G14G 9G22G21
  22649066.451    -4445225.39049  -3446361.16546  22649065.348    22649070.126
  21635150.304      378334.63749    297111.88547  21635149.917    21635156.653
  21843626.471     3103994.33749   2410423.36147  21843625.932    21843631.268
  19987179.351     -606149.46449   -467712.02748  19987178.564    19987185.002
  21158054.496    -5184389.43949  -4022241.17247  21158054.054    21158059.644
  23449134.114    -2309349.57349  -1787161.05245  23449133.672    23449141.615
  20553524.302      260814.95349    204200.16748  20553524.001    20553527.375
  22552225.988     4057917.83549   3152195.85846  22552225.259    22552231.469
 04  7 19 16 28 30.0000000  0  8G19G 3G18G15G14G 9G22G21
  22638329.713    -4501647.28449  -3490326.26846  22638328.621    22638333.452
  21640671.637      407348.44649    319720.02647  21640671.165    21640677.830
  21855825.984     3168102.67149   2460377.87247  21855825.447    21855830.760
  19988717.063     -598068.95049   -461415.52848  19988716.280    19988722.687
  21144747.699    -5254317.79149  -4076730.75947  21144747.196    21144752.773
  23445612.965    -2327852.58849  -1801578.95645  23445612.710    23445620.512
  20557119.188      279705.88949    218920.37348  20557118.883    20557122.302
  22568131.727     4141502.44249   3217326.68046  22568131.018    22568137.139
 04  7 19 16 29  0.0000000  0  8G19G 3G18G15G14G 9G22G21
  22627686.790    -4557576.30149  -3533907.31046  22627685.719    22627690.574
  21646295.422      436901.45349    342748.31747  21646294.922    21646301.574
  21868055.806     3232370.37249   2510456.55947  21868055.230    21868060.478
  19990338.370     -589548.97249   -454776.58948  19990337.577    19990344.046
  21131528.456    -5323786.15649  -4130861.92447  21131527.878    21131533.435
  23442203.060    -2345773.06749  -1815542.96545  23442202.631    23442210.437
  20560765.380      298866.53949    233850.74648  20560765.049    20560768.471
  22584089.350     4225360.94449   3282670.91146  22584088.731    22584094.917
 04  7 19 16 29 30.0000000  0  8G19G 3G18G15G14G 9G22G21
  22617138.047    -4613010.23849  -3577102.57846  22617136.972    22617141.871
  21652021.616      466992.33649    366195.73947  21652021.038    21652027.796
  21880315.870     3296796.53449   2560658.73047  21880315.193    21880320.437
  19992043.517     -580588.56349   -447794.44948  19992042.727    19992049.150
  21118396.985    -5392792.71849  -4184633.24247  21118396.368    21118401.923
  23438903.935    -2363109.48349  -1829051.86145  23438903.555    23438911.468
  20564462.740      318295.95949    248990.55248  20564462.349    20564465.752
  22600098.926     4309492.10749   3348227.62846  22600098.418    22600104.585
 04  7 19 16 30  0.0000000  0  8G19G 3G18G15G14G 9G22G21
  22606683.934    -4667946.59249  -3619910.12446  22606682.849    22606687.794
  21657849.860      497620.44849    390061.76947  21657849.353    21657856.159
  21892605.871     3361380.95849   2610984.21047  21892605.274    21892610.531
  19993832.798     -571185.96549   -440467.75148  19993831.928    19993838.359
  21105353.791    -5461334.69449  -4238042.54947  21105353.188    21105358.753
  23435716.382    -2379859.74049  -1842103.98245  23435716.071    23435724.103
  20568211.156      337994.23549    264339.85248  20568210.814    20568214.178
  22616160.682     4393896.43549   3413997.19246  22616160.118    22616166.221
 04  7 19 16 30 30.0000000  0  8G19G 3G18G15G14G 9G22G21
  22596324.748    -4722384.56249  -3662329.31446  22596323.720    22596328.614
  21663780.034      528783.37549    414344.52647  21663779.557    21663786.219
  21904925.577     3426121.34649   2661431.22247  21904924.976    21904930.246
  19995706.015     -561341.77549   -432796.95248  19995705.231    19995711.675
  21092399.029    -5529411.88849  -4291089.68647  21092398.466    21092404.001
  23432640.663    -2396023.68349  -1854699.26045  23432640.131    23432648.232
  20572010.410      357959.13149    279896.91548  20572010.014    20572013.397
  22632273.815     4478571.67749   3479977.86646  22632273.273    22632279.427
 04  7 19 16 31  0.0000000  0  8G19G 3G18G15G14G 9G22G21
  22586060.834    -4776322.46149  -3704358.84047  22586059.746    22586064.583
  21669811.664      560479.82449    439043.03247  21669811.202    21669817.899
  21917274.544     3491016.63749   2711998.95847  21917274.077    21917279.326
  19997663.518     -551055.17549   -424781.41648  19997662.736    19997669.202
  21079533.125    -5597022.57849  -4343773.31547  21079532.564    21079538.069
  23429676.522    -2411599.98649  -1866836.62845  23429676.113    23429684.149
  20575860.162      378189.66349    295660.96148  20575859.789    20575863.190
  22648438.188     4563516.85949   3546168.87346  22648437.813    22648444.019
 04  7 19 16 31 30.0000000  0  8G19G 3G18G15G14G 9G22G21
  22575892.377    -4829757.59349  -3745996.59846  22575891.316    22575896.245
  21675944.635      592708.76649    464156.46847  21675944.136    21675950.967
  21929653.333     3556066.85349   2762687.39547  21929652.797    21929658.100
  19999705.360     -540325.14949   -416420.36048  19999704.563    19999711.059
  21066756.326    -5664164.50349  -4396091.67147  21066755.848    21066761.322
  23426824.615    -2426586.68449  -1878514.55045  23426824.257    23426832.188
  20579760.395      398685.63549    311631.84248  20579760.039    20579763.469
  22664654.171     4648731.61149   3612569.92746  22664653.707    22664659.998
 04  7 19 16 32  0.0000000  0  8G19G 3G18G15G14G 9G22G21
  22565819.693    -4882688.95249  -3787241.80446  22565818.739    22565823.696
  21682178.524      625468.01749    489683.11847  21682178.070    21682184.847
  21942061.082     3621269.91949   2813494.95047  21942060.547    21942065.885
  20001831.617     -529151.45249   -407713.58348  20001830.881    20001837.375
  21054069.034    -5730836.73849  -4448044.02247  21054068.532    21054074.032
  23424085.193    -2440983.11449  -1889732.53945  23424084.734    23424092.546
  20583710.804      419445.40149    327808.28148  20583710.474    20583713.957
  22680921.027     4734214.67949   3679180.04646  22680920.625    22680927.070
 04  7 19 16 32 30.0000000  0  8G19G 3G18G15G14G 9G22G21
  22555843.502    -4935113.53749  -3828092.12346  22555842.575    22555847.592
  21688513.212      658757.27249    515622.77047  21688512.805    21688519.610
  21954497.996     3686626.08049   2864421.78447  21954497.428    21954502.899
  20004042.711     -517531.95849   -398659.42948  20004041.960    20004048.504
  21041471.582    -5797036.50249  -4499628.22247  21041471.123    21041476.691
  23421458.319    -2454786.93449  -1900488.76345  23421457.932    23421465.826
  20587711.442      440469.30349    344190.53548  20587711.154    20587714.679
  22697239.186     4819965.90049   3745999.10646  22697238.599    22697245.036
 04  7 19 16 33  0.0000000  0  8G19G 3G18G15G14G 9G22G21
  22545964.011    -4987030.09849  -3868546.58546  22545963.115    22545968.117
  21694948.538      692574.68949    541973.97447  21694948.130    21694954.936
  21966963.604     3752134.20049   2915467.04647  21966963.168    21966968.670
  20006338.556     -505466.74649   -389257.97148  20006337.850    20006344.394
  21028964.254    -5862762.76949  -4550843.46047  21028963.831    21028969.391
  23418944.361    -2467997.37049  -1910782.59945  23418944.022    23418951.975
  20591762.068      461755.66649    360777.30848  20591761.820    20591765.345
  22713608.101     4905984.02849   3813026.16146  22713607.357    22713613.740
 04  7 19 16 33 30.0000000  0  8G19G 3G18G15G14G 9G22G21
  22536181.529    -5038437.36349  -3908604.18946  22536180.666    22536185.668
  21701484.039      726918.17049    568735.09647  21701483.576    21701490.338
  21979458.124     3817792.89549   2966629.62447  21979457.618    21979463.123
  20008719.356     -492955.75949   -379509.15048  20008718.612    20008725.190
  21016547.299    -5928014.39049  -4601688.84547  21016546.847    21016552.328
  23416543.467    -2480613.63349  -1920613.45445  23416543.125    23416550.954
  20595862.467      483303.28749    377567.66048  20595862.221    20595865.765
  22730027.255     4992267.54649   3880260.02446  22730026.590    22730033.027
 04  7 19 16 34  0.0000000  0  8G19G 3G18G15G14G 9G22G21
  22526496.546    -5089333.20149  -3948263.27947  22526495.621    22526500.579
  21708119.250      761786.56649    595905.24447  21708118.812    21708125.575
  21991981.008     3883600.88549   3017908.55747  21991980.539    21991986.013
  20011185.172     -479997.63949   -369411.91648  20011184.475    20011191.026
  21004221.049    -5992789.50149  -4652162.92147  21004220.551    21004226.035
  23414256.236    -2492634.07849  -1929980.01845  23414255.808    23414263.645
  20600012.429      505111.50449    394561.07548  20600012.198    20600015.761
  22746496.907     5078815.92749   3947700.26346  22746496.248    22746502.614
 04  7 19 16 34 30.0000000  0  8G19G 3G18G15G14G 9G22G21
  22516909.132    -5139716.13349  -3987522.69347  22516908.159    22516913.071
  21714853.949      797178.15849    623483.05947  21714853.620    21714860.422
  22004532.125     3949557.42949   3069303.23447  22004531.670    22004537.224
  20013736.175     -466592.24149   -358966.14648  20013735.459    20013741.993
  20991985.713    -6057086.55649  -4702264.48847  20991985.201    20991990.688
  23412082.364    -2504057.90349  -1938881.65945  23412081.793    23412089.829
  20604211.720      527179.09049    411756.59348  20604211.531    20604215.054
  22763016.755     5165628.06549   4015346.02646  22763016.142    22763022.403
 04  7 19 16 35  0.0000000  0  8G19G 3G18G15G14G 9G22G21
  22507419.645    -5189583.35449  -4026380.25447  22507418.738    22507423.644
  21721688.122      833092.17349    651467.98047  21721687.848    21721694.689
  22017111.560     4015662.73249   3120813.82847  22017111.091    22017116.743
  20016372.602     -452737.77149   -348170.46548  20016371.894    20016378.462
  20979841.803    -6120903.33649  -4751991.81247  20979841.278    20979846.747
  23410022.133    -2514882.96149  -1947316.75945  23410021.899    23410029.897
  20608460.423      549506.15149    429154.30348  20608460.220    20608463.729
  22779586.693     5252704.00249   4083197.34846  22779586.131    22779592.492
 04  7 19 16 35 30.0000000  0  8G19G 3G18G15G14G 9G22G21
  22498028.616    -5238933.46149  -4064834.86847  22498027.709    22498032.593
  21728621.494      869526.62449    679858.43147  21728621.188    21728627.988
  22029718.992     4081915.18549   3172439.07547  22029718.553    22029724.095
  20019094.485     -438433.93049   -337024.61448  20019093.790    20019100.372
  20967789.482    -6184238.68949  -4801343.99747  20967788.972    20967794.412
  23408076.254    -2525108.62949  -1955284.81145  23408075.977    23408083.921
  20612758.222      572091.38249    446753.18048  20612758.025    20612761.555
  22796206.481     5340042.19749   4151253.03046  22796206.035    22796212.478
 04  7 19 16 36  0.0000000  0  8G19G 3G18G15G14G 9G22G21
  22488736.362    -5287765.37949  -4102885.72047  22488735.362    22488740.221
  21735653.332      906479.31049    708652.69947  21735653.060    21735659.844
  22042354.181     4148313.04149   3224177.62247  22042353.726    22042359.249
  20021901.899     -423680.80649   -325528.67648  20021901.206    20021907.809
  20955828.941    -6247091.74749  -4850320.37047  20955828.382    20955833.894
  23406244.444    -2534734.37949  -1962785.33245  23406244.215    23406252.396
  20617104.762      594933.19549    464551.99448  20617104.635    20617108.221
  22812876.151     5427641.13249   4219511.88746  22812875.645    22812882.065
 04  7 19 16 36 30.0000000  0  8G19G 3G18G15G14G 9G22G21
  22479542.936    -5336077.02549  -4140531.16047  22479541.957    22479546.817
  21742783.613      943949.37749    737850.11647  21742783.414    21742790.205
  22055017.129     4214856.01949   3276029.26247  22055016.530    22055022.054
  20024795.016     -408477.34549   -313681.83348  20024794.343    20024800.937
  20943960.446    -6309460.34949  -4898919.25447  20943959.968    20943965.549
  23404527.178    -2543758.48949  -1969817.11645  23404526.944    23404535.077
  20621500.169      618031.12249    482550.37148  20621500.052    20621503.697
  22829595.136     5515500.32449   4287973.53146  22829594.800    22829601.099
 04  7 19 16 37  0.0000000  0  8G19G 3G18G15G14G 9G22G21
  22470448.803    -5383866.69749  -4177769.85747  22470447.862    22470452.687
  21750012.055      981934.90649    767449.19447  21750011.820    21750018.596
  22067707.183     4281543.66449   3327993.63047  22067706.705    22067712.332
  20027774.092     -392822.53849   -301483.28048  20027773.411    20027779.975
  20932184.466    -6371343.04749  -4947139.49247  20932184.001    20932189.591
  23402924.654    -2552180.03449  -1976379.32645  23402924.453    23402932.362
  20625944.215      641384.52449    500747.83048  20625944.066    20625947.687
  22846363.645     5603619.14149   4356637.49746  22846363.352    22846369.641
 04  7 19 16 37 30.0000000  0  8G19G 3G18G15G14G 9G22G21
  22461454.267    -5431133.08149  -4214600.80547  22461453.379    22461458.227
  21757338.244     1020433.83549    797448.32547  21757337.958    21757344.677
  22080424.798     4348374.73149   3380069.74247  22080424.270    22080429.899
  20030838.986     -376716.28549   -288932.95848  20030838.309    20030844.907
  20920501.144    -6432738.59949  -4994980.14847  20920500.759    20920506.364
  23401436.959    -2559998.37449  -1982471.48645  23401436.692    23401444.453
  20630436.588      664992.04649    519143.29748  20630436.426    20630440.048
  22863181.394     5691996.14849   4425502.63246  22863180.949    22863187.301
 04  7 19 16 38  0.0000000  0  8G19G 3G18G15G14G 9G22G21
  22452559.704    -5477874.47849  -4251022.65847  22452558.867    22452563.675
  21764761.860     1059444.77449    827846.42647  21764761.519    21764768.277
  22093169.448     4415348.35849   3432256.95347  22093168.957    22093174.569
  20033989.892     -360158.12149   -276030.49748  20033989.258    20033995.783
  20908910.867    -6493645.79049  -5042440.26647  20908910.462    20908916.111
  23400064.309    -2567212.21849  -1988092.64645  23400063.943    23400071.772
  20634977.229      688852.90949    537736.17948  20634977.023    20634980.613
  22880048.120     5780630.22849   4494568.08146  22880047.552    22880053.951
 04  7 19 16 38 30.0000000  0  8G19G 3G18G15G14G 9G22G21
  22443765.422    -5524089.51949  -4287034.35247  22443764.485    22443769.302
  21772282.528     1098965.50349    858641.77047  21772282.153    21772288.925
  22105940.967     4482462.97149   3484554.01847  22105940.456    22105946.119
  20037226.894     -343148.07049   -262775.91748  20037226.217    20037232.717
  20897413.757    -6554063.61849  -5089519.05647  20897413.342    20897418.917
  23398806.409    -2573821.36449  -1993242.61946  23398806.204    23398814.160
  20639565.765      712965.78149    556525.43148  20639565.556    20639569.155
  22896963.655     5869520.33649   4563833.02946  22896962.832    22896969.398
 04  7 19 16 39  0.0000000  0  8G19G 3G18G15G14G 9G22G21
  22435071.549    -5569776.41649  -4322634.53347  22435070.534    22435075.419
  21779899.758     1138994.53349    889833.19147  21779899.409    21779906.178
  22118739.201     4549717.84349   3536960.38547  22118738.776    22118744.360
  20040549.976     -325684.94349   -249168.29348  20040549.306    20040555.856
  20886010.113    -6613990.19049  -5136215.05547  20886009.676    20886015.184
  23397664.416    -2579824.49949  -1997920.34246  23397663.965    23397671.830
  20644202.196      737330.00549    575510.53448  20644201.986    20644205.586
  22913927.624     5958665.35149   4633296.60046  22913926.649    22913933.260
 04  7 19 16 39 30.0000000  0  8G19G 3G18G15G14G 9G22G21
  22426478.601    -5614932.82549  -4357821.33747  22426477.573    22426482.428
  21787613.521     1179531.13049    921420.12647  21787613.239    21787620.155
  22131564.043     4617113.20949   3589476.20946  22131563.697    22131569.235
  20043959.600     -307767.31549   -235206.51948  20043958.956    20043965.508
  20874700.351    -6673423.34049  -5182526.57047  20874699.926    20874705.428
  23396637.479    -2585219.77249  -2002124.45546  23396637.105    23396645.147
  20648886.349      761945.66949    594691.57048  20648886.174    20648889.810
  22930939.864     6048065.13949   4702958.68846  22930938.872    22930945.489
 04  7 19 16 40  0.0000000  0  8G19G 3G18G15G14G 9G22G21
  22417986.934    -5659557.21649  -4392593.58047  22417985.821    22417990.707
  21795423.673     1220573.30649    953400.99847  21795423.382    21795430.250
  22144415.508     4684648.17349   3642100.82846  22144415.131    22144420.760
  20047455.871     -289394.63949   -220890.15448  20047455.166    20047461.710
  20863484.755    -6732361.95749  -5228452.73447  20863484.310    20863489.794
  23395726.747    -2590006.32949  -2005854.23046  23395726.416    23395734.351
  20653618.210      786811.76049    614067.74448  20653618.038    20653621.667
  22948000.179     6137718.74749   4772818.57246  22947999.380    22948006.013
 04  7 19 16 40 30.0000000  0  8G19G 3G18G15G14G 9G22G21
  22409596.644    -5703648.40849  -4426950.34947  22409595.540    22409600.424
  21803329.577     1262118.84149    985774.11747  21803329.279    21803336.131
  22157293.204     4752321.38249   3694833.16346  22157292.876    22157298.591
  20051038.575     -270566.99949   -206219.27348  20051037.925    20051044.504
  20852363.467    -6790805.04249  -5273992.77147  20852363.019    20852368.411
  23394931.512    -2594183.76949  -2009109.35646  23394931.336    23394939.419
  20658397.419      811926.89949    633637.98348  20658397.269    20658400.882
  22965108.738     6227624.49949   4842874.95446  22965107.986    22965114.607
 04  7 19 16 41  0.0000000  0  8G19G 3G18G15G14G 9G22G21
  22401307.968    -5747205.07349  -4460890.59947  22401306.938    22401311.892
  21811330.920     1304165.81449   1018537.95747  21811330.590    21811337.456
  22170197.204     4820131.94249   3747672.52146  22170196.902    22170202.497
  20054708.055     -251283.93749   -191193.51948  20054707.405    20054714.019
  20841336.776    -6848751.41849  -5319145.76848  20841336.253    20841341.566
  23394252.606    -2597751.47349  -2011889.39245  23394252.386    23394260.477
  20663223.841      837290.17949    653401.57348  20663223.738    20663227.370
  22982265.069     6317781.50549   4913127.09846  22982264.369    22982270.993
 04  7 19 16 41 30.0000000  0  8G19G 3G18G15G14G 9G22G21
  22393121.321    -5790225.50149  -4494412.99247  22393120.355    22393125.400
  21819427.388     1346712.72949   1051691.36947  21819427.025    21819433.955
  22183127.243     4888079.07449   3800618.30246  22183126.921    22183132.509
  20058464.462     -231544.39149   -175812.06848  20058463.774    20058470.351
  20830404.726    -6906199.35749  -5363910.37248  20830404.241    20830409.626
  23393690.138    -2600708.32049  -2014193.42245  23393689.895    23393697.884
  20668097.402      862900.74949    673357.85348  20668097.254    20668100.962
  22999469.203     6408189.56949   4983574.87246  22999468.459    22999475.150
 04  7 19 16 42  0.0000000  0  8G19G 3G18G15G14G 9G22G21
  22385037.082    -5832708.59549  -4527516.69347  22385036.102    22385041.111
  21827618.540     1389757.51349   1085232.72647  21827618.194    21827625.132
  22196082.959     4956161.70649   3853669.68246  22196082.652    22196088.250
  20062307.544     -211348.59349   -160075.09248  20062306.864    20062313.480
  20819567.661    -6963148.03149  -5408285.94548  20819567.223    20819572.611
  23393243.650    -2603054.05449  -2016021.27645  23393243.315    23393251.496
  20673017.817      888757.50049    693505.96548  20673017.678    20673021.367
  23016720.771     6498846.20549   5054216.35346  23016719.946    23016726.623
 04  7 19 16 42 30.0000000  0  8G19G 3G18G15G14G 9G22G21
  22377055.483    -5874652.06249  -4560199.90647  22377054.478    22377059.489
  21835904.043     1433298.34449   1119160.62147  21835903.778    21835910.746
  22209064.357     5024379.49549   3906826.35846  22209064.035    22209069.784
  20066237.674     -190695.73249   -143981.95948  20066236.993    20066243.583
  20808826.048    -7019595.70449  -5452271.11948  20808825.590    20808830.946
  23392913.358    -2604787.41249  -2017371.95745  23392913.342    23392921.518
  20677985.056      914860.22349    713845.73948  20677984.889    20677988.524
  23034019.605     6589750.92949   5125051.13846  23034018.760    23034025.236
 04  7 19 16 43  0.0000000  0  8G19G 3G18G15G14G 9G22G21
  22369176.799    -5916055.18449  -4592462.08147  22369175.782    22369180.761
  21844283.591     1477333.17249   1153473.44847  21844283.357    21844290.364
  22222071.317     5092730.97849   3960087.21946  22222070.970    22222076.692
  20070254.806     -169585.73549   -127532.62248  20070254.112    20070260.723
  20798179.833    -7075541.60949  -5495865.30648  20798179.400    20798184.770
  23392700.481    -2605908.25549  -2018245.31045  23392700.330    23392708.117
  20682998.868      941207.42649    734376.02448  20682998.648    20683002.234
  23051365.359     6680902.56949   5196078.31146  23051364.403    23051370.859
 04  7 19 16 43 30.0000000  0  8G19G 3G18G15G14G 9G22G21
  22361401.152    -5956916.75449  -4624302.25847  22361400.135    22361405.133
  21852756.788     1521859.77149   1188169.46747  21852756.551    21852763.525
  22235103.430     5161215.07149   4013451.42646  22235103.088    22235108.796
  20074358.913     -148018.47449   -110726.96848  20074358.221    20074364.823
  20787629.297    -7130984.84249  -5539067.79948  20787628.874    20787634.293
  23392603.936    -2606416.18449  -2018641.12245  23392603.648    23392611.620
  20688058.965      967798.11349    755096.02948  20688058.755    20688062.307
  23068757.677     6772299.84049   5267296.91046  23068756.762    23068763.342
 04  7 19 16 44  0.0000000  0  8G19G 3G18G15G14G 9G22G21
  22353729.041    -5997234.34749  -4655718.54747  22353727.986    22353733.083
  21861323.349     1566877.34749   1223248.06747  21861323.131    21861330.118
  22248160.903     5229832.06249   4066919.16346  22248160.489    22248166.135
  20078550.370     -125992.37749    -93563.78548  20078549.679    20078556.293
  20777174.867    -7185923.08349  -5581876.79048  20777174.452    20777179.852
  23392624.192    -2606309.28649  -2018557.80445  23392623.932    23392631.984
  20693165.460      994632.49949    776005.93448  20693165.190    20693168.757
  23086196.460     6863942.64849   5338706.83146  23086195.789    23086202.404
 04  7 19 16 44 30.0000000  0  8G19G 3G18G15G14G 9G22G21
  22346160.553    -6037006.98249  -4686710.21347  22346159.506    22346164.564
  21869982.852     1612383.55549   1258707.42247  21869982.676    21869989.640
  22261243.406     5298580.70249   4120489.49546  22261243.032    22261248.643
  20082829.152     -103507.44849    -76043.07448  20082828.467    20082835.047
  20766816.614    -7240355.53449  -5624291.66448  20766816.222    20766821.652
  23392761.636    -2605587.51249  -2017995.37546  23392761.308    23392769.291
  20698317.975     1021709.18049    797104.63448  20698317.733    20698321.295
  23103681.944     6955829.53649   5410306.91145  23103681.325    23103687.887
 04  7 19 16 45  0.0000000  0  8G19G 3G18G15G14G 9G22G21
  22338695.921    -6076233.71949  -4717276.50347  22338694.873    22338699.900
  21878735.039     1658376.21749   1294545.84247  21878734.817    21878741.701
  22274350.762     5367460.11349   4174161.71146  22274350.378    22274356.077
  20087195.279      -80563.45949    -58164.64648  20087194.575    20087201.139
  20756554.891    -7294281.06149  -5666311.52548  20756554.526    20756560.002
  23393016.216    -2604250.24849  -2016953.35746  23393015.942    23393023.799
  20703516.329     1049026.96149    818391.20648  20703516.104    20703519.650
  23121213.475     7047959.15249   5482096.16345  23121212.938    23121219.551
 04  7 19 16 45 30.0000000  0  8G19G 3G18G15G14G 9G22G21
  22331335.435    -6114912.83949  -4747416.06847  22331334.459    22331339.544
  21887579.418     1704853.33749   1330761.74547  21887579.154    21887586.041
  22287482.843     5436469.44249   4227935.19346  22287482.477    22287488.070
  20091648.762      -57159.85849    -39928.07948  20091648.101    20091654.706
  20746389.823    -7347698.81749  -5707935.73048  20746389.483    20746394.954
  23393387.935    -2602297.24349  -2015431.52746  23393387.604    23393395.494
  20708760.425     1076585.20749    839865.15948  20708760.244    20708763.820
  23138791.060     7140330.46549   5554073.76345  23138790.589    23138797.246
 04  7 19 16 46  0.0000000  0  8G19G 3G18G15G14G 9G22G21
  22324079.347    -6153043.36149  -4777128.15547  22324078.452    22324083.525
  21896515.513     1751812.70949   1367353.43547  21896515.308    21896522.189
  22300639.530     5505607.63949   4281809.06546  22300639.019    22300644.729
  20096189.799      -33296.57349    -21333.32048  20096189.178    20096195.805
  20736321.587    -7400607.72249  -5749163.42748  20736321.244    20736326.715
  23393877.029    -2599727.91449  -2013429.45046  23393876.625    23393884.314
  20714050.117     1104382.75649    861525.57848  20714049.912    20714053.553
  23156414.741     7232941.96949   5626238.48745  23156414.068    23156420.651
 04  7 19 16 46 30.0000000  0  8G19G 3G18G15G14G 9G22G21
  22316927.849    -6190624.12149  -4806411.86047  22316926.973    22316932.158
  21905543.109     1799252.27149   1404319.30247  21905542.808    21905549.698
  22313820.368     5574873.66249   4335782.55546  22313819.924    22313825.573
  20100818.448       -8973.17549     -2380.02848  20100817.764    20100824.384
  20726350.375    -7453006.85249  -5789993.89948  20726350.036    20726355.461
  23394483.216    -2596542.07749  -2010946.97346  23394482.827    23394490.539
  20719385.144     1132418.70249    883371.75948  20719384.958    20719388.646
  23174083.847     7325792.44649   5698589.43545  23174082.996    23174089.487
 04  7 19 16 47  0.0000000  0  8G19G 3G18G15G14G 9G22G21
  22309881.420    -6227652.93049  -4835265.49147  22309880.611    22309885.720
  21914661.647     1847170.73749   1441658.33947  21914661.366    21914668.360
  22327025.626     5644267.73049   4389855.81846  22327025.132    22327030.899
  20105534.772       15811.40749     16932.62348  20105534.118    20105540.748
  20716476.608    -7504894.15449  -5830425.54748  20716476.192    20716481.644
  23395207.009    -2592738.35149  -2007983.02946  23395206.705    23395214.460
  20724765.585     1160693.11849    905403.75648  20724765.443    20724769.121
  23191798.019     7418881.67749   5771126.44545  23191797.313    23191803.880
 04  7 19 16 47 30.0000000  0  8G19G 3G18G15G14G 9G22G21
  22302940.502    -6264128.16449  -4863687.74147  22302939.666    22302944.698
  21923870.979     1895566.57449   1479369.36347  21923870.760    21923877.828
  22340255.014     5713789.26649   4444028.43046  22340254.594    22340260.395
  20110339.044       41057.84049     36605.17048  20110338.363    20110345.029
  20706700.336    -7556268.42949  -5870457.42848  20706699.950    20706705.420
  23396048.528    -2588315.94749  -2004536.99246  23396048.143    23396055.871
  20730191.340     1189205.43849    927621.14048  20730191.177    20730194.792
  23209557.495     7512208.77049   5843848.80645  23209556.968    23209563.553
 04  7 19 16 48  0.0000000  0  8G19G 3G18G15G14G 9G22G21
  22296105.027    -6300049.50049  -4891678.38347  22296104.118    22296109.044
  21933170.665     1944436.76849   1517450.00547  21933170.511    21933177.540
  22353508.492     5783436.61749   4498299.04846  22353508.118    22353513.915
  20115231.085       66765.65549     56637.22148  20115230.416    20115237.070
  20697021.887    -7607129.12249  -5910089.12248  20697021.470    20697026.913
  23397007.489    -2583275.19749  -2000609.16146  23397007.219    23397015.208
  20735661.998     1217953.82549    950022.47348  20735661.870    20735665.451
  23227362.094     7605772.01549   5916755.14745  23227361.632    23227368.230
 04  7 19 16 48 30.0000000  0  8G19G 3G18G15G14G 9G22G21
  22289375.135    -6335415.49349  -4919236.27747  22289374.187    22289379.097
  21942560.608     1993779.80949   1555899.10547  21942560.312    21942567.276
  22366785.896     5853209.63949   4552667.59546  22366785.497    22366791.327
  20120211.017       92935.45749     77029.27348  20120210.378    20120217.019
  20687441.340    -7657475.15049  -5949319.76848  20687440.923    20687446.403
  23398084.323    -2577615.57149  -1996199.03346  23398084.103    23398092.361
  20741177.468     1246937.78049    972607.36248  20741177.322    20741180.962
  23245211.494     7699570.45949   5989844.76645  23245210.975    23245217.532
 04  7 19 16 49  0.0000000  0  8G19G 3G18G15G14G 9G22G21
  22282750.835    -6370226.30849  -4946361.58247  22282749.893    22282754.851
  21952039.447     2043591.89549   1594713.69247  21952039.170    21952046.211
  22380086.790     5923105.98849   4607132.22746  22380086.429    22380092.278
  20125278.621      119566.05849     97780.38148  20125277.980    20125284.668
  20677958.706    -7707306.65149  -5988149.49748  20677958.307    20677963.795
  23399279.192    -2571337.91949  -1991307.40046  23399278.876    23399286.878
  20746737.374     1276155.28349    995374.23748  20746737.223    20746740.866
  23263104.979     7793601.37749   6063115.52845  23263104.498    23263111.100
 04  7 19 16 49 30.0000000  0  8G19G 3G18G15G14G 9G22G21
  22276232.847    -6404478.59049  -4973051.69347  22276231.906    22276236.836
  21961607.502     2093873.18849   1633893.89747  21961607.306    21961614.404
  22393411.335     5993126.71949   4661693.82146  22393410.984    22393416.847
  20130434.364      146660.00249    118892.53848  20130433.781    20130440.468
  20668574.570    -7756620.76349  -6026576.04948  20668574.124    20668579.591
  23400591.851    -2564439.86349  -1985932.27246  23400591.489    23400599.575
  20752341.929     1305607.49149   1018324.00048  20752341.783    20752345.458
  23281042.809     7887865.90449   6136568.33845  23281042.380    23281049.164
 04  7 19 16 50  0.0000000  0  8G19G 3G18G15G14G 9G22G21
  22269821.165    -6438172.01949  -4999306.30847  22269820.264    22269825.187
  21971264.454     2144620.53449   1673437.24247  21971264.220    21971271.285
  22406759.351     6063270.37149   4716351.16746  22406758.913    22406764.732
  20135678.295      174216.57449    140365.18848  20135677.631    20135684.308
  20659288.840    -7805417.25449  -6064599.26848  20659288.482    20659293.939
  23402022.365    -2556922.10449  -1980074.27045  23402022.097    23402030.080
  20757990.820     1335292.71249   1041455.34048  20757990.722    20757994.377
  23299024.874     7982361.92649   6210201.53945  23299024.421    23299031.172
 04  7 19 16 50 30.0000000  0  8G19G 3G18G15G14G 9G22G21
  22263516.016    -6471305.47449  -5025124.58847  22263515.159    22263520.089
  21981009.716     2195831.97149   1713342.24247  21981009.444    21981016.528
  22420130.563     6133536.67349   4771104.10546  22420130.207    22420135.963
  20141010.223      202236.29449    162198.72748  20141009.619    20141016.298
  20650101.894    -7853695.23249  -6102218.44948  20650101.492    20650106.906
  23403571.128    -2548784.22449  -1973733.09446  23403570.835    23403578.712
  20763683.994     1365210.15149   1064767.61848  20763683.831    20763687.475
  23317050.850     8077088.38249   6284014.29845  23317050.312    23317057.080
 04  7 19 16 51  0.0000000  0  8G19G 3G18G15G14G 9G22G21
  22257317.593    -6503878.13349  -5050505.87647  22257316.800    22257321.735
  21990842.845     2247504.96649   1753606.87947  21990842.576    21990849.544
  22433524.780     6203924.23949   4825951.51346  22433524.365    22433530.303
  20146430.311      230718.79049    184392.86348  20146429.687    20146436.364
  20641013.743    -7901454.07649  -6139433.11948  20641013.344    20641018.668
  23405237.502    -2540026.55749  -1966908.90945  23405237.232    23405245.273
  20769421.017     1395358.73249   1088260.01348  20769420.899    20769424.549
  23335120.428     8172043.71449   6358005.41345  23335119.683    23335126.550
 04  7 19 16 51 30.0000000  0  8G19G 3G18G15G14G 9G22G21
  22251226.408    -6535888.24549  -5075448.82447  22251225.507    22251230.465
  22000763.456     2299637.83949   1794229.85347  22000763.139    22000770.057
  22446942.056     6274432.92249   4880893.31046  22446941.776    22446947.706
  20151938.552      259664.98349    206948.32248  20151937.934    20151944.655
  20632024.654    -7948692.15349  -6176241.99448  20632024.217    20632029.519
  23407022.218    -2530648.00749  -1959600.96946  23407022.065    23407030.073
  20775202.063     1425738.16849   1111932.29048  20775201.937    20775205.568
  23353233.115     8267227.43849   6432174.47545  23353232.474    23353239.557
 04  7 19 16 52  0.0000000  0  8G19G 3G18G15G14G 9G22G21
  22245242.162    -6567335.64149  -5099953.27547  22245241.280    22245246.265
  22010771.006     2352228.02149   1835209.18947  22010770.701    22010777.672
  22460382.428     6345061.39749   4935928.44646  22460381.991    22460387.847
  20157535.059      289074.61449    229864.90848  20157534.469    20157541.165
  20623134.643    -7995409.06449  -6212644.76048  20623134.261    20623139.602
  23408925.124    -2520648.78149  -1951809.36545  23408924.889    23408932.764
  20781026.770     1456347.15749   1135783.45148  20781026.674    20781030.294
  23371389.230     8362637.77249   6506520.13945  23371388.434    23371395.741
 04  7 19 16 52 30.0000000  0  8G19G 3G18G15G14G 9G22G21
  22239365.380    -6598218.61349  -5124017.91647  22239364.448    22239369.451
  22020865.308     2405273.72449   1876543.47247  22020865.032    22020872.044
  22473845.354     6415809.22049   4991056.57446  22473844.891    22473850.752
  20163219.879      318948.27249    253143.07548  20163219.234    20163225.947
  20614344.105    -8041603.79549  -6248640.63148  20614343.657    20614349.058
  23410945.641    -2510028.40249  -1943533.73745  23410945.630    23410953.696
  20786895.166     1487185.41849   1159813.25948  20786895.052    20786898.675
  23389588.346     8458273.78949   6581041.63945  23389587.495    23389594.727
 04  7 19 16 53  0.0000000  0  8G19G 3G18G15G14G 9G22G21
  22233596.085    -6628535.87549  -5147641.75547  22233595.222    22233600.216
  22031045.940     2458772.66949   1918230.92647  22031045.634    22031052.630
  22487330.761     6486675.92949   5046277.35946  22487330.415    22487336.298
  20168993.005      349286.40649    276783.17148  20168992.407    20168999.103
  20605652.989    -8087275.08449  -6284228.63148  20605652.624    20605658.063
  23413085.232    -2498786.64249  -1934773.91246  23413085.078    23413092.930
  20792806.921     1518251.95249   1184020.94148  20792806.760    20792810.451
  23407830.049     8554134.42349   6655738.18845  23407829.296    23407836.472
 04  7 19 16 53 30.0000000  0  8G19G 3G18G15G14G 9G22G21
  22227934.468    -6658287.57349  -5170824.88547  22227933.641    22227938.654
  22041312.019     2512721.80449   1960269.18947  22041311.787    22041318.864
  22500838.810     6557659.99449   5101589.56946  22500838.373    22500844.155
  20174854.439      380088.12649    300784.49248  20174853.779    20174860.444
  20597061.632    -8132423.16049  -6319408.93148  20597061.261    20597066.651
  23415342.707    -2486924.32849  -1925530.54946  23415342.376    23415350.289
  20798761.782     1549545.09449   1208405.20248  20798761.667    20798765.346
  23426114.203     8650217.67549   6730608.16745  23426113.409    23426120.568
 04  7 19 16 54  0.0000000  0  8G19G 3G18G15G14G 9G22G21
  22222381.079    -6687471.14549  -5193565.32547  22222380.196    22222385.204
  22051663.844     2567120.29249   2002657.58547  22051663.551    22051670.636
  22514369.190     6628761.95449   5156993.65946  22514368.707    22514374.510
  20180804.315      411354.99149    325148.26648  20180803.700    20180810.374
  20588570.243    -8177045.95649  -6354179.92248  20588569.860    20588575.195
  23417718.208    -2474440.13849  -1915802.60046  23417717.991    23417725.960
  20804759.968     1581065.55049   1232966.58948  20804759.834    20804763.550
  23444440.537     8746523.49549   6805651.58045  23444439.723    23444447.000
 04  7 19 16 54 30.0000000  0  8G19G 3G18G15G14G 9G22G21
  22216935.752    -6716086.62449  -5215863.09947  22216934.846    22216939.809
  22062100.380     2621965.02849   2045393.70047  22062100.116    22062107.185
  22527921.527     6699980.39549   5212488.51146  22527921.075    22527927.010
  20186842.632      443086.34349    349873.98048  20186842.000    20186848.653
  20580178.802    -8221143.21949  -6388541.41348  20580178.409    20580183.724
  23420211.972    -2461334.96249  -1905590.79146  23420211.815    23420219.830
  20810801.013     1612811.74649   1257703.87848  20810800.932    20810804.630
  23462809.034     8843050.09749   6880866.99145  23462808.126    23462815.529
 04  7 19 16 55  0.0000000  0  8G19G 3G18G15G14G 9G22G21
  22211598.746    -6744132.42949  -5237716.97947  22211597.871    22211602.902
  22072621.484     2677254.21749   2088476.15847  22072621.332    22072628.421
  22541496.154     6771315.16849   5268074.01146  22541495.707    22541501.562
  20192969.450      475282.77749    374962.09448  20192968.779    20192975.472
  20571887.589    -8264713.71549  -6422492.43048  20571887.189    20571892.493
  23422824.062    -2447608.22049  -1894894.60946  23422823.917    23422831.926
  20816884.967     1644783.36749   1282616.82548  20816884.930    20816888.622
  23481219.262     8939796.55349   6956253.74745  23481218.580    23481225.732
 04  7 19 16 55 30.0000000  0  8G19G 3G18G15G14G 9G22G21
  22206370.185    -6771608.54549  -5259126.93847  22206369.350    22206374.437
  22083226.777     2732985.17549   2131902.84147  22083226.590    22083233.729
  22555092.578     6842765.04249   5323749.19446  22555092.145    22555097.982
  20199184.597      507944.11049    400412.47048  20199184.036    20199190.736
  20563696.594    -8307757.41449  -6456032.95348  20563696.239    20563701.544
  23425554.286    -2433260.37449  -1883714.51446  23425554.126    23425562.367
  20823011.656     1676979.02049   1307704.34448  20823011.579    20823015.217
  23499671.498     9036760.95849   7031810.35145  23499670.466    23499677.616
 04  7 19 16 56  0.0000000  0  8G19G 3G18G15G14G 9G22G21
  22201250.266    -6798513.67749  -5280091.98247  22201249.465    22201254.575
  22093915.681     2789155.47749   2175671.86947  22093915.470    22093922.637
  22568710.717     6914329.12649   5379513.36146  22568710.287    22568716.213
  20205488.407      541070.41549    426225.15548  20205487.782    20205494.488
  20555606.079    -8350273.41949  -6489162.29148  20555605.700    20555611.034
  23428402.836    -2418291.43949  -1872050.42246  23428402.643    23428410.754
  20829180.844     1709397.89349   1332965.79548  20829180.718    20829184.295
  23518164.526     9133942.83549   7107536.38945  23518163.534    23518170.711
 04  7 19 16 56 30.0000000  0  8G19G 3G18G15G14G 9G22G21
  22196239.268    -6824846.27349  -5300610.89847  22196238.494    22196243.621
  22104687.955     2845763.71149   2219782.13847  22104687.723    22104694.894
  22582350.630     6986007.41949   5435366.55646  22582350.294    22582356.095
  20211880.697      574662.18549    452400.54748  20211880.096    20211886.784
  20547616.258    -8392260.38049  -6521879.38148  20547615.832    20547621.145
  23431369.686    -2402700.85749  -1859901.94846  23431369.480    23431377.623
  20835392.360     1742040.03549   1358401.22348  20835392.248    20835395.910
  23536698.576     9231340.35549   7183430.49545  23536697.843    23536704.874
 04  7 19 16 57  0.0000000  0  8G19G 3G18G15G14G 9G22G21
  22191337.273    -6850606.24449  -5320683.61247  22191336.517    22191341.625
  22115542.949     2902807.15249   2264231.53647  22115542.788    22115549.950
  22596012.241     7057798.74649   5491307.80146  22596011.856    22596017.626
  20218361.611      608719.27649    478938.52648  20218360.970    20218367.670
  20539727.072    -8433718.15549  -6554184.11948  20539726.643    20539731.983
  23434454.469    -2386489.10949  -1847269.42246  23434454.424    23434462.721
  20841646.245     1774904.15449   1384009.62048  20841646.138    20841649.819
  23555274.229     9328952.70949   7259491.97245  23555273.183    23555280.114
 04  7 19 16 57 30.0000000  0  8G19G 3G18G15G14G 9G22G21
  22186544.317    -6875793.38749  -5340309.95347  22186543.566    22186548.704
  22126480.128     2960282.15949   2309017.21647  22126479.917    22126487.059
  22609695.105     7129701.86449   5547336.15046  22609694.694    22609700.452
  20224930.742      643240.73749    505838.34848  20224930.172    20224936.889
  20531938.569    -8474646.66449  -6586076.44748  20531938.185    20531943.547
  23437657.613    -2369657.26249  -1834153.72046  23437657.567    23437665.554
  20847942.043     1807988.60449   1409789.70248  20847941.920    20847945.608
  23573889.470     9426777.73649   7335719.18245  23573888.616    23573895.705
 04  7 19 16 58  0.0000000  0  8G19G 3G18G15G14G 9G22G21
  22181860.932    -6900405.16949  -5359487.98247  22181860.168    22181865.252
  22137499.187     3018188.11649   2354138.70247  22137499.008    22137506.197
  22623399.237     7201717.95949   5603452.56546  22623398.887    22623404.664
  20231588.775      678228.50749    533101.52648  20231588.153    20231594.865
  20524251.341    -8515043.57149  -6617554.54048  20524250.927    20524256.277
  23440979.052    -2352203.65649  -1820553.53146  23440978.928    23440986.767
  20854279.970     1841294.46149   1435742.30848  20854279.813    20854283.484
  23592545.111     9524815.46449   7412112.12445  23592544.691    23592551.833
 04  7 19 16 58 30.0000000  0  8G19G 3G18G15G14G 9G22G21
  22177287.054    -6924441.20649  -5378217.35347  22177286.254    22177291.430
  22148600.036     3076522.48949   2399594.03547  22148599.783    22148606.984
  22637124.759     7273845.70249   5659655.95646  22637124.425    22637130.240
  20238335.357      713682.31849    560727.86348  20238334.782    20238341.533
  20516665.292    -8554908.67249  -6648618.22848  20516664.859    20516670.192
  23444418.183    -2334128.89349  -1806469.30246  23444418.277    23444426.475
  20860659.772     1874820.55049   1461866.52848  20860659.616    20860663.294
  23611241.103     9623064.48849   7488669.72645  23611241.027    23611248.041
 04  7 19 16 59  0.0000000  0  8G19G 3G18G15G14G 9G22G21
  22172822.706    -6947901.98049  -5396498.49147  22172821.835    22172826.974
  22159781.597     3135281.78449   2445380.46147  22159781.323    22159788.606
  22650871.094     7346083.35949   5715944.98446  22650870.749    22650876.743
  20245170.440      749600.78349    588716.25448  20245169.850    20245176.613
  20509180.300    -8594242.38249  -6679267.86148  20509179.890    20509185.192
  23447976.101    -2315434.37349  -1791902.17046  23447975.984    23447983.990
  20867081.123     1908565.07649   1488160.94548  20867080.970    20867084.675
  23629977.239     9721522.46649   7565390.11145  23629977.008    23629983.893
 04  7 19 16 59 30.0000000  0  8G19G 3G18G15G14G 9G22G21
  22168467.920    -6970786.44949  -5414330.55447  22168467.079    22168472.245
  22171043.624     3194464.19149   2491496.57747  22171043.376    22171050.681
  22664638.310     7418430.88349   5772319.64346  22664638.008    22664644.122
  20252094.053      785984.44649    617067.14448  20252093.427    20252100.209
  20501796.608    -8633043.88549  -6709502.77848  20501796.192    20501801.494
  23451651.341    -2296119.75549  -1776851.82645  23451651.251    23451659.291
  20873544.002     1942527.56549   1514625.21048  20873543.856    20873547.557
  23648753.015     9820188.49049   7642272.62745  23648752.549    23648759.547
 04  7 19 17  0  0.0000000  0  8G19G 3G18G15G14G 9G22G21
  22164223.281    -6993092.85849  -5431712.17347  22164222.348    22164227.507
  22182385.881     3254067.82049   2537940.91947  22182385.634    22182392.891
  22678426.438     7490887.88349   5828779.61546  22678426.191    22678432.218
  20259106.338      822834.24349    645781.25748  20259105.743    20259112.502
  20494514.426    -8671311.83349  -6739321.93948  20494514.033    20494519.339
  23455444.540    -2276184.68849  -1761318.05745  23455444.633    23455452.805
  20880048.289     1976708.08749   1541259.37548  20880048.153    20880051.897
  23667567.960     9919062.05049   7719316.83445  23667567.634    23667574.639
 04  7 19 17  0 30.0000000  0  8G19G 3G18G15G14G 9G22G21
  22160088.561    -7014821.60449  -5448643.67647  22160087.551    22160092.651
  22193807.748     3314089.59149   2584711.08147  22193807.467    22193814.650
  22692235.260     7563453.38249   5885324.10446  22692235.003    22692240.979
  20266207.137      860149.25649    674857.87148  20266206.507    20266213.302
  20487333.773    -8709046.35249  -6768725.44948  20487333.404    20487338.681
  23459356.301    -2255630.43049  -1745301.77446  23459356.126    23459364.252
  20886593.831     2011105.12049   1568062.24948  20886593.742    20886597.440
  23686422.183    10018140.98949   7796521.11745  23686421.741    23686428.831
 04  7 19 17  1  0.0000000  0  8G19G 3G18G15G14G 9G22G21
  22156063.801    -7035971.92649  -5465124.45547  22156062.827    22156067.872
  22205308.586     3374526.69049   2631804.88247  22205308.315    22205315.556
  22706064.556     7636126.33049   5941952.33446  22706064.249    22706070.294
  20273396.346      897929.10549    704296.70348  20273395.800    20273402.613
  20480254.699    -8746247.10949  -6797713.02748  20480254.305    20480259.557
  23463385.550    -2234457.27949  -1728803.24646  23463385.356    23463393.473
  20893180.410     2045717.62149   1595033.01348  20893180.302    20893184.029
  23705314.986    10117423.68649   7873884.19145  23705314.742    23705321.934
 04  7 19 17  1 30.0000000  0  8G19G 3G18G15G14G 9G22G21
  22152149.450    -7056542.55749  -5481153.53647  22152148.387    22152153.362
  22216887.917     3435377.51249   2679221.06447  22216887.759    22216895.083
  22719914.163     7708907.16849   5998664.60446  22719913.851    22719920.052
  20280674.316      936174.63149    734098.39148  20280673.712    20280680.544
  20473277.461    -8782912.88849  -6826283.75048  20473277.065    20473282.306
  23467532.676    -2212664.97549  -1711822.26945  23467532.345    23467540.211
  20899807.999     2080545.54249   1622171.64048  20899807.884    20899811.581
  23724246.825    10216909.76049   7951405.70345  23724246.446    23724253.715
 04  7 19 17  2  0.0000000  0  8G19G 3G18G15G14G 9G22G21
  22148345.415    -7076532.61749  -5496730.21547  22148344.420    22148349.408
  22228545.716     3496639.83649   2726957.90047  22228545.638    22228553.001
  22733784.269     7781795.31449   6055460.52646  22733784.069    22733790.240
  20288040.843      974886.05949    764263.12448  20288040.272    20288047.054
  20466402.157    -8819042.85849  -6854436.95648  20466401.755    20466406.997
  23471797.510    -2190253.37749  -1694358.70245  23471797.212    23471805.066
  20906476.510     2115588.58849   1649477.90048  20906476.348    20906480.044
  23743216.903    10316598.11049   8029084.84345  23743216.513    23743223.707
 04  7 19 17  2 30.0000000  0  8G19G 3G18G15G14G 9G22G21
  22144651.887    -7095942.10549  -5511854.51047  22144650.917    22144655.932
  22240281.523     3558310.64449   2775013.02847  22240281.324    22240288.614
  22747674.674     7854789.35849   6112338.93846  22747674.403    22747680.701
  20295495.960     1014062.66449    794790.32948  20295495.361    20295502.162
  20459628.740    -8854637.09049  -6882172.70948  20459628.344    20459633.591
  23476179.672    -2167223.64849  -1676413.50845  23476179.599    23476187.532
  20913185.626     2150845.38649   1676950.71048  20913185.493    20913189.160
  23762225.083    10416486.71049   8106920.02045  23762224.614    23762231.745
 04  7 19 17  3  0.0000000  0  8G19G 3G18G15G14G 9G22G21
  22141068.972    -7114770.65349  -5526526.11047  22141068.007    22141072.937
  22252094.402     3620387.49149   2823384.54947  22252094.156    22252101.416
  22761584.890     7927888.74949   6169299.44746  22761584.713    22761591.039
  20303039.591     1053704.65049    825680.16848  20303038.989    20303045.786
  20452957.397    -8889695.09349  -6909490.61648  20452957.033    20452962.298
  23480679.835    -2143576.13849  -1657986.93945  23480679.544    23480687.490
  20919935.331     2186315.29449   1704589.58848  20919935.200    20919938.940
  23781271.265    10516574.39649   8184910.31445  23781270.888    23781277.858
 04  7 19 17  3 30.0000000  0  8G19G 3G18G15G14G 9G22G21
  22137596.839    -7133017.41049  -5540744.36447  22137595.841    22137600.634
  22263984.072     3682868.07449   2872070.68647  22263983.815    22263991.101
  22775515.446     8001093.47349   6226342.03546  22775515.149    22775521.403
  20310671.750     1093811.84949    856932.51648  20310671.175    20310677.964
  20446388.161    -8924216.64349  -6936390.50348  20446387.770    20446393.021
  23485297.190    -2119311.28849  -1639079.32245  23485296.957    23485304.775
  20926725.498     2221997.71349   1732394.05948  20926725.389    20926729.098
  23800355.153    10616859.80649   8263054.67145  23800354.717    23800361.687
 04  7 19 17  4  0.0000000  0  8G19G 3G18G15G14G 9G22G21
  22134235.346    -7150682.19649  -5554509.14247  22134234.418    22134239.187
  22275950.007     3745749.59349   2921069.22247  22275949.801    22275957.155
  22789465.790     8074402.35549   6283465.77346  22789465.471    22789471.723
  20318392.360     1134383.83349    888547.02548  20318391.760    20318398.555
  20439920.995    -8958201.54449  -6962872.23548  20439920.617    20439925.902
  23490032.210    -2094429.86949  -1619691.20445  23490031.899    23490039.690
  20933555.846     2257891.63049   1760363.32548  20933555.741    20933559.464
  23819476.101    10717341.49849   8341352.00045  23819475.810    23819482.823
 04  7 19 17  4 30.0000000  0  8G19G 3G18G15G14G 9G22G21
  22130984.710    -7167764.40249  -5567819.97747  22130983.809    22130988.563
  22287991.754     3809029.63649   2970378.30547  22287991.635    22287999.029
  22803435.937     8147815.17949   6340670.53546  22803435.470    22803441.751
  20326201.380     1175420.72449    920523.80248  20326200.834    20326207.670
  20433556.102    -8991649.05649  -6988935.21948  20433555.744    20433561.018
  23494884.269    -2068932.13449  -1599822.88446  23494883.970    23494892.087
  20940426.338     2293996.44249   1788496.93148  20940426.294    20940430.026
  23838634.178    10818018.16649   8419801.24645  23838633.917    23838641.052
 04  7 19 17  5  0.0000000  0  8G19G 3G18G15G14G 9G22G21
  22127845.001    -7184262.78349  -5580675.86547  22127844.132    22127849.017
  22300108.997     3872706.09249   3019996.28347  22300108.926    22300116.284
  22817425.628     8221331.73649   6397956.10246  22817425.225    22817431.658
  20334099.038     1216922.82549    952863.08548  20334098.437    20334105.295
  20427293.728    -9024558.15549  -7014578.65648  20427293.389    20427298.627
  23499853.663    -2042818.22649  -1579474.43346  23499853.530    23499861.513
  20947336.994     2330312.11749   1816794.84448  20947336.920    20947340.665
  23857829.513    10918888.86449   8498401.68445  23857828.989    23857836.279
 04  7 19 17  5 30.0000000  0  8G19G 3G18G15G14G 9G22G21
  22124816.354    -7200177.63049  -5593077.06047  22124815.509    22124820.552
  22312301.126     3936775.73149   3069920.62847  22312301.026    22312308.282
  22831434.892     8294951.03149   6455321.71346  22831434.577    22831440.883
  20342084.986     1258889.32449    985564.23048  20342084.398    20342091.214
  20421133.778    -9056929.17749  -7039802.81148  20421133.393    20421138.599
  23504939.923    -2016089.35149  -1558646.78245  23504939.828    23504947.700
  20954287.518     2366837.35549   1845256.05548  20954287.478    20954291.222
  23877061.429    11019951.96549   8577152.07245  23877060.745    23877068.152
 04  7 19 17  6  0.0000000  0  8G19G 3G18G15G14G 9G22G21
  22121899.038    -7215508.23349  -5605023.00247  22121898.239    22121903.258
  22324567.619     4001236.78849   3120149.98446  22324567.533    22324574.964
  22845463.911     8368672.88449   6512767.25646  22845463.504    22845469.526
  20350159.446     1301320.69949   1018627.62548  20350158.858    20350165.674
  20415076.406    -9088761.36649  -7064607.10448  20415075.987    20415081.131
  23510143.417    -1988745.57749  -1537340.02445  23510143.127    23510151.056
  20961277.961     2403572.02249   1873880.45448  20961277.879    20961281.587
  23896329.436    11121206.37849   8656051.52545  23896328.815    23896336.413
 04  7 19 17  6 30.0000000  0  8G19G 3G18G15G14G 9G22G21
  22119092.959    -7230254.68849  -5616513.75947  22119092.091    22119097.098
  22336908.214     4066085.83349   3170681.65647  22336908.000    22336915.485
  22859512.052     8442495.77249   6570291.51846  22859511.659    22859517.698
  20358322.107     1344215.83349   1052052.37948  20358321.557    20358328.364
  20409121.310    -9120055.12449  -7088991.83548  20409120.940    20409126.136
  23515463.290    -1960788.27449  -1515555.16545  23515463.113    23515471.140
  20968307.956     2440514.44149   1902666.73248  20968307.813    20968311.530
  23915633.798    11222650.03849   8735098.41345  23915633.161    23915640.757
 04  7 19 17  7  0.0000000  0  8G19G 3G18G15G14G 9G22G21
  22116398.243    -7244416.51249  -5627548.96347  22116397.267    22116402.214
  22349322.126     4131320.68549   3221513.96347  22349321.807    22349329.326
  22873579.124     8516419.46649   6627894.34246  22873578.871    22873585.057
  20366573.123     1387574.79449   1085838.55348  20366572.535    20366579.304
  20403268.798    -9150809.94049  -7112956.61548  20403268.451    20403273.659
  23520900.122    -1932217.86649  -1493292.57345  23520900.009    23520908.077
  20975377.311     2477664.24549   1931614.60448  20975377.188    20975380.942
  23934973.879    11324281.67649   8814291.76145  23934973.173    23934980.812
 04  7 19 17  7 30.0000000  0  8G19G 3G18G15G14G 9G22G21
  22113814.742    -7257993.17749  -5638128.20047  22113813.725    22113818.752
  22361808.895     4196938.78249   3272644.92146  22361808.562    22361816.151
  22887665.504     8590443.43849   6685575.32946  22887665.199    22887671.398
  20374912.392     1431397.58749   1119986.16148  20374911.782    20374918.526
  20397519.063    -9181025.39549  -7136501.11048  20397518.682    20397523.861
  23526453.657    -1903034.73949  -1470552.53945  23526453.435    23526461.450
  20982486.161     2515021.04149   1960723.78548  20982485.997    20982489.722
  23954349.235    11426100.12949   8893630.68545  23954348.569    23954356.315
 04  7 19 17  8  0.0000000  0  8G19G 3G18G15G14G 9G22G21
  22111342.648    -7270984.44249  -5648251.26547  22111341.617    22111346.724
  22374368.200     4262937.46949   3324072.42846  22374367.757    22374375.273
  22901770.948     8664567.48449   6743334.26746  22901770.624    22901776.829
  20383339.859     1475683.86349   1154494.92348  20383339.198    20383345.987
  20391871.901    -9210701.30149  -7159625.17848  20391871.541    20391876.691
  23532123.506    -1873239.77349  -1447335.73045  23532123.250    23532131.226
  20989634.153     2552583.95149   1989993.56548  20989633.989    20989637.715
  23973760.279    11528104.20249   8973114.26445  23973759.481    23973767.146
 04  7 19 17  8 30.0000000  0  8G19G 3G18G15G14G 9G22G21
  22108981.916    -7283389.96349  -5657917.91047  22108980.931    22108986.037
  22386999.261     4329314.22049   3375794.52646  22386998.813    22387006.392
  22915895.315     8738790.57649   6801170.37946  22915894.976    22915901.052
  20391855.472     1520433.60249   1189364.82548  20391854.822    20391861.553
  20386327.475    -9239837.35049  -7182328.57948  20386327.099    20386332.285
  23537909.780    -1842833.71549  -1423642.73445  23537909.563    23537917.305
  20996821.210     2590352.33949   2019423.45948  20996821.083    20996824.800
  23993205.970    11630292.38249   9052741.29245  23993205.319    23993212.704
 04  7 19 17  9  0.0000000  0  8G19G 3G18G15G14G 9G22G21
  22106732.711    -7295209.44049  -5667127.91447  22106731.758    22106736.839
  22399701.737     4396066.57149   3427809.30846  22399701.329    22399709.024
  22930038.409     8813112.42749   6859083.45746  22930037.916    22930044.121
  20400459.292     1565646.54049   1224595.66148  20400458.616    20400465.319
  20380885.796    -9268433.30549  -7204611.13448  20380885.447    20380890.637
  23543812.195    -1811817.19149  -1399474.06645  23543811.800    23543819.761
  21004047.309     2628325.66449   2049013.04748  21004047.171    21004050.874
  24012686.726    11732663.21049   9132510.62745  24012685.854    24012693.637
 04  7 19 17  9 30.0000000  0  8G19G 3G18G15G14G 9G22G21
  22104595.288    -7306441.59149  -5675880.25247  22104594.368    22104599.443
  22412475.364     4463192.29649   3480115.01546  22412474.996    22412482.670
  22944200.207     8887533.41149   6917073.77246  22944199.741    22944205.994
  20409151.202     1611322.97849   1260187.66548  20409150.559    20409157.299
  20375547.143    -9296487.96649  -7226471.89448  20375546.803    20375551.979
  23549830.182    -1780190.32149  -1374829.79645  23549829.932    23549838.124
  21011312.484     2666504.31149   2078762.62948  21011312.351    21011316.128
  24032201.704    11835215.97149   9212421.73344  24032200.675    24032208.203
 04  7 19 17 10  0.0000000  0  8G19G 3G18G15G14G 9G22G21
  22102569.549    -7317087.03249  -5684175.40847  22102568.630    22102573.664
  22425319.381     4530688.43849   3532709.35946  22425319.114    22425326.739
  22958380.845     8962052.38849   6975140.45246  22958380.334    22958386.480
  20417931.242     1657462.18049   1296140.26248  20417930.581    20417937.341
  20370311.454    -9324002.03049  -7247911.41348  20370311.107    20370316.212
  23555964.862    -1747954.46849  -1349711.00545  23555964.385    23555972.459
  21018616.408     2704886.55849   2108670.85648  21018616.225    21018620.022
  24051751.021    11937948.87449   9292473.20744  24051750.168    24051757.435
 04  7 19 17 10 30.0000000  0  8G19G 3G18G15G14G 9G22G21
  22100655.502    -7327145.78749  -5692013.38747  22100654.505    22100659.643
  22438233.334     4598552.43849   3585590.37546  22438233.154    22438240.806
  22972579.788     9036668.59649   7033282.88946  22972579.394    22972585.479
  20426799.164     1704063.53649   1332452.98148  20426798.532    20426805.284
  20365178.581    -9350975.35149  -7268929.57348  20365178.211    20365183.335
  23562214.822    -1715110.58849  -1324118.38545  23562214.459    23562222.450
  21025959.002     2743471.78749   2138737.25648  21025958.861    21025962.522
  24071334.581    12040860.29849   9372663.80744  24071334.001    24071340.925
 04  7 19 17 11  0.0000000  0  8G19G 3G18G15G14G 9G22G21
  22098853.011    -7336618.25149  -5699394.55247  22098851.973    22098857.077
  22451216.880     4666780.65249   3638755.18246  22451216.666    22451224.266
  22986796.958     9111380.78749   7091500.13246  22986796.622    22986802.745
  20435754.907     1751126.10049   1369125.08348  20435754.292    20435761.008
  20360148.407    -9377408.76949  -7289527.02948  20360148.073    20360153.229
  23568580.197    -1681660.23849  -1298053.24145  23568579.871    23568588.025
  21033339.946     2782258.74949   2168960.84848  21033339.792    21033343.436
  24090952.581    12143948.06449   9452991.83944  24090951.181    24090957.906
 04  7 19 17 11 30.0000000  0  8G19G 3G18G15G14G 9G22G21
  22097162.073    -7345504.23049  -5706318.69947  22097161.014    22097166.151
  22464269.254     4735370.63949   3692201.88446  22464268.950    22464276.617
  23001032.565     9186188.76549   7149792.01246  23001032.157    23001038.187
  20444798.358     1798649.83249   1406156.54048  20444797.771    20444804.531
  20355221.112    -9403301.87749  -7309703.46248  20355220.794    20355225.934
  23575060.883    -1647604.32049  -1271516.18245  23575060.565    23575068.803
  21040759.038     2821246.78049   2199341.12848  21040758.926    21040762.615
  24110603.013    12247210.81949   9533456.20844  24110601.658    24110608.455
 04  7 19 17 12  0.0000000  0  8G19G 3G18G15G14G 9G22G21
  22095582.952    -7353802.71249  -5712785.05647  22095581.847    22095587.016
  22477389.889     4804320.66749   3745929.14146  22477389.657    22477397.394
  23015286.290     9261092.84349   7208158.76146  23015285.949    23015291.888
  20453929.694     1846635.27149   1443547.75748  20453929.119    20453935.919
  20350396.905    -9428653.63649  -7329458.06648  20350396.544    20350401.652
  23581656.806    -1612942.74349  -1244507.18445  23581656.529    23581664.613
  21048216.502     2860436.41249   2229878.48748  21048216.423    21048220.219
  24130286.263    12350647.85949   9614056.36945  24130285.041    24130292.463
 04  7 19 17 12 30.0000000  0  8G19G 3G18G15G14G 9G22G21
  22094115.748    -7361513.13949  -5718793.19247  22094114.633    22094119.843
  22490578.740     4873628.51349   3799935.21746  22490578.546    22490586.255
  23029558.723     9336092.93549   7266600.33946  23029558.199    23029564.137
  20463148.904     1895082.40349   1481298.74248  20463148.307    20463155.133
  20345675.732    -9453463.75049  -7348790.60648  20345675.322    20345680.424
  23588367.521    -1577676.03449  -1217026.65145  23588367.384    23588375.533
  21055712.303     2899827.24749   2260572.63348  21055712.274    21055716.104
  24150002.584    12454258.70949   9694791.97545  24150001.522    24150009.221
 04  7 19 17 13  0.0000000  0  8G19G 3G18G15G14G 9G22G21
  22092760.334    -7368635.97949  -5724343.46347  22092759.221    22092764.452
  22503835.187     4943291.07449   3854217.67246  22503834.949    22503842.600
  23043848.781     9411188.08449   7325115.98346  23043848.227    23043854.380
  20472455.798     1943990.41549   1519408.85148  20472455.234    20472462.058
  20341057.591    -9477732.35249  -7367701.19448  20341057.189    20341062.251
  23595193.360    -1541805.65149  -1189075.73045  23595193.426    23595201.479
  21063246.293     2939418.20549   2291422.71448  21063246.198    21063250.010
  24169751.729    12558041.51449   9775661.54845  24169750.859    24169758.424
 04  7 19 17 13 30.0000000  0  8G19G 3G18G15G14G 9G22G21
  22091516.600    -7375171.69349  -5729436.24447  22091515.522    22091520.705
  22517158.287     5013304.73649   3908773.72946  22517158.126    22517165.840
  23058156.479     9486376.96649   7383704.66846  23058156.171    23058162.441
  20481850.203     1993358.19749   1557877.23248  20481849.611    20481856.454
  20336542.314    -9501460.17449  -7386190.39348  20336541.925    20336546.955
  23602134.234    -1505333.19149  -1160655.67045  23602134.093    23602142.026
  21070818.098     2979208.22049   2322427.91248  21070818.046    21070821.794
  24189533.293    12661993.81049   9856663.18245  24189532.235    24189540.135
 04  7 19 17 14  0.0000000  0  8G19G 3G18G15G14G 9G22G21
  22090384.670    -7381120.27249  -5734071.50347  22090383.576    22090388.707
  22530547.889     5083667.19049   3963601.56546  22530547.716    22530555.380
  23072482.206     9561659.41349   7442366.26646  23072482.023    23072488.401
  20491332.077     2043185.66849   1596703.81048  20491331.516    20491338.321
  20332130.008    -9524647.00949  -7404258.04048  20332129.620    20332134.648
  23609188.803    -1468259.68949  -1131767.25845  23609188.679    23609196.786
  21078427.663     3019196.67349   2353587.74148  21078427.588    21078431.391
  24209346.900    12766114.29749   9937795.89645  24209346.028    24209353.968
 04  7 19 17 14 30.0000000  0  8G19G 3G18G15G14G 9G22G21
  22089364.542    -7386480.83549  -5738248.58047  22089363.492    22089368.596
  22544003.502     5154376.16349   4018699.41946  22544003.291    22544010.838
  23086825.847     9637035.44549   7501100.76446  23086825.623    23086832.014
  20500901.470     2093472.82449   1635888.57748  20500900.842    20500907.666
  20327820.735    -9547292.20949  -7421903.64348  20327820.343    20327825.385
  23616358.057    -1430585.55249  -1102410.79045  23616357.855    23616365.956
  21086074.985     3059383.43349   2384902.08448  21086074.884    21086078.690
  24229192.166    12870401.86349  10019058.78445  24229191.540    24229199.402
 04  7 19 17 15  0.0000000  0  9G11G19G 3G18G15G14G 9G22G21
  24610946.043    -1405872.85449  -1070906.28845  24610946.976    24610954.715
  22088455.703    -7391256.67449  -5741970.02547  22088454.771    22088459.793
  22557523.880     5225426.04749   4074062.92546  22557523.721    22557531.262
  23101186.993     9712501.45749   7559905.39046  23101186.552    23101192.943
  20510557.565     2144216.00549   1675428.69548  20510556.977    20510563.818
  20323613.884    -9569399.29449  -7439129.92848  20323613.505    20323618.533
  23623641.098    -1392314.67549  -1072589.32945  23623640.873    23623648.764
  21093759.399     3099765.10949   2416368.31148  21093759.274    21093763.067
  24249068.386    12974852.65249  10100448.86045  24249067.880    24249075.893
 04  7 19 17 15 30.0000000  0  9G11G19G 3G18G15G14G 9G22G21
  24591826.097    -1506349.46549  -1149199.75145  24591827.082    24591834.641
  22087658.403    -7395446.40849  -5745234.77647  22087657.503    22087662.512
  22571108.850     5296815.76549   4129691.21546  22571108.737    22571116.262
  23115564.826     9788058.65449   7618781.06746  23115564.528    23115571.008
  20520300.821     2195416.33249   1715325.02348  20520300.132    20520306.902
  20319509.814    -9590966.31749  -7455935.38648  20319509.446    20319514.428
  23631037.409    -1353446.69849  -1042302.60945  23631037.113    23631045.255
  21101481.116     3140342.41049   2447986.97948  21101480.949    21101484.637
  24268975.528    13079466.26949  10181965.79245  24268975.049    24268983.373
 04  7 19 17 16  0.0000000  0  9G11G19G 3G18G15G14G 9G22G21
  24572720.558    -1606752.82249  -1227436.11245  24572720.930    24572728.476
  22086972.973    -7399047.90649  -5748041.14247  22086972.127    22086977.215
  22584758.418     5368544.27049   4185583.50846  22584758.267    22584765.774
  23129960.563     9863708.74849   7677729.13946  23129960.212    23129966.842
  20530131.162     2247075.48449   1755578.89848  20530130.546    20530137.297
  20315508.835    -9611991.62449  -7472318.73048  20315508.456    20315513.467
  23638547.161    -1313980.93649  -1011550.09445  23638547.154    23638555.272
  21109240.092     3181116.76349   2479759.19447  21109239.947    21109243.742
  24288913.918    13184243.32949  10263610.09245  24288913.585    24288921.974
 04  7 19 17 16 30.0000000  0  9G11G19G 3G18G15G14G 9G22G21
  24553629.154    -1707081.08849  -1305613.93845  24553629.226    24553636.568
  22086399.379    -7402061.76949  -5750389.60847  22086398.564    22086403.785
  22598471.930     5440608.52249   4241737.44046  22598471.674    22598479.325
  23144373.678     9939450.60849   7736748.74146  23144373.403    23144380.101
  20540048.785     2299192.58649   1796189.59748  20540048.111    20540054.848
  20311610.848    -9632475.52349  -7488280.19848  20311610.495    20311615.539
  23646170.904    -1273918.96049   -980332.98945  23646170.786    23646179.042
  21117036.529     3222087.15249   2511684.15948  21117036.380    21117040.170
  24308883.348    13289182.26549  10345380.48945  24308883.070    24308891.113
 04  7 19 17 17  0.0000000  0  9G11G19G 3G18G15G14G 9G22G21
  24534552.252    -1807332.66549  -1383732.00445  24534551.933    24534559.276
  22085937.766    -7404488.34549  -5752280.46947  22085936.904    22085942.031
  22612248.673     5513005.76749   4298150.81746  22612248.416    22612256.080
  23158804.405    10015283.86749   7795839.52646  23158803.993    23158810.724
  20550053.389     2351766.98849   1837156.63748  20550052.734    20550059.518
  20307815.827    -9652418.37949  -7503820.07648  20307815.482    20307820.539
  23653907.822    -1233261.94149   -948652.19345  23653907.661    23653915.701
  21124870.219     3263252.97249   2543761.41048  21124870.067    21124873.809
  24328883.025    13394281.04849  10427275.45545  24328882.704    24328890.818
 04  7 19 17 17 30.0000000  0  9G11G19G 3G18G15G14G 9G22G21
  24515490.102    -1907505.68149  -1461788.84045  24515489.380    24515496.673
  22085587.734    -7406327.75649  -5753713.77447  22085586.827    22085591.966
  22626088.265     5585733.00249   4354821.32746  22626088.025    22626095.584
  23173252.312    10091207.95749   7855001.09446  23173252.001    23173258.673
  20560144.951     2404798.11749   1878479.56848  20560144.278    20560151.057
  20304123.745    -9671820.47849  -7518938.57848  20304123.378    20304128.451
  23661757.385    -1192011.42249   -916508.91245  23661757.167    23661765.639
  21132740.853     3304613.39349   2575990.29448  21132740.688    21132744.504
  24348912.886    13499538.20949  10509293.82645  24348912.359    24348920.600
 04  7 19 17 18  0.0000000  0  9G11G19G 3G18G15G14G 9G22G21
  24496443.018    -2007597.56749  -1539782.51145  24496442.605    24496449.833
  22085349.440    -7407579.68549  -5754689.32047  22085348.531    22085353.688
  22639990.233     5658788.33849   4411747.50546  22639989.981    22639997.581
  23187717.487    10167222.82049   7914233.39546  23187717.167    23187723.910
  20570323.416     2458286.33649   1920158.67148  20570322.722    20570329.543
  20300534.681    -9690681.09149  -7533635.15048  20300534.302    20300539.374
  23669719.869    -1150167.85049   -883903.55545  23669719.773    23669728.358
  21140648.463     3346168.60349   2608370.97548  21140648.354    21140652.226
  24368972.689    13604953.23649  10591435.23745  24368972.361    24368980.460
 04  7 19 17 18 30.0000000  0  9G11G19G 3G18G15G14G 9G22G21
  24477411.535    -2107607.97249  -1617712.66345  24477411.230    24477418.220
  22085222.756    -7408245.54949  -5755208.19647  22085221.819    22085227.022
  22653953.753     5732167.55149   4468926.06946  22653953.564    22653961.294
  23202199.860    10243326.94349   7973535.25346  23202199.322    23202206.123
  20580588.395     2512229.49949   1962192.28248  20580587.786    20580594.613
  20297048.284    -9709001.92049  -7547911.10748  20297047.976    20297053.004
  23677795.106    -1107733.78449   -850838.03945  23677794.884    23677803.022
  21148592.888     3387916.80549   2640902.02547  21148592.784    21148596.590
  24389061.899    13710522.73349  10673696.98444  24389061.893    24389069.957
 04  7 19 17 19  0.0000000  0  9G11G19G 3G18G15G14G 9G22G21
  24458395.893    -2207534.31349  -1695577.31645  24458395.835    24458402.771
  22085207.597    -7408324.98449  -5755270.10547  22085206.710    22085211.928
  22667978.788     5805868.39849   4526355.23546  22667978.504    22667986.077
  23216699.090    10319520.27749   8032906.61746  23216698.504    23216705.127
  20590940.065     2566627.50449   2004580.31248  20590939.389    20590946.249
  20293664.752    -9726782.75549  -7561766.29148  20293664.408    20293669.421
  23685982.171    -1064710.11549   -817313.12645  23685981.906    23685989.944
  21156574.115     3429857.78849   2673583.30247  21156573.949    21156577.703
  24409180.695    13816246.07749  10756078.63144  24409180.426    24409188.716
 04  7 19 17 19 30.0000000  0  9G11G19G 3G18G15G14G 9G22G21
  24439396.688    -2307375.09649  -1773375.29345  24439396.638    24439403.651
  22085303.864    -7407819.01149  -5754875.85147  22085303.003    22085308.216
  22682064.317     5879887.42949   4584032.35346  22682063.944    22682071.447
  23231214.950    10395801.68249   8092346.63546  23231214.504    23231221.178
  20601377.954     2621479.27449   2047321.92048  20601377.333    20601384.212
  20290383.793    -9744024.25949  -7575201.22248  20290383.420    20290388.451
  23694281.141    -1021098.64849   -783330.20145  23694280.880    23694289.220
  21164591.735     3471990.45749   2706413.93647  21164591.518    21164595.313
  24429328.467    13922121.07749  10838578.46944  24429328.038    24429336.229
 04  7 19 17 20  0.0000000  0  8G11G19G 3G18G15G14G 9G22
  24420414.539    -2407127.21849  -1851104.20045  24420414.559    24420421.558
  22085511.750    -7406726.47349  -5754024.53647  22085510.959    22085516.063
  22696209.972     5954223.45849   4641956.48946  22696209.661    22696217.237
  23245748.024    10472172.17049   8151856.02746  23245747.463    23245754.160
  20611902.488     2676785.71949   2090417.81748  20611901.827    20611908.678
  20287205.745    -9760724.97649  -7588214.75948  20287205.380    20287210.450
  23702692.183     -976899.26449   -748889.15345  23702691.777    23702700.204
  21172645.887     3514315.78149   2739394.70047  21172645.752    21172649.608
 04  7 19 17 20 30.0000000  0  8G11G19G 3G18G15G14G 9G22
  24401450.224    -2506786.60549  -1928760.81645  24401449.908    24401456.921
  22085831.736    -7405045.61849  -5752714.79247  22085830.827    22085835.849
  22710415.922     6028875.54049   4700126.88946  22710415.616    22710423.137
  23260298.443    10548633.32849   8211436.07646  23260297.731    23260304.234
  20622513.744     2732548.24949   2133869.11948  20622513.111    20622520.008
  20284130.865    -9776883.51149  -7600805.81548  20284130.539    20284135.551
  23711215.038     -932111.41049   -713989.51945  23711214.837    23711222.933
  21180737.143     3556835.15249   2772526.66647  21180736.941    21180740.728
 04  7 19 17 21  0.0000000  0  8G11G19G 3G18G15G14G 9G22
  24382502.810    -2606355.76149  -2006347.14345  24382502.375    24382509.550
  22086262.616    -7402781.19749  -5750950.32447  22086261.739    22086266.810
  22724680.532     6103836.53149   4758538.00446  22724680.251    22724687.746
  23274864.723    10625180.15349   8271082.88446  23274864.086    23274870.619
  20633210.838     2788761.60649   2177671.69448  20633210.156    20633217.045
  20281158.384    -9792504.54849  -7612978.04848  20281157.986    20281162.951
  23719848.937     -886740.74749   -678635.78545  23719848.531    23719856.566
  21188864.204     3599543.38749   2805805.79147  21188864.045    21188867.898
 04  7 19 17 21 30.0000000  0  8G11G19G 3G18G15G14G 9G22
  24363572.948    -2705832.25149  -2083861.26145  24363572.561    24363579.675
  22086804.786    -7399932.79249  -5748730.79947  22086803.854    22086808.911
  22739003.485     6179104.32749   4817188.19146  22739003.246    22739010.793
  23289447.378    10701813.33649   8330797.02246  23289446.901    23289453.389
  20643993.735     2845426.04449   2221825.77647  20643993.071    20643999.906
  20278288.204    -9807587.60949  -7624731.06848  20278287.793    20278292.699
  23728593.116     -840787.77149   -642828.27545  23728592.857    23728601.157
  21197027.402     3642440.89049   2839232.40447  21197027.193    21197030.963
 04  7 19 17 22  0.0000000  0  8G11G19G 3G18G15G14G 9G22
  24344661.118    -2805213.04549  -2161300.79345  24344660.843    24344667.946
  22087458.195    -7396499.99949  -5746055.90047  22087457.162    22087462.223
  22753384.411     6254676.74349   4876075.73246  22753384.190    22753391.857
  23304046.721    10778532.97049   8390578.49746  23304046.304    23304052.768
  20654862.467     2902541.60449   2266331.38148  20654861.797    20654868.675
  20275520.357    -9822132.11149  -7636064.44048  20275520.000    20275524.916
  23737448.317     -794253.32749   -606567.67945  23737448.196    23737456.303
  21205226.583     3685527.95049   2872806.72547  21205226.407    21205230.184
 04  7 19 17 22 30.0000000  0  8G11G19G 3G18G15G14G 9G22
  24325767.508    -2904497.40549  -2238665.19845  24325767.462    24325774.694
  22088222.383    -7392484.64349  -5742927.06547  22088221.303    22088226.285
  22767822.632     6330549.89949   4935197.61946  22767822.394    22767830.146
  23318662.560    10855337.78649   8450426.34946  23318661.867    23318668.293
  20665816.673     2960106.64149   2311187.23147  20665816.073    20665823.030
  20272854.821    -9836139.50449  -7646979.28248  20272854.475    20272859.400
  23746413.960     -747140.25549   -569856.25245  23746413.660    23746421.751
  21213461.399     3728802.67949   2906527.26847  21213461.286    21213465.174
 04  7 19 17 23  0.0000000  0  8G11G19G 3G18G15G14G 9G22
  24306892.971    -3003682.67049  -2315952.39745  24306892.999    24306900.382
  22089097.409    -7387886.29749  -5739343.95047  22089096.367    22089101.411
  22782317.869     6406721.57249   4994552.12146  22782317.489    22782325.224
  23333294.022    10932227.72349   8510340.53946  23333293.606    23333300.048
  20676856.476     3018120.98949   2356393.18747  20676855.890    20676862.858
  20270291.545    -9849609.62049  -7657475.46948  20270291.209    20270296.134
  23755489.346     -699449.19149   -532694.42545  23755489.097    23755497.137
  21221732.154     3772265.26849   2940394.20547  21221731.981    21221735.800
 04  7 19 17 23 30.0000000  0  8G11G19G 3G18G15G14G 9G22
  24288037.879    -3102766.59349  -2393160.58645  24288037.653    24288045.307
  22090083.263    -7382704.99649  -5735306.59547  22090082.284    22090087.428
  22796869.272     6483189.43449   5054137.41746  22796868.906    22796876.553
  23347942.064    11009202.83649   8570321.07346  23347941.477    23347948.075
  20687981.796     3076584.45249   2401949.10447  20687981.159    20687988.109
  20267830.559    -9862542.45449  -7667552.99948  20267830.193    20267835.131
  23764674.309     -651181.30949   -495083.12745  23764674.029    23764682.302
  21230038.624     3815915.67849   2974407.49847  21230038.430    21230042.178
 04  7 19 17 24  0.0000000  0  8G11G19G 3G18G15G14G 9G22
  24269202.820    -3201746.58949  -2470287.76145  24269202.312    24269210.143
  22091180.022    -7376940.72349  -5730814.96647  22091179.095    22091184.360
  22811476.384     6559951.21449   5113951.75846  22811476.154    22811483.859
  23362606.131    11086263.53449   8630368.31045  23362605.565    23362612.051
  20699192.500     3135496.96249   2447854.92647  20699191.877    20699198.771
  20265471.863    -9874937.66049  -7677211.59248  20265471.466    20265476.409
  23773968.958     -602337.43949   -457022.98745  23773968.754    23773976.927
  21238380.755     3859753.82649   3008567.07847  21238380.575    21238384.341
 04  7 19 17 24 30.0000000  0  8G11G19G 3G18G15G14G 9G22
  24250388.031    -3300621.32749  -2547332.93645  24250387.116    24250395.030
  22092387.742    -7370594.67749  -5725870.01347  22092386.719    22092391.981
  22826138.997     6637003.47149   5173992.41546  22826138.783    22826146.463
  23377286.245    11163408.60049   8690481.30745  23377285.792    23377292.315
  20710488.399     3194856.93649   2494109.41847  20710487.778    20710494.660
  20263215.178    -9886796.59949  -7686452.31448  20263214.818    20263219.689
  23783372.831     -552919.88449   -418515.82745  23783372.684    23783380.575
  21246758.398     3903778.57749   3042872.06647  21246758.205    21246762.018
 04  7 19 17 25  0.0000000  0  8G11G19G 3G18G15G14G 9G22
  24231593.749    -3399388.28649  -2624294.11445  24231592.677    24231600.291
  22093706.110    -7363667.32549  -5720472.10147  22093705.056    22093710.274
  22840856.213     6714343.13849   5234257.03246  22840856.024    22840863.713
  23391982.513    11240637.77449   8750659.80945  23391982.028    23391988.595
  20721869.239     3254663.80149   2540712.13647  20721868.629    20721875.568
  20261060.526    -9898119.63749  -7695275.45348  20261060.130    20261064.977
  23792885.571     -502930.27749   -379562.92945  23792885.318    23792893.513
  21255171.455     3947989.41349   3077322.05847  21255171.271    21255175.105
 04  7 19 17 25 30.0000000  0  8G11G19G 3G18G15G14G 9G22
  24212820.088    -3498046.73849  -2701170.76145  24212818.784    24212826.154
  22095134.759    -7356159.79049  -5714622.08647  22095133.697    22095138.960
  22855627.565     6791966.83849   5294742.97846  22855627.408    22855635.057
  23406694.465    11317949.80549   8810902.91145  23406694.003    23406700.524
  20733334.997     3314916.27049   2587662.07847  20733334.381    20733341.273
  20259007.640    -9908907.70449  -7703681.72648  20259007.211    20259012.009
  23802506.844     -452370.64849   -340165.81945  23802506.607    23802515.038
  21263619.695     3992385.18649   3111916.14947  21263619.532    21263623.315
 04  7 19 17 26  0.0000000  0  8G11G19G 3G18G15G14G 9G22
  24194067.384    -3596594.07249  -2777960.83345  24194066.027    24194073.156
  22096673.801    -7348072.14149  -5708320.03747  22096672.752    22096678.011
  22870452.621     6869872.47449   5355448.60246  22870452.395    22870460.062
  23421422.297    11395344.93249   8871210.72845  23421421.906    23421428.493
  20744885.556     3375614.05749   2634959.02247  20744884.845    20744891.689
  20257056.630    -9919160.59349  -7711670.98248  20257056.172    20257060.949
  23812236.536     -401242.15549   -300325.47745  23812236.192    23812244.339
  21272103.140     4036966.02449   3146654.45147  21272103.029    21272106.735
 04  7 19 17 26 30.0000000  0  8G11G19G 3G18G15G14G 9G22
  24175335.876    -3695028.20149  -2854662.68345  24175334.654    24175341.775
  22098323.065    -7339405.31749  -5701566.69247  22098322.040    22098327.248
  22885330.558     6948057.03249   5416371.59946  22885330.475    22885338.179
  23436166.087    11472822.66749   8931582.93945  23436165.530    23436172.175
  20756520.503     3436756.11349   2682602.15547  20756519.820    20756526.666
  20255207.179    -9928879.26849  -7719243.96148  20255206.752    20255211.587
  23822073.896     -349546.41449   -260043.11145  23822073.472    23822081.751
  21280621.815     4081731.50149   3181536.62147  21280621.592    21280625.371
 04  7 19 17 27  0.0000000  0  8G11G19G 3G18G15G14G 9G22
  24156626.203    -3793346.21549  -2931274.07545  24156625.356    24156632.454
  22100082.555    -7330158.90849  -5694361.71747  22100081.552    22100086.747
  22900261.280     7026518.22549   5477510.13146  22900261.129    22900268.978
  23450925.540    11550383.76849   8992020.10745  23450925.042    23450931.784
  20768240.071     3498342.75549   2730591.72047  20768239.387    20768246.302
  20253459.525    -9938063.03249  -7726400.13348  20253459.142    20253464.040
  23832018.828     -297284.08949   -219319.25745  23832018.695    23832026.958
  21289175.501     4126681.83649   3216562.84447  21289175.350    21289179.185
 04  7 19 17 27 30.0000000  0  8G11G19G 3G18G15G14G 9G22
  24137938.874    -3891546.89849  -3007794.03045  24137938.373    24137945.534
  22101952.051    -7320334.48049  -5686706.32947  22101951.048    22101956.341
  22915243.952     7105252.42849   5538861.39346  22915243.776    22915251.631
  23465700.627    11628026.70749   9052521.01545  23465700.054    23465706.734
  20780043.898     3560372.02149   2778926.18247  20780043.185    20780050.106
  20251813.365    -9946713.76149  -7733140.94648  20251813.001    20251817.884
  23842071.396     -244458.20849   -178156.25145  23842071.087    23842079.370
  21297764.190     4171815.51749   3251731.92847  21297764.045    21297767.835
 04  7 19 17 28  0.0000000  0  9G11G19G 3G18G25G15G14G 9G22
  24119273.584    -3989633.58449  -3084225.16145  24119273.105    24119280.266
  22103930.494    -7309937.73749  -5678604.99947  22103929.458    22103934.766
  22930277.290     7184252.10949   5600419.54546  22930276.960    22930284.802
  23480490.032    11705745.82949   9113081.31245  23480489.485    23480496.115
  24495021.926    -3539974.58149  -2742652.95345  24495021.750    24495031.674
  20791930.903     3622838.23349   2827601.12347  20791930.137    20791936.979
  20250267.665    -9954836.69749  -7739470.49848  20250267.272    20250272.099
  23852229.766     -191075.44549   -136559.30045  23852229.495    23852237.850
  21306386.728     4217127.10249   3287039.64247  21306386.556    21306390.378
 04  7 19 17 28 30.0000000  0  9G11G19G 3G18G25G15G14G 9G22
  24100631.798    -4087595.94449  -3160559.40645  24100631.421    24100638.526
  22106019.244    -7298961.41849  -5670052.03847  22106018.202    22106023.525
  22945361.946     7263521.96949   5662188.21846  22945361.617    22945369.433
  23495295.544    11783548.84749   9173706.96945  23495295.045    23495301.614
  24475784.638    -3641067.20349  -2821426.29445  24475784.666    24475794.176
  20803902.121     3685748.44649   2876622.04747  20803901.499    20803908.400
  20248823.753    -9962424.53949  -7745383.08848  20248823.361    20248828.123
  23862495.508     -137129.32749    -94523.37545  23862495.338    23862503.542
  21315044.503     4262624.16149   3322491.87447  21315044.322    21315048.155
 04  7 19 17 29  0.0000000  0  9G11G19G 3G18G25G15G14G 9G22
  24082013.542    -4185434.04849  -3236796.83945  24082013.340    24082020.498
  22108217.791    -7287408.39049  -5661049.70547  22108216.730    22108221.969
  22960497.061     7343057.14649   5724163.61246  22960496.669    22960504.556
  23510116.696    11861433.61149   9234396.33745  23510116.145    23510122.777
  24456543.231    -3742183.11449  -2900217.79545  24456543.207    24456552.148
  20815957.521     3749099.53849   2925986.50147  20815956.863    20815963.713
  20247481.143    -9969479.88849  -7750880.75348  20247480.761    20247485.507
  23872867.449      -82623.78649    -52051.55645  23872867.288    23872875.754
  21323737.112     4308304.03349   3358086.56547  21323736.974    21323740.803
 04  7 19 17 29 30.0000000  0  9G11G19G 3G18G25G15G14G 9G22
  24063419.323    -4283145.30149  -3312935.42445  24063419.252    24063426.432
  22110525.909    -7275278.89449  -5651598.16047  22110524.872    22110530.117
  22975682.067     7422855.36649   5786344.00846  22975681.767    22975689.681
  23524953.166    11939400.47149   9295149.69545  23524952.714    23524959.362
  24437297.648    -3843319.24849  -2979025.02445  24437297.471    24437306.441
  20828096.735     3812891.63949   2975694.60347  20828096.099    20828102.971
  20246239.851    -9976002.78049  -7755963.51548  20246239.470    20246244.241
  23883345.736      -27559.82449     -9144.60545  23883345.643    23883353.941
  21332464.583     4354167.05949   3393823.97147  21332464.442    21332468.185
 04  7 19 17 30  0.0000000  0  9G11G19G 3G18G25G15G14G 9G22
  24044849.333    -4380728.04249  -3388973.87545  24044849.618    24044856.863
  22112943.494    -7262574.18749  -5641698.40547  22112942.548    22112947.790
  22990916.828     7502913.19849   5848726.67346  22990916.460    22990924.288
  23539805.029    12017448.55749   9355966.29245  23539804.512    23539811.581
  24418048.460    -3944473.53349  -3057846.37745  24418048.297    24418057.405
  20840319.643     3877123.20749   3025745.14447  20840318.997    20840325.909
  20245099.640    -9981994.34849  -7760632.26048  20245099.270    20245104.041
  23893929.846       28060.07949     34195.55845  23893929.617    23893937.926
  21341226.722     4400212.00949   3429703.12847  21341226.516    21341230.315
 04  7 19 17 30 30.0000000  0  9G11G19G 3G18G25G15G14G 9G22
  24026304.209    -4478180.99749  -3464911.18345  24026304.686    24026312.211
  22115470.356    -7249295.47049  -5631351.38247  22115469.419    22115474.672
  23006200.339     7583227.39749   5911309.09646  23006199.929    23006207.622
  23554672.333    12095576.62449   9416845.24245  23554672.039    23554678.894
  24398795.777    -4045643.76449  -3136680.18145  24398796.096    24398805.507
  20852625.870     3941792.79949   3076137.00447  20852625.198    20852632.239
  20244060.393    -9987455.65549  -7764887.81648  20244060.049    20244064.771
  23904619.497       84233.79249     77967.25845  23904619.236    23904627.515
  21350023.177     4446437.97449   3465723.34647  21350023.007    21350026.850
 04  7 19 17 31  0.0000000  0  9G11G19G 3G18G25G15G14G 9G22
  24007784.561    -4575501.92349  -3540745.59645  24007784.876    24007792.692
  22118106.178    -7235443.69049  -5620557.81447  22118105.324    22118110.578
  23021531.656     7663794.81349   5974088.85146  23021531.296    23021539.101
  23569554.978    12173784.52249   9477786.39545  23569554.597    23569561.379
  24379540.622    -4146827.61949  -3215524.62745  24379541.284    24379550.814
  20865015.258     4006899.55549   3126869.52347  20865014.611    20865021.609
  20243121.917    -9992387.59049  -7768730.87348  20243121.529    20243126.224
  23915413.969      140959.17049    122168.83045  23915413.634    23915422.025
  21358854.155     4492844.61849   3501884.34547  21358853.923    21358857.700
 04  7 19 17 31 30.0000000  0  9G11G19G 3G18G25G15G14G 9G22
  23989290.853    -4672688.75249  -3616475.54345  23989290.869    23989298.715
  22120850.991    -7221019.64649  -5609318.31147  22120850.164    22120855.432
  23036910.400     7744612.75249   6037063.81146  23036910.329    23036918.247
  23584452.436    12252071.89949   9538789.47745  23584452.134    23584459.195
  24360284.406    -4248022.19049  -3294377.41345  24360284.646    24360293.994
  20877487.826     4072442.65749   3177942.03547  20877487.116    20877494.056
  20242284.022    -9996790.72549  -7772161.88248  20242283.659    20242288.365
  23926312.987      198234.60649    166798.96845  23926312.769    23926321.254
  21367719.281     4539431.37649   3538185.69347  21367719.066    21367722.876
 04  7 19 17 32  0.0000000  0  9G11G19G 3G18G25G15G14G 9G22
  23970822.828    -4769740.39849  -3692100.16645  23970822.785    23970830.191
  22123704.318    -7206025.18149  -5597634.33947  22123703.479    22123708.746
  23052336.506     7825677.26649   6100230.89346  23052336.410    23052344.328
  23599364.810    12330437.47349   9599853.50845  23599364.589    23599371.654
  24341026.089    -4349225.93049  -3373237.35845  24341026.228    24341035.480
  20890042.873     4138420.17349   3229353.06347  20890042.245    20890049.219
  20241546.430   -10000666.48349  -7775181.95048  20241546.099    20241550.898
  23937316.204      256057.22849    211855.51745  23937316.131    23937324.545
  21376618.461     4586196.92149   3574626.35947  21376618.265    21376622.092
 04  7 19 17 32 30.0000000  0  9G11G19G 3G18G25G15G14G 9G22
  23952380.903    -4866654.28949  -3767617.43645  23952380.902    23952387.950
  22126666.203    -7190461.10949  -5585506.50047  22126665.229    22126670.431
  23067808.919     7906985.85249   6163588.17746  23067808.908    23067816.918
  23614292.265    12408881.19449   9660978.40845  23614292.006    23614299.086
  24321766.209    -4450435.82849  -3452102.06545  24321766.362    24321775.694
  20902680.430     4204831.22949   3281101.90747  20902679.836    20902686.797
  20240909.158   -10004015.49149  -7777791.55648  20240908.781    20240913.592
  23948423.563      314425.48849    257337.23645  23948423.381    23948431.558
  21385551.667     4633141.08549   3611206.20147  21385551.451    21385555.361
 04  7 19 17 33  0.0000000  0  9G11G19G 3G18G25G15G14G 9G22
  23933965.613    -4963428.00449  -3843025.47845  23933965.421    23933972.319
  22129736.354    -7174327.77949  -5572935.09847  22129735.283    22129740.498
  23083327.633     7988535.92149   6227133.61646  23083327.485    23083335.446
  23629234.568    12487403.08449   9722164.22445  23629234.241    23629241.483
  24302505.875    -4551648.50449  -3530968.94145  24302506.055    24302515.528
  20915400.550     4271675.47649   3333188.29847  20915399.900    20915406.826
  20240371.954   -10006838.17749  -7779991.04848  20240371.592    20240376.424
  23959634.375      373337.53249    303242.74245  23959634.071    23959642.047
  21394518.750     4680263.71249   3647925.11647  21394518.573    21394522.506
 04  7 19 17 33 30.0000000  0  9G11G19G 3G18G25G15G14G 9G22
  23915577.403    -5060060.10649  -3918323.16645  23915576.920    23915583.569
  22132914.603    -7157626.58449  -5559921.19347  22132913.523    22132918.750
  23098891.484     8070323.97749   6290864.51746  23098891.280    23098899.244
  23644191.822    12566002.31649   9783410.31645  23644191.316    23644198.506
  24283245.926    -4652861.70449  -3609836.21245  24283245.889    24283255.276
  20928202.659     4338951.38449   3385611.05847  20928202.057    20928209.016
  20239934.693   -10009135.79449  -7781781.39248  20239934.345    20239939.148
  23970947.800      432791.20349    349570.18845  23970947.559    23970955.794
  21403519.851     4727563.92749   3684782.40047  21403519.612    21403523.481
 04  7 19 17 34  0.0000000  0  9G11G19G 3G18G25G15G14G 9G22
  23897216.629    -5156547.78949  -3993508.32245  23897215.942    23897222.642
  22136200.591    -7140358.43649  -5546465.51347  22136199.468    22136204.749
  23114500.129     8152347.57549   6354778.94846  23114499.855    23114507.965
  23659163.634    12644678.83149   9844716.63646  23659163.261    23659170.370
  24263986.246    -4754073.03549  -3688702.03345  24263986.052    24263995.430
  20941087.016     4406658.48549   3438369.80847  20941086.367    20941093.288
  20239597.365   -10010908.67149  -7783162.85048  20239596.979    20239601.776
  23982364.393      492784.70549    396318.32545  23982364.045    23982372.327
  21412554.544     4775041.73749   3721778.08047  21412554.327    21412558.172
 04  7 19 17 34 30.0000000  0  9G11G19G 3G18G25G15G14G 9G22
  23878883.647    -5252889.14649  -4068579.44445  23878882.914    23878889.511
  22139594.325    -7122524.09349  -5532568.64547  22139593.268    22139598.596
  23130152.893     8234603.73249   6418874.59346  23130152.648    23130160.791
  23674150.103    12723432.54049   9906083.07845  23674149.427    23674156.705
  24244726.869    -4855279.37349  -3767563.98145  24244727.005    24244736.384
  20954053.185     4474795.61949   3491463.65647  20954052.461    20954059.474
  20239359.689   -10012157.53549  -7784135.98548  20239359.293    20239364.094
  23993883.293      553316.29549    443485.78445  23993882.821    23993891.183
  21421622.974     4822696.73249   3758911.82147  21421622.759    21421626.664
 04  7 19 17 35  0.0000000  0  9G11G19G 3G18G25G15G14G 9G22
  23860578.833    -5349081.03949  -4143534.09645  23860577.946    23860584.801
  22143095.888    -7104123.44449  -5518230.50347  22143094.844    22143100.158
  23145849.669     8317090.97149   6483150.29346  23145849.452    23145857.615
  23689151.065    12802264.13649   9967510.22645  23689150.582    23689158.012
  24225469.382    -4956476.87649  -3846419.05445  24225469.667    24225478.755
  20967100.976     4543362.86949   3544892.64747  20967100.358    20967107.485
  20239221.775   -10012882.07849  -7784700.56548  20239221.409    20239226.189
  24005504.035      614385.09349    491071.83345  24005503.836    24005512.284
  21430725.217     4870529.45649   3796184.04847  21430725.078    21430729.063
 04  7 19 17 35 30.0000000  0  9G11G19G 3G18G25G15G14G 9G22
  23842302.144    -5445122.07749  -4218371.18545  23842301.669    23842308.680
  22146704.851    -7085158.39049  -5503452.55947  22146703.816    22146709.144
  23161589.898     8399805.42749   6547603.04846  23161589.605    23161597.819
  23704166.944    12881172.70749  10028997.36145  23704166.448    23704173.732
  24206213.917    -5057663.47749  -3925265.61045  24206214.147    24206223.227
  20980230.503     4612358.45749   3598655.40747  20980229.799    20980236.948
  20239183.375   -10013083.99849  -7784857.89848  20239183.015    20239187.769
  24017226.699      675988.36549    539074.31045  24017226.410    24017234.968
  21439861.161     4918538.99949   3833594.05547  21439861.013    21439864.989
 04  7 19 17 36  0.0000000  0  9G11G19G 3G18G25G15G14G 9G22
  23824054.515    -5541010.55949  -4293089.38645  23824054.501    23824061.630
  22150420.891    -7065630.47349  -5488236.02847  22150419.883    22150425.190
  23177372.634     8482743.60049   6612230.13846  23177372.349    23177380.455
  23719197.200    12960157.25049  10090543.69945  23719196.752    23719203.838
  24186961.428    -5158837.09649  -4004102.05645  24186961.256    24186970.508
  20993441.181     4681780.75349   3652750.67347  20993440.434    20993447.570
  20239244.143   -10012764.55949  -7784608.98048  20239243.783    20239248.585
  24029051.032      738123.65049    587491.37645  24029050.605    24029059.018
  21449030.511     4966724.34449   3871141.05247  21449030.405    21449034.308
 04  7 19 17 36 30.0000000  0  9G11G19G 3G18G25G15G14G 9G22
  23805837.313    -5636744.10749  -4367686.87645  23805837.062    23805844.194
  22154243.781    -7045541.06449  -5472581.96547  22154242.747    22154248.042
  23193197.104     8565902.51449   6677029.22946  23193196.984    23193205.108
  23734242.067    13039217.41549  10152148.94545  23734241.537    23734248.451
  24167711.664    -5259995.12649  -4082926.33945  24167711.462    24167720.575
  21006732.730     4751628.68849   3707177.60547  21006732.102    21006739.201
  20239403.974   -10011924.60549  -7783954.46648  20239403.622    20239408.430
  24040975.457      800788.62349    636321.17845  24040975.249    24040984.046
  21458233.305     5015084.87449   3908824.55347  21458233.144    21458237.000
 04  7 19 17 37  0.0000000  0  9G11G19G 3G18G25G15G14G 9G22
  23787650.030    -5732320.64049  -4442162.01845  23787649.553    23787656.461
  22158173.289    -7024891.02949  -5456491.05847  22158172.356    22158177.724
  23209063.290     8649279.42649   6741998.19446  23209063.210    23209071.312
  23749301.173    13118352.98749  10213812.99045  23749300.691    23749307.535
  24148465.076    -5361134.59349  -4161736.18845  24148465.136    24148474.245
  21020105.283     4821901.54249   3761935.64247  21020104.604    21020111.690
  20239662.754   -10010564.80449  -7782894.87748  20239662.403    20239667.241
  24053000.725      863981.55649    685562.37945  24053000.534    24053009.397
  21467469.366     5063620.49649   3946644.50347  21467469.170    21467473.059
 04  7 19 17 37 30.0000000  0  9G11G19G 3G18G25G15G14G 9G22
  23769492.622    -5827738.99349  -4516513.92545  23769492.093    23769498.708
  22162209.187    -7003682.08149  -5439964.63747  22162208.332    22162213.683
  23224970.400     8732870.67149   6807134.14546  23224970.148    23224978.197
  23764374.599    13197563.39749  10275535.32745  23764374.096    23764380.920
  24129223.014    -5462253.33749  -4240529.83345  24129222.677    24129231.815
  21033558.179     4892597.35549   3817023.25047  21033557.541    21033564.713
  20240020.008   -10008687.06349  -7781431.69848  20240019.696    20240024.535
  24065126.144      927699.49449    735212.68545  24065125.829    24065134.205
  21476738.538     5112329.99549   3984599.92647  21476738.323    21476742.138
 04  7 19 17 38  0.0000000  0  9G11G19G 3G18G25G15G14G 9G22
  23751365.888    -5922995.93949  -4590740.08045  23751365.312    23751371.673
  22166351.420    -6981914.60449  -5423002.99547  22166350.545    22166355.929
  23240917.704     8816674.41349   6872435.69846  23240917.468    23240925.461
  23779462.209    13276849.17949  10337316.38245  23779461.632    23779468.661
  24109985.433    -5563347.91449  -4319304.69645  24109985.065    24109993.849
  21047091.672     4963715.99949   3872440.33947  21047091.012    21047098.157
  20240475.968   -10006291.16649  -7779564.76448  20240475.630    20240480.430
  24077350.655      991941.29349    785271.18145  24077350.556    24077358.783
  21486040.696     5161213.95249   4022691.30247  21486040.584    21486044.478
 04  7 19 17 38 30.0000000  0  9G11G19G 3G18G25G15G14G 9G22
  23733270.207    -6018088.98249  -4664838.49545  23733269.600    23733275.874
  22170599.811    -6959589.63449  -5405606.94247  22170598.894    22170604.394
  23256904.822     8900687.71549   6937900.55746  23256904.630    23256912.783
  23794563.698    13356209.54049  10399155.53945  23794563.406    23794570.497
  24090752.822    -5664415.34949  -4398058.37245  24090752.459    24090761.265
  21060705.330     5035256.35449   3928186.04047  21060704.658    21060711.853
  20241030.369   -10003378.00449  -7777294.76448  20241030.046    20241034.777
  24089674.868     1056705.08249    835736.42545  24089674.895    24089683.128
  21495376.239     5210272.18349   4060918.47047  21495376.071    21495379.999
 04  7 19 17 39  0.0000000  0  9G11G19G 3G18G25G15G14G 9G22
  23715206.200    -6113016.17449  -4738807.66345  23715205.565    23715211.874
  22174953.953    -6936708.89049  -5387777.82847  22174953.009    22174958.479
  23272931.497     8984907.35549   7003526.17146  23272931.285    23272939.358
  23809679.756    13435643.96849  10461052.40845  23809679.422    23809686.453
  24071525.978    -5765453.37549  -4476789.14145  24071525.520    24071534.313
  21074399.076     5107217.11549   3984259.32247  21074398.387    21074405.585
  20241682.967    -9999948.74849  -7774622.61448  20241682.605    20241687.324
  24102098.030     1121988.20049    886606.39345  24102097.725    24102106.243
  21504744.791     5259503.85049   4099280.78547  21504744.595    21504748.477
 04  7 19 17 39 30.0000000  0  9G11G19G 3G18G25G15G14G 9G22
  23697173.885    -6207776.07349  -4812646.47945  23697173.368    23697179.749
  22179413.554    -6913273.63949  -5369516.61447  22179412.602    22179418.117
  23288996.671     9069330.14249   7069310.09046  23288996.413    23289004.512
  23824809.637    13515152.28749  10523006.89045  23824809.248    23824816.488
  24052305.060    -5866459.58249  -4555495.10645  24052304.646    24052313.399
  21088172.682     5179596.84049   4040659.06747  21088171.892    21088179.025
  20242433.401    -9996004.77049  -7771549.38948  20242433.055    20242437.806
  24114619.523     1187788.26249    937879.14945  24114619.216    24114627.666
  21514146.247     5308908.30849   4137777.73947  21514145.987    21514149.908
 04  7 19 17 40  0.0000000  0  9G11G19G 3G18G25G15G14G 9G22
  23679173.799    -6302365.90449  -4886352.76845  23679173.390    23679179.946
  22183978.411    -6889284.95849  -5350824.16847  22183977.452    22183983.008
  23305099.659     9153953.33949   7135250.17546  23305099.576    23305107.839
  23839953.965    13594734.57849  10585019.00845  23839953.364    23839960.358
  24033090.729    -5967430.70849  -4634173.76945  24033090.208    24033099.206
  21102025.635     5252394.83249   4097384.74147  21102024.892    21102032.040
  20243281.689    -9991546.61949  -7768075.50748  20243281.378    20243286.194
  24127238.872     1254103.61149    989553.37245  24127238.500    24127247.094
  21523580.544     5358485.70249   4176409.45347  21523580.275    21523584.216
 04  7 19 17 40 30.0000000  0  9G11G19G 3G18G25G15G14G 9G22
  23661206.482    -6396783.05749  -4959924.50845  23661206.208    23661212.908
  22188648.488    -6864743.57949  -5331701.04647  22188647.569    22188653.094
  23321240.808     9238774.56149   7201344.54246  23321240.631    23321248.985
  23855112.225    13674390.92149  10647088.79945  23855111.748    23855118.688
  24013883.477    -6068363.46349  -4712822.55445  24013883.086    24013892.043
  21115958.069     5325610.20249   4154435.64547  21115957.347    21115964.498
  20244227.886    -9986574.59849  -7764201.20548  20244227.563    20244232.404
  24139955.678     1320932.34149   1041627.61645  24139955.555    24139964.131
  21533047.731     5408235.98949   4215175.89447  21533047.481    21533051.393
 04  7 19 17 41  0.0000000  0  9G11G19G 3G18G25G15G14G 9G22
  23643272.235    -6491025.81649  -5033360.36645  23643272.163    23643278.972
  22193423.453    -6839651.25549  -5312148.61447  22193422.573    22193428.034
  23337418.969     9323790.66549   7267590.78746  23337418.721    23337427.168
  23870284.428    13754120.44949  10709215.63145  23870283.896    23870290.831
  23994684.040    -6169255.69349  -4791439.73345  23994683.676    23994692.590
  21129969.577     5399241.28749   4211810.47947  21129968.897    21129976.068
  20245271.526    -9981090.46249  -7759927.84748  20245271.180    20245276.042
  24152770.082     1388271.71149   1094099.83345  24152770.064    24152778.158
  21542547.645     5458158.44749   4254076.48947  21542547.435    21542551.366
 04  7 19 17 41 30.0000000  0  9G11G19G 3G18G25G15G14G 9G22
  23625372.072    -6585091.99649  -5106658.62445  23625371.985    23625378.747
  22198302.859    -6814009.37949  -5292167.96047  22198302.005    22198307.533
  23353633.703     9408998.50749   7333986.45546  23353633.346    23353641.878
  23885469.967    13833922.75149  10771399.20445  23885469.475    23885476.761
  23975492.624    -6270104.62349  -4870023.18445  23975492.592    23975501.394
  21144059.953     5473286.74949   4269508.20347  21144059.322    21144066.474
  20246412.297    -9975095.31449  -7755256.30648  20246411.971    20246416.864
  24165681.473     1456119.65649   1146968.33145  24165681.268    24165689.403
  21552080.279     5508252.46049   4293110.76947  21552079.996    21552083.975
 04  7 19 17 42  0.0000000  0  9G11G19G 3G18G25G15G14G 9G22
  23607506.033    -6678979.91549  -5179817.96945  23607505.664    23607512.494
  22203286.678    -6787819.67849  -5271760.42547  22203285.835    22203291.246
  23369884.237     9494394.76749   7400528.90646  23369883.866    23369892.314
  23900669.519    13913797.17549  10833638.93745  23900669.092    23900676.362
  23956310.244    -6370907.96349  -4948571.08845  23956310.292    23956319.017
  21158228.899     5547745.30549   4327527.81947  21158228.313    21158235.468
  20247650.186    -9968590.24749  -7750187.42148  20247649.874    20247654.739
  24178688.413     1524473.61849   1200231.10945  24178688.282    24178696.608
  21561645.300     5558517.56349   4332278.36447  21561645.074    21561649.109
 04  7 19 17 42 30.0000000  0  9G11G19G 3G18G25G15G14G 9G22
  23589674.351    -6772686.94649  -5252836.37845  23589673.869    23589680.630
  22208374.525    -6761083.66949  -5250927.20347  22208373.603    22208378.983
  23386170.124     9579976.64249   7467215.99546  23386169.702    23386177.974
  23915883.390    13993743.88749  10895934.98145  23915882.699    23915889.705
  23937137.208    -6471662.78849  -5027081.21245  23937137.265    23937146.047
  21172476.269     5622615.70249   4385868.35247  21172475.720    21172482.829
  20248984.947    -9961576.46349  -7744722.13748  20248984.590    20248989.396
  24191791.580     1593331.28849   1253886.43345  24191791.480    24191799.980
  21571242.959     5608953.44549   4371579.02447  21571242.739    21571246.774
 04  7 19 17 43  0.0000000  0  9G11G19G 3G18G25G15G14G 9G22
  23571877.136    -6866211.00049  -5325712.20845  23571876.779    23571883.331
  22213565.852    -6733802.60749  -5229669.26047  22213564.969    22213570.399
  23402490.322     9665741.16249   7534045.40446  23402489.983    23402498.485
  23931110.191    14073762.60349  10958287.15245  23931109.697    23931116.927
  23917973.825    -6572366.41049  -5105551.43545  23917973.822    23917982.830
  21186801.820     5697896.84849   4444528.95247  21186801.302    21186808.420
  20250416.216    -9954055.01549  -7738861.27248  20250415.859    20250420.626
  24204990.596     1662690.42149   1307932.48945  24204990.364    24204998.884
  21580873.018     5659559.70249   4411012.45747  21580872.793    21580876.840
 04  7 19 17 43 30.0000000  0  9G11G19G 3G18G25G15G14G 9G22
  23554115.010    -6959549.31849  -5398443.29045  23554114.777    23554121.415
  22218860.881    -6705977.15049  -5207987.12047  22218860.003    22218865.337
  23418844.821     9751685.78149   7601015.16246  23418844.751    23418853.164
  23946350.887    14153853.37449  11020695.46645  23946350.456    23946357.806
  23898820.341    -6673015.41949  -5183979.12845  23898820.721    23898829.832
  21201205.477     5773588.16049   4503509.16247  21201204.931    21201212.105
  20251944.006    -9946026.26249  -7732605.10648  20251943.681    20251948.473
  24218284.362     1732549.52249   1362368.02745  24218284.181    24218292.648
  21590535.599     5710336.73949   4450578.96547  21590535.423    21590539.461
 04  7 19 17 44  0.0000000  0  9G11G19G 3G18G25G15G14G 9G22
  23536388.948    -7052700.31949  -5471028.42745  23536388.627    23536395.206
  22224259.061    -6677609.42349  -5185882.41747  22224258.166    22224263.566
  23435233.392     9837807.54549   7668122.96046  23435233.206    23435241.663
  23961605.840    14234015.77149  11083159.60045  23961605.126    23961612.190
  23879678.405    -6773607.30049  -5262362.30245  23879678.562    23879687.763
  21215686.776     5849687.75349   4562807.50247  21215686.226    21215693.438
  20253567.987    -9937492.11949  -7725955.12748  20253567.667    20253572.459
  24231672.475     1802905.54149   1417190.86945  24231672.542    24231680.853
  21600230.469     5761283.46549   4490277.69047  21600230.262    21600234.277
 04  7 19 17 44 30.0000000  0  9G11G19G 3G18G25G15G14G 9G22
  23518698.972    -7145662.07849  -5543466.09845  23518698.574    23518705.176
  22229760.047    -6648701.29549  -5163356.64447  22229759.168    22229764.582
  23451654.767     9924102.84149   7735365.99046  23451654.618    23451663.322
  23976873.822    14314248.95449  11145678.88145  23976872.937    23976880.073
  23860547.849    -6874139.85649  -5340699.25145  23860547.896    23860557.089
  21230245.488     5926193.75349   4622422.52447  21230244.897    21230252.108
  20255287.943    -9928453.98849  -7718912.43548  20255287.596    20255292.394
  24245154.849     1873755.58249   1472398.65845  24245154.918    24245163.241
  21609957.399     5812399.07049   4530108.01147  21609957.228    21609961.207
 04  7 19 17 45  0.0000000  0  9G11G19G 3G18G25G15G14G 9G22
  23501045.320    -7238431.96549  -5615754.25445  23501044.915    23501051.677
  22235363.850    -6619253.93449  -5140410.67947  22235362.889    22235368.282
  23468108.718    10010569.19449   7802742.28146  23468108.726    23468117.350
  23992154.914    14394553.10349  11208253.47145  23992154.406    23992161.494
  23841429.043    -6974609.65149  -5418987.30445  23841429.132    23841438.305
  21244881.298     6003105.41949   4682353.65347  21244880.675    21244887.961
  20257103.628    -9918912.25749  -7711477.32148  20257103.279    20257108.128
  24258730.934     1945097.94149   1527990.03745  24258730.940    24258739.341
  21619716.584     5863683.87349   4570070.17747  21619716.432    21619720.419
 04  7 19 17 45 30.0000000  0  9G11G19G 3G18G25G15G14G 9G22
  23483428.667    -7331007.68549  -5687891.12645  23483428.371    23483435.002
  22241069.725    -6589268.85949  -5117045.71047  22241068.878    22241074.327
  23484595.091    10097203.74349   7870249.63846  23484594.903    23484603.406
  24007449.790    14474928.08249  11270883.24445  24007449.348    24007456.450
  23822322.631    -7075014.17449  -5497224.49545  23822322.749    23822332.058
  21259594.045     6080421.71649   4742600.07747  21259593.440    21259600.752
  20259014.933    -9908868.31949  -7703650.87848  20259014.606    20259019.437
  24272400.261     2016930.43349   1583963.39845  24272400.217    24272408.632
  21629507.902     5915137.53749   4610163.91647  21629507.763    21629511.808
 04  7 19 17 46  0.0000000  0  9G11G19G 3G18G25G15G14G 9G22
  23465849.522    -7423386.99449  -5759874.95945  23465849.191    23465855.793
  22246877.966    -6558747.45849  -5093262.82847  22246876.978    22246882.428
  23501112.539    10184003.57949   7937885.78746  23501112.418    23501120.981
  24022757.785    14555373.63249  11333567.99745  24022757.601    24022765.045
  23803229.255    -7175350.78849  -5575408.77145  23803229.287    23803238.544
  21274383.585     6158141.09449   4803160.59347  21274382.981    21274390.254
  20261021.605    -9898323.50549  -7695434.15148  20261021.247    20261026.050
  24286162.364     2089250.57049   1640316.74644  24286162.370    24286170.621
  21639331.245     5966759.81649   4650389.04047  21639331.153    21639335.288
 04  7 19 17 46 30.0000000  0  9G11G19G 3G18G25G15G14G 9G22
  23448307.991    -7515567.94449  -5831704.20345  23448307.725    23448314.406
  22252787.694    -6527691.77049  -5069063.61447  22252786.756    22252792.181
  23517661.071    10270965.48649   8005648.23846  23517660.822    23517669.419
  24038079.472    14635888.93449  11396307.10845  24038079.194    24038086.617
  23784149.272    -7275616.65449  -5653537.92545  23784149.266    23784158.483
  21289249.611     6236262.14949   4864034.09447  21289248.940    21289256.258
  20263123.325    -9887279.03749  -7686828.07048  20263122.942    20263127.728
  24300017.000     2162055.80748   1697048.02244  24300017.178
  21649186.709     6018549.88849   4690744.93247  21649186.520    21649190.568
 04  7 19 17 47  0.0000000  0  9G11G19G 3G18G25G15G14G 9G22
  23430804.653    -7607548.33549  -5903377.18446  23430804.491    23430811.117
  22258798.855    -6496103.28049  -5044449.25247  22258797.905    22258803.279
  23534239.753    10358086.32949   8073534.53046  23534239.475    23534247.943
  24053414.315    14716473.82249  11459100.42945  24053413.868    24053421.343
  23765082.848    -7375809.36649  -5731610.09545  23765083.126    23765092.391
  21304191.620     6314783.20549   4925219.29247  21304191.005    21304198.386
  20265319.876    -9875736.33249  -7677833.75648  20265319.471    20265324.242
  24313963.583     2235343.52548   1754155.25444  24313958.608
  21659073.887     6070507.48449   4731231.34647  21659073.725    21659077.807
 04  7 19 17 47 30.0000000  0  8G11G19G 3G18G25G15G14G22
  23413340.404    -7699324.19449  -5974890.79346  23413340.172    23413346.597
  22264911.373    -6463981.70949  -5019419.48947  22264910.413    22264915.859
  23550848.572    10445365.02849   8141543.82446  23550848.226    23550856.391
  24068762.585    14797130.06849  11521949.37545  24068762.332    24068769.693
  23746031.472    -7475923.97849  -5809621.38145  23746031.695    23746041.187
  21319209.954     6393704.99849   4986716.74747  21319209.368    21319216.681
  20267611.304    -9863694.67849  -7668450.65648  20267610.885    20267615.681
  21668993.132     6122634.05449   4771849.42847  21668993.008    21668997.181
 04  7 19 17 48  0.0000000  0  8G11G19G 3G18G25G15G14G22
  23395915.027    -7790895.18349  -6046244.76546  23395914.826    23395921.028
  22271124.550    -6431330.53649  -4993977.03447  22271123.702    22271129.223
  23567486.253    10532796.84249   8209672.43846  23567485.969    23567494.166
  24084124.373    14877855.30849  11584852.04945  24084124.028    24084131.434
  23726995.088    -7575959.78049  -5887571.25645  23726995.283    23727004.819
  21334303.895     6473024.07649   5048523.78547  21334303.339    21334310.636
  20269997.103    -9851157.11649  -7658681.13248  20269996.683    20270001.523
  21678944.174     6174927.42149   4812597.48047  21678944.139    21678948.323
 04  7 19 17 48 30.0000000  0  8G11G19G 3G18G25G15G14G22
  23378528.959    -7882259.09749  -6117437.35846  23378528.721    23378535.022
  22277438.297    -6398152.12349  -4968123.77447  22277437.411    22277442.810
  23584152.333    10620378.54549   8277917.84146  23584152.131    23584160.582
  24099499.137    14958649.11749  11647808.15445  24099498.634    24099506.171
  23707974.553    -7675914.31249  -5965457.79445  23707974.511    23707983.882
  21349473.184     6552738.92149   5110639.21447  21349472.608    21349479.871
  20272476.878    -9838125.42049  -7648526.56548  20272476.516    20272481.346
  21688926.949     6227386.86949   4853474.95547  21688926.868    21688930.972
 04  7 19 17 49  0.0000000  0  8G11G19G 3G18G25G15G14G22
  23361182.616    -7973413.85949  -6188466.98046  23361182.421    23361188.931
  22283851.990    -6364447.46949  -4941860.43347  22283851.131    22283856.642
  23600846.532    10708107.42849   8346277.94446  23600846.414    23600854.942
  24114886.822    15039511.61449  11710817.81845  24114886.382    24114893.938
  23688970.131    -7775784.33449  -6043278.48545  23688969.847    23688979.099
  21364717.537     6632848.44949   5173062.19447  21364716.974    21364724.266
  20275050.674    -9824600.43149  -7637987.61448  20275050.295    20275055.088
  21698941.268     6280012.36149   4894481.81047  21698941.196    21698945.299
 04  7 19 17 49 30.0000000  0  8G11G19G 3G18G25G15G14G22
  23343876.543    -8064356.27949  -6259331.13446  23343876.550    23343883.094
  22290365.716    -6330217.70349  -4915187.91547  22290364.901    22290370.425
  23617568.479    10795981.33749   8414751.03346  23617568.318    23617576.844
  24130287.513    15120443.30649  11773881.41245  24130287.159    24130294.825
  23669982.274    -7875566.11649  -6121030.42245  23669982.162    23669991.093
  21380036.988     6713352.13749   5235792.28747  21380036.349    21380043.682
  20277718.135    -9810582.85149  -7627064.83148  20277717.758    20277722.553
  21708987.272     6332804.59449   4935618.59747  21708987.191    21708991.382
 04  7 19 17 50  0.0000000  0  8G11G19G 3G18G25G15G14G22
  23326611.611    -8155085.26349  -6330028.96446  23326611.473    23326617.922
  22296979.036    -6295465.77249  -4888108.53247  22296978.123    22296983.508
  23634317.140    10883996.15449   8483333.92746  23634317.043    23634325.636
  24145701.467    15201442.60949  11836997.67045  24145701.088    24145708.568
  23651011.966    -7975258.12049  -6198712.37945  23651011.605    23651020.206
  21395430.821     6794247.23649   5298827.38847  21395430.192    21395437.622
  20280478.889    -9796074.85449  -7615759.89848  20280478.517    20280483.327
  21719064.853     6385762.07749   4976884.13947  21719064.744    21719068.893
 04  7 19 17 50 30.0000000  0  8G11G19G 3G18G25G15G14G22
  23309387.632    -8245598.31749  -6400558.55946  23309387.397    23309393.838
  22303691.196    -6260193.43649  -4860623.62947  22303690.257    22303695.689
  23651092.138    10972148.82649   8552024.24946  23651092.079    23651100.796
  24161128.112    15282509.19949  11900166.34745  24161127.710    24161135.181
  23632058.728    -8074858.10949  -6276322.62845  23632058.337    23632066.866
  21410898.902     6875532.29649   5362166.35547  21410898.273    21410905.745
  20283332.643    -9781077.95149  -7604074.00548  20283332.321    20283337.113
  21729173.729     6438884.51649   5018278.23047  21729173.606    21729177.722
 04  7 19 17 51  0.0000000  0  8G11G19G 3G18G25G15G14G22
  23292205.654    -8335892.67649  -6470917.76146  23292205.152    23292211.360
  22310502.135    -6224401.67049  -4832733.97147  22310501.221    22310506.714
  23667892.924    11060437.47549   8620820.52245  23667892.879    23667901.626
  24176567.318    15363643.51249  11963387.81645  24176566.971    24176574.483
  23613123.789    -8174362.15349  -6353858.12145  23613123.255    23613131.757
  21426441.051     6957206.57249   5425808.61047  21426440.414    21426447.909
  20286279.403    -9765592.73649  -7592007.60748  20286279.061    20286283.858
  21739314.081     6492172.13949   5059801.02947  21739313.936    21739318.021
 04  7 19 17 51 30.0000000  0  8G11G19G 3G18G25G15G14G22
  23275065.269    -8425966.19149  -6541104.84646  23275064.739    23275070.945
  22317411.787    -6188092.25349  -4804440.94447  22317410.698    22317416.233
  23684719.146    11148859.18649   8689720.46645  23684719.130    23684727.560
  24192019.830    15444845.66449  12026662.14045  24192019.423    24192026.887
  23594207.491    -8273767.48149  -6431316.69045  23594206.911    23594215.350
  21442057.121     7039268.72549   5489753.10647  21442056.413    21442063.840
  20289318.916    -9749620.45349  -7579561.67048  20289318.527    20289323.328
  21749485.891     6545624.76949   5101452.40247  21749485.754    21749489.855
 04  7 19 17 52  0.0000000  0  8G11G19G 3G18G25G15G14G22
  23257967.300    -8515816.34149  -6611117.88246  23257966.734    23257973.048
  22324419.645    -6151266.79249  -4775745.81047  22324418.427    22324423.855
  23701570.220    11237411.04749   8758721.84945  23701570.124    23701578.438
  24207485.103    15526115.59449  12089989.24845  24207484.607    24207492.404
  23575310.595    -8373071.00349  -6508695.92345  23575310.044    23575318.277
  21457746.630     7121717.28049   5553998.68947  21457745.932    21457753.323
  20292450.885    -9733162.28649  -7566737.12648  20292450.439    20292455.229
  21759689.105     6599242.16749   5143232.17247  21759688.861    21759692.911
 04  7 19 17 52 30.0000000  0  8G11G19G 3G18G25G15G14G22
  23240912.531    -8605440.61549  -6680954.91746  23240911.821    23240918.032
  22331525.198    -6113926.86549  -4746649.79647  22331524.018    22331529.277
  23718445.520    11326090.10949   8827822.33245  23718445.212    23718453.807
  24222963.047    15607452.89349  12153368.84645  24222962.492    24222970.406
  23556433.457    -8472269.52249  -6585993.31345  23556432.922    23556441.277
  21473509.326     7204550.94249   5618544.35347  21473508.659    21473516.074
  20295675.006    -9716219.50049  -7553534.95448  20295674.517    20295679.324
  21769923.531     6653024.42249   5185140.40247  21769923.295    21769927.258
 04  7 19 17 53  0.0000000  0  8G11G19G 3G18G25G15G14G22
  23223900.989    -8694836.79649  -6750614.21546  23223900.299    23223906.569
  22338728.119    -6076074.53949  -4717154.50447  22338727.061    22338732.433
  23735344.233    11414893.50649   8897019.72745  23735343.903    23735352.628
  24238453.914    15688857.36449  12216800.82045  24238453.317    24238461.034
  23537576.776    -8571360.47749  -6663206.89745  23537576.375    23537584.750
  21489345.237     7287768.24349   5683388.95047  21489344.466    21489351.854
  20298991.086    -9698793.39349  -7539956.17348  20298990.611    20298995.396
  21780189.273     6706970.97749   5227176.64547  21780189.009    21780192.981
 04  7 19 17 53 30.0000000  0  8G11G19G 3G18G25G15G14G22
  23206932.794    -8784003.14649  -6820094.41346  23206932.305    23206938.683
  22346028.225    -6037712.20849  -4687261.81347  22346027.207    22346032.595
  23752266.039    11503817.75549   8966311.24745  23752265.808    23752274.339
  24253957.707    15770328.17049  12280284.47745  24253956.915    24253964.674
  23518741.372    -8670341.91249  -6740335.14645  23518740.815    23518749.124
  21505253.711     7371367.15049   5748530.91847  21505252.913    21505260.236
  20302398.792    -9680886.02849  -7526002.38048  20302398.302    20302403.038
  21790486.085     6761081.12349   5269340.37647  21790485.821    21790489.895
 04  7 19 17 54  0.0000000  0  8G11G19G 3G18G25G15G14G22
  23190009.266    -8872936.62149  -6889393.18446  23190008.811    23190015.152
  22353425.213    -5998840.98849  -4656972.60247  22353424.156    22353429.527
  23769210.348    11592860.71249   9035695.26845  23769210.108    23769218.737
  24269473.692    15851865.81349  12343820.20545  24269473.023    24269480.981
  23499927.220    -8769210.17249  -6817375.22045  23499926.740    23499935.038
  21521234.466     7455346.90749   5813969.64547  21521233.730    21521241.036
  20305897.908    -9662498.14449  -7511674.16348  20305897.430    20305902.135
  21800814.149     6815355.41849   5311632.00647  21800813.910    21800817.902
 04  7 19 17 54 30.0000000  0  8G11G19G 3G18G25G15G14G22
  23173130.275    -8961635.43249  -6958509.09046  23173129.916    23173136.174
  22360918.815    -5959463.01749  -4626288.49647  22360917.669    22360922.985
  23786176.798    11682019.14849   9105169.30545  23786176.513    23786185.213
  24285002.351    15933469.82849  12407407.70145  24285001.704    24285009.468
  23481134.894    -8867962.67349  -6894325.08045  23481134.629    23481143.003
  21537287.543     7539705.69549   5879703.71347  21537286.737    21537294.021
  20309488.099    -9643631.47349  -7496972.86248  20309487.624    20309492.383
  21811173.392     6869793.09649   5354050.95447  21811173.099    21811177.046
 04  7 19 17 55  0.0000000  0  8G11G19G 3G18G25G15G14G22
  23156296.442    -9050097.43649  -7027440.46046  23156296.090    23156302.347
  22368508.323    -5919580.58449  -4595211.30647  22368507.095    22368512.459
  23803164.930    11771290.04349   9174730.94545  23803164.372    23803172.947
  24300543.641    16015140.05749  12471046.74345  24300542.974    24300550.718
  23462365.010    -8966596.86649  -6971182.76245  23462364.863    23462373.474
  21553412.275     7624441.76349   5945731.77547  21553411.484    21553418.876
  20313169.053    -9624287.54649  -7481899.67948  20313168.646    20313173.452
  21821563.435     6924393.81349   5396596.93647  21821563.236    21821567.247
 04  7 19 17 55 30.0000000  0  8G11G19G 3G18G25G15G14G22
  23139507.919    -9138320.33049  -7096185.48746  23139507.663    23139514.052
  22376193.229    -5879195.67249  -4563742.57847  22376192.075    22376197.501
  23820173.467    11860670.31149   9244377.82445  23820172.908    23820181.319
  24316097.612    16096876.02349  12534737.01545  24316096.916    24316104.894
  23443618.236    -9065110.07749  -7047946.17845  23443618.151    23443626.902
  21569608.454     7709553.57449   6012052.61047  21569607.721    21569615.139
  20316940.700    -9604467.69749  -7466455.64348  20316940.245    20316945.059
  21831984.622     6979157.20249   5439269.67847  21831984.381    21831988.397
 04  7 19 17 56  0.0000000  0  8G11G19G 3G18G25G15G14G22
  23122765.592    -9226301.82949  -7164742.47246  23122765.283    23122771.536
  22383973.415    -5838309.89349  -4531883.56947  22383972.349    22383977.759
  23837202.138    11950157.36249   9314107.90345  23837201.659    23837210.315
  24331664.264    16178677.50049  12598478.32145  24331663.620    24331671.141
  23424895.527    -9163499.03149  -7124612.76845  23424895.143    23424903.907
  21585875.775     7795039.66849   6078665.10347  21585875.160    21585882.648
  20320802.599    -9584173.23449  -7450641.77748  20320802.171    20320806.987
  21842436.833     7034083.25749   5482069.17547  21842436.546    21842440.555
 04  7 19 17 56 30.0000000  0  8G11G19G 3G18G25G15G14G22
  23106069.482    -9314039.98249  -7233109.81646  23106069.201    23106075.413
  22391848.382    -5796925.96649  -4499636.38847  22391847.437    22391852.916
  23854250.494    12039747.55449   9383918.32945  23854250.186    23854258.883
  24347242.785    16260543.82049  12662270.21145  24347242.036    24347249.479
  23406197.081    -9261761.38649  -7201180.73645  23406196.587    23406205.010
  21602214.161     7880897.94549   6145567.60847  21602213.499    21602220.955
  20324754.330    -9563406.46449  -7434459.88348  20324753.916    20324758.760
  21852919.644     7089171.14549   5524994.77947  21852919.409    21852923.413
 04  7 19 17 57  0.0000000  0  8G11G19G 3G18G25G15G14G22
  23089420.229    -9401531.90349  -7301285.29946  23089420.027    23089426.217
  22399818.088    -5755045.34049  -4467002.16547  22399817.089    22399822.531
  23871318.135    12129438.67149   9453807.43545  23871317.851    23871326.534
  24362833.313    16342475.27849  12726112.77345  24362832.931    24362840.699
  23387523.449    -9359894.05549  -7277647.63945  23387522.695    23387530.849
  21618623.168     7967127.47249   6212759.39347  21618622.469    21618629.918
  20328795.817    -9542168.15549  -7417910.55648  20328795.428    20328800.258
  21863433.273     7144420.97149   5568046.56847  21863433.070    21863437.162
 04  7 19 17 57 30.0000000  0  8G11G19G 3G18G25G15G14G22
  23072818.351    -9488774.97449  -7369266.87546  23072818.170    23072824.300
  22407881.899    -5712669.67249  -4433982.21447  22407880.957    22407886.333
  23888404.309    12219228.30749   9523773.29445  23888404.202    23888413.080
  24378436.751    16424472.03549  12790006.26945  24378436.628    24378444.579
  23368874.807    -9457893.66749  -7354010.88545  23368874.055    23368882.022
  21635102.566     8053726.92549   6280239.42847  21635101.821    21635109.315
  20332926.831    -9520459.53049  -7400994.75248  20332926.418    20332931.285
  21873977.736     7199833.06849   5611224.79447  21873977.571    21873981.779
 04  7 19 17 58  0.0000000  0  8G11G19G 3G18G25G15G14G22
  23056264.193    -9575767.94449  -7437053.56746  23056263.931    23056269.923
  22416039.394    -5669801.85449  -4400578.75347  22416038.489    22416043.886
  23905508.835    12309112.44449   9593812.81345  23905508.761    23905517.599
  24394052.721    16506533.18949  12853949.93445  24394052.499    24394060.479
  23350251.483    -9555758.38449  -7430269.01145  23350250.968    23350258.816
  21651651.825     8140693.97149   6348005.90547  21651651.144    21651658.687
  20337146.891    -9498282.82749  -7383714.20848  20337146.497    20337151.299
  21884553.003     7255406.27249   5654528.56447  21884552.849    21884557.003
 04  7 19 17 58 30.0000000  0  8G11G19G 3G18G25G15G14G22
  23039757.913    -9662508.67949  -7504643.70046  23039757.717    23039763.661
  22424290.297    -5626443.95249  -4366793.42547  22424289.297    22424294.627
  23922630.720    12399088.16749   9663923.67845  23922630.648    23922639.720
  24409680.652    16588658.48549  12917943.56045  24409680.500    24409688.258
  23331654.139    -9653485.53549  -7506419.95145  23331653.802    23331661.841
  21668270.808     8228026.72949   6416057.34847  21668270.079    21668277.676
  20341455.756    -9475639.51349  -7366070.07148  20341455.393    20341460.159
  21895158.942     7311140.33149   5697957.66947  21895158.727    21895162.908
 04  7 19 17 59  0.0000000  0  8G11G19G 3G18G25G15G14G22
  23023300.318    -9748993.93649  -7572034.75746  23023300.091    23023306.118
  22432634.028    -5582597.48049  -4332627.37347  22432633.061    22432638.415
  23939769.900    12489153.49149   9734104.35145  23939769.632    23939778.691
  24425320.912    16670848.15249  12981987.34845  24425320.682    24425328.415
  23313083.840    -9751071.66449  -7582461.00145  23313083.589    23313091.698
  21684958.997     8315724.17749   6484392.96947  21684958.316    21684966.017
  20345853.236    -9452530.76749  -7348063.26148  20345852.839    20345857.602
  21905795.416     7367035.56849   5741512.37447  21905795.243    21905799.540
 04  7 19 17 59 30.0000000  0  8G11G19G 3G18G25G15G14G22
  23006891.613    -9835222.26249  -7639225.60346  23006891.400    23006897.542
  22441070.303    -5538265.07849  -4298082.69447  22441069.281    22441074.660
  23956925.040    12579304.61149   9804351.87245  23956924.866    23956934.035
  24440973.517    16753101.40649  13046080.71645  24440973.265    24440980.632
  23294541.197    -9848514.36849  -7658390.31345  23294540.765    23294548.824
  21701716.146     8403784.09849   6553011.03047  21701715.595    21701723.255
  20350338.850    -9428958.62849  -7329695.36748  20350338.484    20350343.274
  21916462.510     7423091.03249   5785191.92647  21916462.309    21916466.522
 04  7 19 18  0  0.0000000  0  8G11G19G 3G18G25G15G14G22
  22990532.408    -9921190.85349  -7706214.08346  22990532.175    22990538.305
  22449598.460    -5493448.73749  -4263160.91047  22449597.478    22449602.898
  23974096.268    12669539.09349   9874664.38445  23974096.059    23974105.084
  24456638.082    16835418.31949  13110223.69445  24456637.722    24456645.447
  23276026.061    -9945810.86649  -7734205.68346  23276025.783    23276033.859
  21718542.267     8492205.20849   6621910.52947  21718541.626    21718549.157
  20354912.445    -9404924.28449  -7310967.31448  20354912.038    20354916.868
  21927160.066     7479306.84249   5828996.41847  21927159.813    21927164.051
 04  7 19 18  0 30.0000000  0  8G11G19G 3G18G25G15G14G22
  22974223.170   -10006897.48649  -7772998.43246  22974222.776    22974228.892
  22458218.213    -5448150.45049  -4227863.58247  22458217.360    22458222.955
  23991282.782    12759854.11049   9945039.63845  23991282.631    23991291.415
  24472314.259    16917798.84749  13174416.15245  24472314.199    24472322.270
  23257539.378   -10042957.98149  -7809904.68046  23257539.211    23257547.450
  21735436.729     8580986.05949   6691090.35547  21735436.101    21735443.595
  20359573.648    -9380429.27849  -7291880.29848  20359573.281    20359578.131
  21937888.198     7535683.00949   5872925.87147  21937887.916    21937892.146
 04  7 19 18  1  0.0000000  0  8G11G19G 3G18G25G15G14G22
  22957964.025   -10092340.09049  -7839577.02946  22957963.513    22957969.726
  22466929.437    -5402372.69249  -4192192.65247  22466928.579    22466934.158
  24008483.861    12850246.14849  10015474.90945  24008483.563    24008492.278
  24488002.930    17000242.31549  13238657.74945  24488002.818    24488010.732
  23239081.561   -10139953.36049  -7885485.42046  23239081.519    23239089.826
  21752399.036     8670124.56249   6760548.87647  21752398.548    21752406.120
  20364322.260    -9355475.41749  -7272435.74148  20364321.893    20364326.676
  21948646.555     7592218.91649   5916979.80147  21948646.398    21948650.597
 04  7 19 18  1 30.0000000  0  8G11G19G 3G18G25G15G14G22
  22941755.255   -10177516.43949  -7905948.14546  22941754.874    22941761.193
  22475731.611    -5356117.22549  -4156149.47446  22475730.755    22475736.284
  24025699.056    12940712.72549  10085968.27745  24025698.804    24025707.545
  24503703.600    17082748.85249  13302948.49345  24503703.300    24503711.211
  23220653.363   -10236793.66449  -7960945.32646  23220653.386    23220661.654
  21769429.399     8759619.34549   6830285.01147  21769428.878    21769436.464
  20369157.975    -9330064.04549  -7252634.67848  20369157.556    20369162.306
  21959435.380     7648914.53249   5961158.16847  21959435.190    21959439.444
 04  7 19 18  2  0.0000000  0  8G11G19G 3G18G25G15G14G22
  22925598.104   -10262422.55749  -7972108.72246  22925597.789    22925604.001
  22484624.478    -5309385.31949  -4119735.04647  22484623.599    22484629.016
  24042928.283    13031252.30349  10156518.51345  24042928.077    24042936.809
  24519415.980    17165319.35749  13367289.01545  24519415.741    24519424.028
  23202255.527   -10333474.97449  -8036281.35246  23202255.593    23202263.768
  21786527.493     8849469.67849   6900298.19147  21786526.951    21786534.489
  20374080.540    -9304195.79949  -7232477.61348  20374080.118    20374084.911
  21970254.681     7705770.67049   6005461.61947  21970254.529    21970258.830
 04  7 19 18  2 30.0000000  0  8G11G19G 3G18G25G15G14G22
  22909492.478   -10347057.98749  -8038058.35746  22909492.139    22909498.380
  22493607.429    -5262180.65249  -4082952.23547  22493606.520    22493611.788
  24060170.854    13121860.50049  10227122.23545  24060170.321    24060179.169
  24535141.358    17247952.13449  13431678.08545  24535140.745    24535148.771
  23183888.377   -10429995.66149  -8111492.19946  23183888.358    23183896.379
  21803692.525     8939672.42049   6970585.98347  21803691.988    21803699.608
  20379089.436    -9277873.67449  -7211966.87748  20379089.030    20379093.879
  21981104.355     7762785.67149   6049888.85347  21981104.148    21981108.477
 04  7 19 18  3  0.0000000  0  8G11G19G 3G18G25G15G14G22
  22893438.773   -10431421.15749  -8103795.85646  22893438.382    22893444.549
  22502679.699    -5214506.17349  -4045803.32347  22502678.670    22502684.037
  24077425.248    13212533.45249  10297776.38545  24077424.805    24077433.987
  24550877.593    17330646.26249  13496114.99545  24550876.972    24550884.920
  23165552.085   -10526354.39149  -8186576.86646  23165551.922    23165559.806
  21820924.240     9030225.25049   7041146.56747  21820923.689    21820931.376
  20384184.274    -9251099.86849  -7191104.17848  20384183.843    20384188.735
  21991984.024     7819958.55749   6094439.13047  21991983.856    21991988.162
 04  7 19 18  3 30.0000000  0  8G11G19G 3G18G25G15G14G22
  22877437.633   -10515507.24049  -8169317.44846  22877437.210    22877443.348
  22511841.088    -5166362.00549  -4008288.43646  22511840.207    22511845.599
  24094692.169    13303270.63949  10368480.60145  24094691.732    24094700.508
  24566625.377    17413403.67749  13560601.17145  24566624.979    24566633.442
  23147247.417   -10622545.98049  -8261531.28146  23147247.324    23147255.088
  21838222.879     9121128.60049   7111980.28347  21838222.163    21838229.794
  20389365.135    -9223874.14049  -7169889.33848  20389364.756    20389369.676
  22002894.093     7877291.28649   6139113.95447  22002893.923    22002898.191
 04  7 19 18  4  0.0000000  0  8G11G19G 3G18G25G15G14G22
  22861489.307   -10599315.12349  -8234622.23546  22861489.011    22861495.233
  22521091.412    -5117751.38749  -3970410.08746  22521090.563    22521095.981
  24111970.666    13394068.26749  10439231.91845  24111970.140    24111978.830
  24582385.677    17496223.15349  13625135.72245  24582385.188    24582393.594
  23128975.096   -10718568.52749  -8336353.97846  23128974.894    23128982.520
  21855587.377     9212379.82849   7183085.07547  21855586.702    21855594.407
  20394631.534    -9196199.01449  -7148324.31348  20394631.160    20394636.105
  22013834.366     7934782.73049   6183912.44647  22013834.210    22013838.485
 04  7 19 18  4 30.0000000  0  8G11G19G 3G18G25G15G14G22
  22845594.386   -10682842.83049  -8299708.73446  22845594.175    22845600.194
  22530430.079    -5068676.52349  -3932169.97547  22530429.209    22530434.788
  24129259.730    13484923.57549  10510028.18745  24129259.262    24129268.069
  24598157.576    17579104.52049  13689718.47945  24598157.121    24598165.381
  23110735.474   -10814419.03349  -8411042.61946  23110735.112    23110742.755
  21873017.759     9303977.04549   7254459.45047  21873017.115    21873024.792
  20399983.209    -9168075.95949  -7126410.25348  20399982.836    20399987.762
  22024804.761     7992432.50949   6228834.32747  22024804.585    22024808.926
 04  7 19 18  5  0.0000000  0  7G11G19G 3G25G15G14G22
  22829753.890   -10766084.86749  -8364572.63646  22829753.760    22829759.664
  22539857.231    -5019136.86349  -3893567.69247  22539856.362    22539862.032
  24146560.013    13575836.51149  10580869.35845  24146559.555    24146568.584
  23092529.400   -10910091.91649  -8485592.86246  23092529.025    23092536.648
  21890514.348     9395921.46249   7326104.38747  21890513.643    21890521.259
  20405420.335    -9139503.83149  -7104146.26048  20405419.922    20405424.853
  22035805.926     8050243.57349   6273881.87247  22035805.759    22035810.066
 04  7 19 18  5 30.0000000  0  7G11G19G 3G25G15G14G22
  22813967.691   -10849041.79649  -8429214.33746  22813967.489    22813973.652
  22549371.728    -4969137.63349  -3854607.30446  22549370.875    22549376.467
  24163870.084    13666801.62649  10651751.20245  24163869.512    24163878.663
  23074356.923   -11005587.30449  -8560004.79746  23074356.716    23074364.401
  21908075.920     9488208.45349   7398016.26446  21908075.245    21908082.902
  20410941.990    -9110487.34249  -7081536.01848  20410941.569    20410946.494
  22046837.209     8108212.80249   6319052.67247  22046836.992    22046841.204
 04  7 19 18  6  0.0000000  0  7G11G19G 3G25G15G14G22
  22798235.865   -10931712.04149  -8493632.67346  22798235.780    22798241.976
  22558973.244    -4918681.65949  -3815291.02247  22558972.408    22558977.908
  24181189.110    13757815.14949  10722670.69845  24181188.781    24181197.897
  23056218.882   -11100903.05549  -8634276.74746  23056218.702    23056226.324
  21925702.217     9580835.58049   7470193.17846  21925701.653    21925709.305
  20416547.848    -9081028.58749  -7058581.15148  20416547.398    20416552.328
  22057898.414     8166339.20149   6364345.95047  22057898.125    22057902.306
 04  7 19 18  6 30.0000000  0  7G11G19G 3G25G15G14G22
  22782559.089   -11014094.20749  -8557826.52046  22782558.943    22782565.181
  22568660.994    -4867772.10349  -3775621.27647  22568660.212    22568665.795
  24198517.373    13848873.10849  10793624.87645  24198516.505    24198525.544
  23038115.418   -11196037.31749  -8708407.28146  23038115.205    23038122.807
  21943392.930     9673800.23849   7542633.10246  21943392.375    21943399.986
  20422237.315    -9051130.14949  -7035283.67448  20422236.899    20422241.756
  22068989.246     8224621.81849   6409760.94647  22068988.937    22068993.146
 04  7 19 18  7  0.0000000  0  7G11G19G 3G25G15G14G22
  22766937.963   -11096184.24549  -8621792.74646  22766937.877    22766943.932
  22578434.983    -4816409.83249  -3735598.77647  22578434.165    22578439.734
  24215853.417    13939974.43149  10864612.84045  24215852.733    24215861.852
  23020047.234   -11290985.63549  -8782392.93246  23020047.033    23020054.747
  21961147.822     9767102.20749   7615335.86646  21961147.195    21961154.865
  20428010.535    -9020792.10549  -7011643.64648  20428010.093    20428014.864
  22080109.890     8283061.81649   6455298.56747  22080109.698    22080113.962
 04  7 19 18  7 30.0000000  0  7G11G19G 3G25G15G14G22
  22751372.844   -11177980.30249  -8685529.88046  22751372.563    22751378.758
  22588294.606    -4764597.67549  -3695225.74147  22588293.769    22588299.237
  24233197.426    14031116.18849  10935632.31545  24233196.716    24233205.451
  23002014.927   -11385745.09749  -8856231.43246  23002014.757    23002022.613
  21978966.379     9860739.31749   7688299.77846  21978965.789    21978973.581
  20433866.928    -8990016.56349  -6987662.71148  20433866.488    20433871.202
  22091260.587     8341659.04149   6500958.71747  22091260.349    22091264.667
 04  7 19 18  8  0.0000000  0  7G11G19G 3G25G15G14G22
  22735864.077   -11259480.18149  -8749036.24246  22735863.699    22735869.806
  22598239.314    -4712338.24149  -3654504.14547  22598238.465    22598244.029
  24250548.192    14122295.02049  11006680.68945  24250547.395    24250556.139
  22984019.299   -11480313.13149  -8929920.75446  22984019.105    22984026.832
  21996848.412     9954709.65049   7761523.34446  21996847.819    21996855.643
  20439806.230    -8958805.33649  -6963342.28448  20439805.797    20439810.527
  22102441.038     8400412.88049   6546740.89547  22102440.828    22102445.155
 04  7 19 18  8 30.0000000  0  7G11G19G 3G25G15G14G22
  22720411.972   -11340681.23049  -8812309.75146  22720411.657    22720417.695
  22608268.733    -4659633.46049  -3613435.53547  22608267.902    22608273.514
  24267905.464    14213508.95549  11077756.40445  24267904.899    24267913.537
  22966060.586   -11574687.01649  -9003458.79646  22966060.387    22966067.983
  22014793.554    10049011.96149   7835005.58246  22014792.936    22014800.784
  20445828.158    -8927159.95149  -6938683.55448  20445827.728    20445832.480
  22113651.513     8459323.52649   6592645.26347  22113651.228    22113655.480
 04  7 19 18  9  0.0000000  0  7G11G19G 3G25G15G14G22
  22705017.217   -11421581.24549  -8875348.68546  22705016.884    22705022.845
  22618382.543    -4606485.62849  -3572021.69746  22618381.670    22618387.251
  24285268.938    14304755.00049  11148857.12945  24285268.478    24285277.239
  22948139.272   -11668863.96049  -9076843.38246  22948139.134    22948146.637
  22032801.474    10143644.42049   7908745.09046  22032800.919    22032808.800
  20451932.397    -8895081.91549  -6913687.69548  20451932.002    20451936.792
  22124891.584     8518391.00249   6638671.83647  22124891.386    22124895.688
 04  7 19 18  9 30.0000000  0  7G11G19G 3G25G15G14G22
  22689680.182   -11502177.42049  -8938150.87146  22689679.842    22689685.789
  22628580.205    -4552896.81449  -3530264.24646  22628579.251    22628584.869
  24302638.357    14396030.52149  11219980.82345  24302637.684    24302646.834
  22930256.009   -11762840.53449  -9150071.83946  22930255.924    22930263.458
  22050872.097    10238605.37449   7982740.55646  22050871.479    22050879.357
  20458118.715    -8862572.92549  -6888356.02348  20458118.299    20458123.051
  22136161.514     8577615.32449   6684820.62247  22136161.404    22136165.790
 04  7 19 18 10  0.0000000  0  7G11G19G 3G25G15G14G22
  22674401.394   -11582468.02549  -9000714.96646  22674401.109    22674406.993
  22638861.072    -4498870.06949  -3488165.53746  22638860.213    22638865.904
  24320012.563    14487332.36449  11291125.03745  24320011.836    24320021.106
  22912411.310   -11856614.50949  -9223142.42446  22912411.178    22912418.857
  22069004.695    10333892.51749   8056990.19046  22069004.106    22069011.996
  20464386.650    -8829634.89049  -6862690.04048  20464386.180    20464390.938
  22147461.351     8636995.80549   6731091.09947  22147461.191    22147465.475
 04  7 19 18 10 30.0000000  0  7G11G19G 3G25G15G14G22
  22659180.967   -11662451.33849  -9063039.57146  22659180.686    22659186.733
  22649224.816    -4444408.33449  -3445727.88946  22649224.078    22649229.666
  24337391.005    14578657.16249  11362287.12545  24337390.195    24337399.997
  22894605.620   -11950183.48749  -9296053.26246  22894605.545    22894613.221
  22087199.159    10429503.40349   8131492.09946  22087198.430    22087206.218
  20470735.694    -8796270.32049  -6836691.68048  20470735.255    20470739.987
  22158790.869     8696531.77049   6777482.72747  22158790.588    22158794.803
 04  7 19 18 11  0.0000000  0  7G11G19G 3G25G15G14G22
  22644019.721   -11742123.63349  -9125121.86146  22644019.532    22644025.435
  22659671.064    -4389513.09149  -3402952.42746  22659670.247    22659675.989
  24354773.685    14670003.35249  11433465.87345  24354772.991    24354782.711
  22876839.752   -12043543.44549  -9368801.23146  22876839.654    22876847.290
  22105454.985    10525437.33049   8206245.73446  22105454.173    22105461.878
  20477165.854    -8762479.60549  -6810361.26048  20477165.433    20477170.186
  22170149.796     8756224.06049   6823996.17647  22170149.595    22170154.044
 04  7 19 18 11 30.0000000  0  7G11G19G 3G25G15G14G22
  22628918.025   -11821482.94249  -9186960.23746  22628917.786    22628923.807
  22670199.217    -4334186.78049  -3359841.08546  22670198.498    22670204.329
  24372159.651    14761368.01049  11504659.01645  24372159.165    24372168.669
  22859114.286   -12136691.56049  -9441384.11646  22859114.125    22859121.681
  22123771.846    10621692.69649   8281249.84146  22123771.062    22123778.789
  20483676.804    -8728264.42349  -6783700.08948  20483676.356    20483681.106
  22181538.567     8816072.65149   6870631.39547  22181538.450    22181542.884
 04  7 19 18 12  0.0000000  0  7G11G19G 3G25G15G14G22
  22613876.326   -11900527.75349  -9248553.56746  22613876.099    22613882.014
  22680808.967    -4278432.75549  -3316396.45846  22680808.242    22680814.138
  24389548.641    14852747.42949  11575863.67345  24389548.147    24389557.514
  22841429.392   -12229626.27149  -9513800.72746  22841429.188    22841436.706
  22142149.093    10718266.40549   8356501.99746  22142148.449    22142156.268
  20490267.945    -8693627.76449  -6756710.49148  20490267.523    20490272.286
  22192957.030     8876076.40349   6917387.53447  22192956.806    22192961.202
 04  7 19 18 12 30.0000000  0  7G11G19G 3G25G15G14G22
  22598894.885   -11979255.15449  -9309899.54846  22598894.751    22598900.647
  22691499.904    -4222253.00649  -3272620.08946  22691498.942    22691504.742
  24406940.173    14944139.31749  11647078.05745  24406939.667    24406949.212
  22823785.619   -12322344.28849  -9586048.49846  22823785.522    22823792.876
  22160586.865    10815157.21849   8432001.24846  22160586.205    22160594.052
  20496939.062    -8658570.74649  -6729393.33848  20496938.635    20496943.412
  22204404.847     8936235.84949   6964264.99147  22204404.750    22204409.224
 04  7 19 18 13  0.0000000  0  7G11G19G 3G25G15G14G22
  22583974.401   -12057663.43849  -9370996.89746  22583974.270    22583980.050
  22702270.895    -4165650.54349  -3228514.34446  22702270.045    22702275.815
  24424333.243    15035540.48949  11718299.66145  24424332.856    24424342.326
  22806183.799   -12414843.32049  -9658125.60446  22806183.568    22806190.803
  22179084.554    10912362.83249   8507745.80046  22179083.900    22179091.707
  20503689.816    -8623095.82449  -6701750.55048  20503689.361    20503694.121
  22215882.450     8996550.22049   7011263.16647  22215882.294    22215886.755
 04  7 19 18 13 30.0000000  0  7G11G19G 3G25G15G14G22
  22569115.040   -12135750.13949  -9431843.65046  22569114.866    22569120.534
  22713122.039    -4108627.84549  -3184081.12646  22713121.163    22713126.916
  24441727.689    15126948.49149  11789526.58845  24441727.295    24441736.788
  22788624.000   -12507120.38649  -9730029.75646  22788623.745    22788631.060
  22197641.776    11009881.34749   8583734.17646  22197641.142    22197648.881
  20510519.777    -8587204.42249  -6673783.22948  20510519.303    20510524.041
  22227389.401     9057019.32949   7058381.91747  22227389.229    22227393.695
 04  7 19 18 14  0.0000000  0  7G11G19G 3G25G15G14G22
  22554317.258   -12213513.05049  -9492438.09946  22554317.081    22554322.721
  22724052.535    -4051187.55949  -3139322.53846  22724051.666    22724057.537
  24459123.008    15218360.38949  11860756.53945  24459122.441    24459131.921
  22771107.052   -12599172.31149  -9801758.46346  22771106.781    22771114.249
  22216258.368    11107711.14349   8659965.09846  22216257.585    22216265.391
  20517428.509    -8550898.33449  -6645492.77648  20517428.070    20517432.899
  22238925.638     9117642.98449   7105621.08847  22238925.462    22238929.949
 04  7 19 18 14 30.0000000  0  7G11G19G 3G25G15G14G22
  22539581.510   -12290949.40849  -9552778.08746  22539581.393    22539587.091
  22735062.085    -3993331.64749  -3094240.07146  22735061.344    22735067.179
  24476518.764    15309774.08649  11931987.88345  24476518.139    24476527.180
  22753633.414   -12690996.06649  -9873309.39446  22753633.208    22753640.789
  22234933.620    11205850.59549   8736437.31746  22234932.867    22234940.815
  20524415.956    -8514178.81049  -6616880.16448  20524415.533    20524420.436
  22250491.471     9178421.78849   7152981.15647  22250491.325    22250495.769
 04  7 19 18 15  0.0000000  0  7G11G19G 3G25G15G14G22
  22524908.230   -12368057.56449  -9612862.32646  22524908.141    22524913.828
  22746150.350    -3935063.42249  -3048836.30646  22746149.399    22746155.295
  24493913.984    15401186.02949  12003217.87645  24493913.297    24493922.165
  22736203.654   -12782589.93349  -9944681.16946  22736203.414    22736211.070
  22253667.265    11304297.00849   8813148.72246  22253666.577    22253674.640
  20531481.572    -8477048.63649  -6587947.57048  20531481.171    20531486.090
  22262086.787     9239354.87049   7200461.44247  22262086.568    22262091.088
 04  7 19 18 15 30.0000000  0  7G11G19G 3G25G15G14G22
  22510298.050   -12444834.16649  -9672688.21346  22510297.965    22510303.727
  22757316.638    -3876384.30049  -3003112.37146  22757315.718    22757321.694
  24511308.496    15492594.75349  12074445.38345  24511308.004    24511316.811
  22718818.278   -12873949.75149 -10015870.57446  22718818.169    22718825.866
  22272459.451    11403049.46149   8890098.58846  22272458.657    22272466.732
  20538625.213    -8439508.43949  -6558695.48248  20538624.786    20538629.718
  22273711.457     9300443.17649   7248062.68847  22273711.310    22273715.790
 04  7 19 18 16  0.0000000  0  7G11G19G 3G25G15G14G22
  22495751.281   -12521278.28149  -9732255.03146  22495751.096    22495756.883
  22768560.387    -3817298.52749  -2957071.58246  22768559.484    22768565.425
  24528701.658    15583995.94349  12145666.99045  24528701.133    24528710.075
  22701477.836   -12965074.08449 -10086876.49446  22701477.704    22701485.461
  22291309.200    11502104.58449   8967284.31946  22291308.298    22291316.356
  20545846.251    -8401561.44749  -6529126.40348  20545845.857    20545850.746
  22285365.391     9361684.98349   7295783.53947  22285365.223    22285369.684
 04  7 19 18 16 30.0000000  0  7G11G19G 3G25G15G14G22
  22481268.139   -12597386.25949  -9791559.90946  22481268.122    22481273.985
  22779881.171    -3757807.00249  -2910714.62046  22779880.317    22779886.298
  24546093.131    15675388.17649  12216881.61045  24546092.514    24546101.939
  22684183.096   -13055958.92849 -10157695.78546  22684182.917    22684190.644
  22310216.003    11601462.11849   9044705.69846  22310215.409    22310223.550
  20553144.748    -8363207.93449  -6499240.55448  20553144.334    20553149.187
  22297048.842     9423081.71649   7343625.11147  22297048.684    22297053.090
 04  7 19 18 17  0.0000000  0  7G11G19G 3G25G15G14G22
  22466849.665   -12673156.69849  -9850601.77746  22466849.484    22466855.351
  22791278.634    -3697913.62549  -2864044.51946  22791277.736    22791283.788
  24563481.893    15766767.77249  12288086.36345  24563481.466    24563490.882
  22666934.243   -13146602.50949 -10228327.08146  22666933.978    22666941.644
  22329180.083    11701119.24749   9122360.51046  22329179.550    22329187.724
  20560520.013    -8324450.95949  -6469040.32348  20560519.568    20560524.403
  22308761.663     9484632.02949   7391586.35147  22308761.445    22308765.783
 04  7 19 18 17 30.0000000  0  7G11G19G 3G25G15G14G22
  22452495.682   -12748587.70949  -9909379.16746  22452495.481    22452501.253
  22802752.233    -3637621.12849  -2817063.42946  22802751.164    22802757.078
  24580868.216    15858131.85849  12359279.02945  24580867.609    24580876.819
  22649731.579   -13237002.07649 -10298768.22846  22649731.438    22649739.051
  22348201.022    11801073.91549   9200247.17046  22348200.333    22348208.555
  20567971.538    -8285292.56249  -6438527.29248  20567971.130    20567975.946
  22320503.422     9546335.68749   7439667.08547  22320503.307    22320507.630
 04  7 19 18 18  0.0000000  0  7G11G19G 3G25G15G14G22
  22438206.662   -12823676.45349  -9967889.83446  22438206.493    22438212.318
  22814300.980    -3576931.62249  -2769772.97746  22814300.029    22814305.927
  24598250.901    15949478.00149  12430457.75845  24598250.306    24598259.713
  22632576.105   -13327154.49549 -10369016.81346  22632575.973    22632583.564
  22367278.025    11901324.28549   9278364.25746  22367277.366    22367285.671
  20575499.252    -8245733.95049  -6407702.40848  20575498.859    20575503.738
  22332274.448     9608193.06349   7487867.59347  22332274.349    22332278.730
 04  7 19 18 18 30.0000000  0  7G11G19G 3G25G15G14G22
  22423983.293   -12898420.05649 -10026131.56246  22423983.200    22423989.066
  22825924.834    -3515847.50649  -2722175.02246  22825923.902    22825929.972
  24615629.723    16040804.25349  12501620.99745  24615629.074    24615638.723
  22615468.293   -13417056.21049 -10439070.03246  22615468.148    22615475.777
  22386411.022    12001869.10649   9356710.78446  22386410.500    22386418.866
  20583102.889    -8205776.58449  -6376566.81048  20583102.475    20583107.411
  22344074.831     9670204.64249   7536188.25447  22344074.769    22344079.230
 04  7 19 18 19  0.0000000  0  7G11G19G 3G25G15G14G22
  22409825.938   -12972817.29049 -10084103.39346  22409825.830    22409831.682
  22837623.182    -3454371.97149  -2674272.06546  22837622.273    22837628.460
  24633003.973    16132107.15649  12572765.95345  24633003.405    24633013.284
  22598408.438   -13506705.55149 -10508926.60546  22598408.348    22598416.001
  22405599.813    12102705.64049   9435284.60846  22405599.216    22405607.518
  20590781.878    -8165423.00449  -6345122.47148  20590781.469    20590786.484
  22355904.574     9732369.37249   7584628.26147  22355904.359    22355908.872
 04  7 19 18 19 30.0000000  0  7G11G19G 3G25G15G14G22
  22395734.964   -13046866.41749 -10141803.98846  22395734.825    22395740.587
  22849395.349    -3392508.75449  -2626067.02946  22849394.483    22849400.621
  24650373.555    16223383.06649  12643889.93245  24650372.941    24650382.341
  22581397.134   -13596100.54649 -10578584.98246  22581396.994    22581404.617
  22424843.449    12203830.89849   9514083.41746  22424842.844    22424851.050
  20598535.753    -8124675.88549  -6313371.48148  20598535.391    20598540.427
  22367763.025     9794686.13849   7633186.74547  22367762.860    22367767.458
 04  7 19 18 20  0.0000000  0  7G11G19G 3G25G15G14G22
  22381710.821   -13120563.43749 -10199230.21046  22381710.694    22381716.475
  22861241.553    -3330258.48049  -2577560.37746  22861240.483    22861246.568
  24667737.279    16314631.45549  12714992.51545  24667736.841    24667746.343
  22564435.099   -13685236.63649 -10648041.62946  22564434.917    22564442.503
  22444142.040    12305244.72949   9593107.08946  22444141.334    22444149.522
  20606364.597    -8083535.28849  -6281313.89048  20606364.201    20606369.217
  22379650.860     9857156.85649   7681865.19047  22379650.690    22379655.205
 04  7 19 18 20 30.0000000  0  7G11G19G 3G25G15G14G22
  22367753.931   -13193907.01249 -10256381.02046  22367753.827    22367759.676
  22873160.402    -3267624.88249  -2528755.03546  22873159.341    22873165.399
  24685095.325    16405848.61749  12786070.73245  24685095.094    24685104.522
  22547522.629   -13774112.28049 -10717295.33046  22547522.455    22547530.044
  22463494.835    12406944.08849   9672353.25946  22463494.127    22463502.322
  20614267.695    -8042004.08849  -6248951.93448  20614267.340    20614272.371
  22391567.642     9919780.42249   7730662.72247  22391567.520    22391572.144
 04  7 19 18 21  0.0000000  0  7G11G19G 3G25G15G14G22
  22353864.796   -13266894.50849 -10313254.36646  22353864.731    22353870.523
  22885151.838    -3204610.29549  -2479652.84546  22885150.750    22885156.725
  24702446.937    16497032.39149  12857122.89345  24702446.743    24702456.277
  22530660.443   -13862724.09049 -10786343.42346  22530660.149    22530667.757
  22482901.842    12508927.84749   9751821.03746  22482901.041    22482909.203
  20622244.984    -8000083.57349  -6216286.61748  20622244.607    20622249.615
  22403513.607     9982557.15049   7779579.60547  22403513.480    22403518.186
 04  7 19 18 21 30.0000000  0  7G11G19G 3G25G15G14G22
  22340043.980   -13339523.59549 -10369848.43546  22340043.890    22340049.635
  22897215.033    -3141217.70549  -2430256.10746  22897213.968    22897220.043
  24719791.357    16588179.58849  12928146.55845  24719791.235    24719800.959
  22513848.822   -13951069.09349 -10855183.64046  22513848.607    22513856.239
  22502362.387    12611193.79449   9831508.70846  22502361.709    22502369.823
  20630295.908    -7957775.80549  -6183319.54248  20630295.493    20630300.556
  22415488.854    10045486.66849   7828615.55647  22415488.680    22415493.275
 04  7 19 18 22  0.0000000  0  7G11G19G 3G25G15G14G22
  22326291.609   -13411792.75949 -10426162.03546  22326291.550    22326297.219
  22909349.595    -3077450.23249  -2380567.22146  22909348.598    22909354.713
  24737128.303    16679287.16949  12999139.39545  24737128.453    24737138.268
  22497088.434   -14039145.62049 -10923814.65546  22497088.250    22497095.727
  22521876.073    12713739.32749   9911414.24346  22521875.580    22521883.628
  20638420.062    -7915083.32749  -6150052.68948  20638419.669    20638424.661
  22427492.910    10108568.55249   7877770.21647  22427492.800    22427497.459
 04  7 19 18 22 30.0000000  0  7G11G19G 3G25G15G14G22
  22312608.329   -13483699.31849 -10482193.09746  22312608.193    22312613.893
  22921555.110    -3013310.28349  -2330588.11046  22921554.118    22921560.205
  24754457.385    16770352.86449  13070099.59545  24754457.735    24754467.576
  22480379.772   -14126950.49849 -10992233.99446  22480379.527    22480386.901
  22541442.900    12816562.57449   9991536.14346  22541442.334    22541450.317
  20646617.149    -7872007.40449  -6116487.05448  20646616.735    20646621.742
  22439526.125    10171802.81149   7927043.62347  22439525.949    22439530.596
 04  7 19 18 23  0.0000000  0  7G11G19G 3G25G15G14G22
  22298994.174   -13555242.35649 -10537940.89346  22298993.968    22298999.704
  22933830.775    -2948801.62049  -2280321.68146  22933829.820    22933835.851
  24771778.659    16861373.10549  13141024.29045  24771778.774    24771788.409
  22463722.992   -14214482.05449 -11060440.36046  22463722.739    22463730.075
  22561061.928    12919660.55749  10071872.15046  22561061.302    22561069.276
  20654886.595    -7828551.21249  -6082625.09948  20654886.200    20654891.219
  22451588.092    10235188.27249   7976434.84947  22451587.829    22451592.472
 04  7 19 18 23 30.0000000  0  7G11G19G 3G25G15G14G22
  22285449.702   -13626418.88549 -10593403.09046  22285449.405    22285455.212
  22946176.290    -2883926.56749  -2229769.76946  22946175.214    22946181.179
  24789090.390    16952345.79049  13211911.98545  24789090.489    24789099.989
  22447119.003   -14301736.54749 -11128430.81846  22447118.693    22447126.016
  22580733.149    13023032.12249  10152421.32246  22580732.304    22580740.320
  20663228.213    -7784715.86149  -6048467.70048  20663227.815    20663232.824
  22463678.785    10298725.72949   8025944.50747  22463678.629    22463683.277
 04  7 19 18 24  0.0000000  0  7G11G19G 3G25G15G14G22
  22271975.620   -13697225.45149 -10648576.99446  22271975.333    22271981.212
  22958590.920    -2818686.95049  -2178933.77146  22958589.920    22958595.887
  24806392.403    17043269.06349  13282761.16245  24806392.611    24806402.266
  22430568.454   -14388710.64349 -11196202.80046  22430568.021    22430575.341
  22600455.844    13126675.66449  10233182.43846  22600455.040    22600463.163
  20671641.671    -7740502.53549  -6014015.77748  20671641.271    20671646.319
  22475798.707    10362415.66549   8075572.97847  22475798.528    22475803.146
 04  7 19 18 24 30.0000000  0  7G11G19G 3G25G15G14G22
  22258572.095   -13767660.89949 -10703461.74046  22258571.891    22258577.703
  22971073.888    -2753086.39349  -2127816.50546  22971073.187    22971079.372
  24823684.498    17134139.59749  13353569.25945  24823684.831    24823694.504
  22414071.323   -14475402.60449 -11263754.92746  22414071.012    22414078.379
  22620229.737    13230588.55549  10314153.43046  22620229.012    22620237.286
  20680126.679    -7695913.73649  -5979271.27648  20680126.276    20680131.307
  22487947.485    10426257.44349   8125319.77247  22487947.248    22487951.860
 04  7 19 18 25  0.0000000  0  7G11G19G 3G25G15G14G22
  22245239.853   -13837722.55149 -10758055.21647  22245239.581    22245245.303
  22983625.631    -2687127.08449  -2076419.72546  22983624.917    22983631.092
  24840966.128    17224955.42349  13424334.73145  24840966.317    24840976.581
  22397628.701   -14561808.83449 -11331084.40546  22397628.424    22397635.800
  22640054.540    13334769.31049  10395333.13746  22640053.937    22640062.412
  20688682.758    -7650951.05049  -5944235.43348  20688682.373    20688687.426
  22500125.110    10490251.41149   8175185.14747  22500124.967    22500129.548
 04  7 19 18 25 30.0000000  0  6G11G19G25G15G14G22
  22231979.626   -13907405.70849 -10812353.75647  22231979.361    22231985.105
  22996245.639    -2620809.57449  -2024743.81646  22996244.801    22996250.939
  22381241.384   -14647924.63849 -11398187.58646  22381241.109    22381248.497
  22659930.576    13439218.28749  10476721.85046  22659929.957    22659938.491
  20697310.130    -7605614.16349  -5908908.00748  20697309.721    20697314.780
  22512332.251    10554399.77949   8225170.83847  22512332.077    22512336.606
 04  7 19 18 26  0.0000000  0  6G11G19G25G15G14G22
  22218791.533   -13976709.75749 -10866356.87847  22218791.261    22218796.976
  23008932.891    -2554138.09249  -1972792.08446  23008932.008    23008938.182
  22364909.570   -14733748.64549 -11465063.39046  22364909.316    22364916.747
  22679857.150    13543931.97349  10558316.84146  22679856.382    22679864.952
  20706008.118    -7559906.14249  -5873291.38748  20706007.689    20706012.779
  22524568.322    10618700.79149   8275275.48547  22524568.206    22524572.736
 04  7 19 18 26 30.0000000  0  6G11G19G25G15G14G22
  22205675.408   -14045635.85249 -10920065.50847  22205675.101    22205680.704
  23021686.293    -2487119.07049  -1920569.54746  23021685.389    23021691.615
  22348633.173   -14819281.57649 -11531712.36646  22348632.943    22348640.338
  22699832.694    13648904.72649  10640113.69746  22699832.053    22699840.712
  20714775.618    -7513832.51249  -5837389.87848  20714775.180    20714780.348
  22536832.931    10683150.88249   8325496.28747  22536832.795    22536837.263
 04  7 19 18 27  0.0000000  0  6G11G19G25G15G14G22
  22192631.600   -14114180.80849 -10973477.13546  22192631.391    22192636.986
  23034505.560    -2419754.17949  -1868077.49246  23034504.555    23034510.864
  22332412.834   -14904520.00549 -11598131.87346  22332412.582    22332419.930
  22719857.322    13754135.40649  10722111.53546  22719856.711    22719865.524
  20723612.567    -7467394.09549  -5801204.11648  20723612.152    20723617.300
  22549126.100    10747751.09349   8375834.06546  22549125.795    22549130.257
 04  7 19 18 27 30.0000000  0  6G11G19G25G15G14G22
  22179661.148   -14182340.99549 -11026588.94747  22179660.890    22179666.460
  23047390.246    -2352044.87749  -1815317.06246  23047389.264    23047395.537
  22316249.240   -14989460.17349 -11664318.96646  22316248.973    22316256.282
  22739931.056    13859623.23449  10804309.75046  22739930.444    22739939.297
  20732518.896    -7420591.42349  -5764734.52348  20732518.446    20732523.518
  22561447.753    10812502.72149   8426289.83647  22561447.625    22561452.123
 04  7 19 18 28  0.0000000  0  6G11G19G25G15G14G22
  22166764.196   -14250114.72549 -11079399.62747  22166764.038    22166769.514
  23060339.887    -2283994.38349  -1762290.78646  23060338.820    23060345.120
  22300142.884   -15074099.44049 -11730271.59146  22300142.593    22300149.915
  22760053.512    13965365.98649  10886706.58846  22760052.823    22760061.596
  20741494.064    -7373426.82349  -5727982.90748  20741493.633    20741498.683
  22573798.409    10877405.32149   8476863.23447  22573798.245    22573802.732
 04  7 19 18 28 30.0000000  0  6G11G19G25G15G14G22
  22153941.215   -14317500.98949 -11131908.39847  22153940.906    22153946.224
  23073353.589    -2215607.17749  -1709002.13246  23073352.540    23073358.793
  22284094.013   -15158436.36649 -11795988.61446  22284093.763    22284101.095
  22780223.762    14071360.24449  10969299.41046  22780222.970    22780231.706
  20750537.386    -7325903.92149  -5690952.09648  20750536.982    20750542.006
  22586177.455    10942457.16949   8527552.92647  22586177.235    22586181.842
 04  7 19 18 29  0.0000000  0  6G11G19G25G15G14G22
  22141192.424   -14384496.62349 -11184112.76147  22141192.082    22141197.386
  23086431.192    -2146884.89549  -1655452.39046  23086430.137    23086436.315
  22268103.307   -15242467.36049 -11861467.25446  22268103.193    22268110.492
  22800441.455    14177604.89849  11052087.35646  22800440.723    22800449.411
  20759648.851    -7278023.04949  -5653642.34548  20759648.434    20759653.445
  22598584.991    11007659.37949   8578359.80446  22598584.795    22598589.463
 04  7 19 18 29 30.0000000  0  6G11G19G25G15G14G22
  22128518.275   -14451099.01949 -11236010.70447  22128517.996    22128523.384
  23099571.843    -2077829.59449  -1601643.13246  23099570.940    23099577.267
  22252171.802   -15326188.64449 -11926704.56446  22252171.552    22252178.814
  22820706.604    14284098.71349  11135069.44046  22820705.933    22820714.534
  20768828.181    -7229785.40249  -5616054.58948  20768827.790    20768832.817
  22611021.497    11073012.84149   8629284.53446  22611021.255    22611025.850
 04  7 19 18 30  0.0000000  0  6G11G19G25G15G14G22
  22115919.374   -14517306.24849 -11287600.72747  22115919.138    22115924.584
  23112775.328    -2008444.95449  -1547577.25746  23112774.429    23112780.798
  22236299.440   -15409598.61349 -11991699.28946  22236299.091    22236306.307
  22841018.728    14390838.80049  11218243.43946  22841018.111    22841026.582
  20778074.904    -7181193.85349  -5578191.06148  20778074.468    20778079.473
  22623486.497    11138516.64449   8680326.41646  22623486.207    22623490.851
 04  7 19 18 30 30.0000000  0  6G11G19G25G15G14G22
  22103396.363   -14583115.54849 -11338880.68247  22103396.018    22103401.389
  23126041.308    -1938732.77649  -1493256.15846  23126040.326    23126046.615
  22220486.784   -15492693.89449 -12056448.79646  22220486.527    22220493.748
  22861377.397    14497823.84849  11301608.30046  22861376.768    22861385.253
  20787388.726    -7132249.43249  -5540052.57348  20787388.281    20787393.306
  22635980.113    11204171.26049   8731485.79746  22635979.877    22635984.567
 04  7 19 18 31  0.0000000  0  6G11G19G25G15G14G22
  22090949.203   -14648525.67249 -11389849.60347  22090948.874    22090954.192
  23139368.578    -1868697.36949  -1438683.19046  23139367.608    23139374.013
  22204734.491   -15575472.80149 -12120951.78746  22204734.182    22204741.425
  22881781.708    14605050.57749  11385161.50546  22881781.362    22881789.986
  20796769.095    -7082955.19149  -5501641.49448  20796768.687    20796773.696
  22648502.421    11269975.91749   8782762.10846  22648502.218    22648506.764
 04  7 19 18 31 30.0000000  0  6G11G19G25G15G14G22
  22078578.293   -14713534.92249 -11440506.13947  22078577.998    22078583.360
  23152756.934    -1798341.91749  -1383860.83746  23152755.910    23152762.324
  22189042.803   -15657932.98249 -12185206.41847  22189042.496    22189049.749
  22902232.254    14712516.76749  11468901.27346  22902231.654    22902240.314
  20806215.688    -7033313.30349  -5462959.53248  20806215.247    20806220.312
  22661053.258    11335929.97349   8834154.83446  22661052.910    22661057.466
 04  7 19 18 32  0.0000000  0  6G11G19G25G15G14G22
  22066284.314   -14778140.50949 -11490848.13647  22066283.960    22066289.353
  23166205.782    -1727668.66049  -1328790.86046  23166204.760    23166210.988
  22173412.302   -15740071.51449 -12249210.42047  22173412.006    22173419.240
  22922727.966    14820220.82449  11552826.40646  22922727.187    22922735.829
  20815728.061    -6983325.31449  -5424007.87148  20815727.691    20815732.677
  22673632.245    11402033.80849   8885664.26546  22673632.031    22673636.681
 04  7 19 18 32 30.0000000  0  6G11G19G25G15G14G22
  22054067.569   -14842340.00549 -11540873.68747  22054067.187    22054072.657
  23179714.450    -1656680.38049  -1273475.40246  23179713.369    23179719.694
  22157843.591   -15821885.24449 -12312961.32047  22157843.404    22157850.514
  22943268.398    14928160.65749  11636935.25046  22943267.546    22943276.134
  20825306.003    -6932992.91349  -5384787.84448  20825305.611    20825310.615
  22686240.035    11468287.73449   8937290.66246  22686239.763    22686244.498
 04  7 19 18 33  0.0000000  0  6G11G19G25G15G14G22
  22041928.450   -14906130.78649 -11590580.77447  22041928.191    22041933.640
  23193282.222    -1585379.09849  -1217916.03346  23193281.455    23193288.028
  22142337.281   -15903371.33249 -12376456.92047  22142337.119    22142344.125
  22963853.264    15036335.13749  11721226.93746  22963852.496    22963861.188
  20834949.243    -6882317.17749  -5345300.28548  20834948.905    20834953.926
  22698876.189    11534692.16749   8989034.33546  22698876.085    22698880.840
 04  7 19 18 33 30.0000000  0  6G11G19G25G15G14G22
  22029867.430   -14969511.44549 -11639968.27947  22029867.160    22029872.730
  23206909.132    -1513768.62749  -1162115.76146  23206908.482    23206915.239
  22126893.688   -15984527.57549 -12439695.50447  22126893.531    22126900.568
  22984482.555    15144741.17749  11805699.04546  22984481.634    22984490.367
  20844657.382    -6831300.73849  -5305547.23348  20844657.014    20844662.060
  22711541.031    11601246.56349   9040894.85746  22711540.867    22711545.722
 04  7 19 18 34  0.0000000  0  6G11G19G25G15G14G22
  22017884.927   -15032479.63349 -11689034.38547  22017884.706    22017890.293
  23220594.443    -1441851.98649  -1106076.91446  23220593.837    23220600.513
  22111513.443   -16065351.44849 -12502675.10047  22111513.238    22111520.257
  23005155.129    15253376.67749  11890349.96646  23005154.323    23005163.275
  20854429.953    -6779945.65349  -5265530.31048  20854429.589    20854434.676
  22724234.335    11667950.60849   9092871.98046  22724234.239    22724239.165
 04  7 19 18 34 30.0000000  0  6G11G19G25G15G14G22
  22005981.191   -15095034.19449 -11737778.17147  22005980.937    22005986.565
  23234337.568    -1369632.78149  -1049802.29646  23234336.872    23234343.559
  22096196.755   -16145841.21749 -12565394.34847  22096196.601    22096203.470
  23025870.599    15362238.80749  11975177.48946  23025869.972    23025879.245
  20864266.629    -6728254.44349  -5225251.46248  20864266.189    20864271.218
  22736956.412    11734803.58649   9144965.15546  22736956.182    22736960.895
 04  7 19 18 35  0.0000000  0  6G11G19G25G15G14G22
  21994156.574   -15157172.96149 -11786197.97347  21994156.333    21994161.906
  23248137.715    -1297114.05049   -993294.27246  23248136.960    23248143.706
  22080944.298   -16225994.48449 -12627851.39947  22080943.971    22080950.723
  23046628.922    15471325.42649  12060179.91346  23046628.431    23046637.795
  20874166.807    -6676229.22849  -5184712.36048  20874166.315    20874171.344
  22749706.587    11801805.23149   9197174.19146  22749706.276    22749710.973
 04  7 19 18 35 30.0000000  0  6G11G19G25G15G14G22
  21982411.610   -15218892.73949 -11834291.29447  21982411.393    21982416.939
  23261994.291    -1224297.40749   -936554.11246  23261993.457    23262000.307
  22065756.469   -16305807.09549 -12690042.99447  22065756.155    22065762.838
  23067430.025    15580635.68849  12145356.62746  23067429.580    23067438.964
  20884130.301    -6623870.81449  -5143913.61948  20884129.778    20884134.846
  22762485.116    11868956.93149   9249500.14046  22762484.810    22762489.553
 04  7 19 18 36  0.0000000  0  6G11G19G25G15G14G22
  21970746.583   -15280193.30849 -11882057.96247  21970746.339    21970751.746
  23275906.825    -1151187.43649   -879585.40146  23275905.965    23275912.584
  22050633.486   -16385278.30349 -12751968.56747  22050633.244    22050639.928
  23088273.590    15690165.95449  12230704.75546  23088272.711    23088281.952
  20894156.609    -6571182.27749  -5102857.63648  20894156.107    20894161.130
  22775291.931    11936256.94749   9301941.65446  22775291.633    22775296.411
 04  7 19 18 36 30.0000000  0  6G11G19G25G15G14G22
  21959161.837   -15341072.27949 -11929496.10247  21959161.549    21959166.901
  23289874.669    -1077787.44949   -822390.70346  23289873.676    23289880.174
  22035575.938   -16464405.88349 -12813626.38047  22035575.718    22035582.387
  23109158.035    15799913.51149  12316222.22446  23109157.183    23109166.266
  20904245.265    -6518166.11349  -5061546.35948  20904244.733    20904249.790
  22788126.735    12003704.68949   9354498.29346  22788126.548    22788131.423
 04  7 19 18 37  0.0000000  0  6G11G19G25G15G14G22
  21947657.704   -15401526.67049 -11976603.39247  21947657.393    21947662.787
  23303896.977    -1004099.41149   -764971.54346  23303895.949    23303902.535
  22020584.547   -16543186.39849 -12875013.75747  22020584.267    22020590.984
  23130083.662    15909877.23449  12401908.11246  23130082.717    23130091.747
  20914395.941    -6464823.42649  -5019980.65347  20914395.485    20914400.559
  22800990.201    12071301.07749   9407170.74446  22800989.813    22800994.515
 04  7 19 18 37 30.0000000  0  6G11G19G25G15G14G22
  21936234.666   -15461554.74049 -12023378.49547  21936234.421    21936239.774
  23317973.524     -930126.13749   -707330.11246  23317972.584    23317979.140
  22005659.615   -16621616.92549 -12936128.40847  22005659.369    22005666.108
  23151049.859    16020054.83149  12487760.65846  23151048.922    23151057.909
  20924608.594    -6411156.15049  -4978162.01848  20924608.105    20924613.185
  22813881.713    12139046.27349   9459959.17546  22813881.299    22813885.996
 04  7 19 18 38  0.0000000  0  6G11G19G25G15G14G22
  21924893.465   -15521153.05349 -12069818.72547  21924893.212    21924898.520
  23332104.057     -855869.31149   -649467.75846  23332103.211    23332109.825
  21990801.930   -16699693.96249 -12996967.61747  21990801.735    21990808.452
  23172056.375    16130445.81549  12573779.50546  23172055.690    23172064.691
  20934882.809    -6357164.59149  -4936090.69847  20934882.313    20934887.470
  22826801.584    12206941.58049   9512864.55046  22826801.274    22826806.180
 04  7 19 18 38 30.0000000  0  6G11G19G25G15G14G22
  21913634.284   -15580320.31749 -12115923.07447  21913633.997    21913639.251
  23346287.813     -781333.13049   -591387.68346  23346287.072    23346293.730
  21976011.841   -16777415.96349 -13057530.17747  21976011.634    21976018.346
  23193102.896    16241046.77149  12659961.93346  23193102.399    23193111.462
  20945218.020    -6302851.98049  -4893769.20647  20945217.657    20945222.860
  22839749.983    12274985.64849   9565885.84746  22839749.661    22839754.557
 04  7 19 18 39  0.0000000  0  6G11G19G25G15G14G22
  21902457.280   -15639055.51349 -12161690.73147  21902457.025    21902462.352
  23360524.211     -706521.48849   -533092.97746  23360523.406    23360529.984
  21961289.503   -16854781.17249 -13117814.72947  21961289.396    21961296.225
  23214188.901    16351854.61449  12746305.57945  23214188.561    23214197.657
  20955614.166    -6248220.83549  -4851199.50647  20955613.690    20955618.840
  22852726.485    12343177.69249   9619022.44946  22852726.137    22852731.078
 04  7 19 18 39 30.0000000  0  6G11G19G25G15G14G22
  21891362.801   -15697357.25149 -12207120.64947  21891362.565    21891367.923
  23374812.350     -631437.43049   -474586.01546  23374811.525    23374818.032
  21946635.560   -16931787.43749 -13177819.56747  21946635.501    21946642.420
  23235314.137    16462867.13849  12832808.73445  23235313.637    23235322.762
  20966070.281    -6193273.68449  -4808383.56647  20966069.812    20966074.944
  22865731.243    12411517.25049   9672273.98446  22865730.834    22865735.811
 04  7 19 18 40  0.0000000  0  7G11G19G25G15G14G22G 1
  21880350.098   -15755228.99049 -12252215.49347  21880349.859    21880355.326
  23389150.662     -556089.92849   -415873.78246  23389149.838    23389156.185
  21932049.434   -17008438.33649 -13237547.48447  21932049.258    21932056.204
  23256476.584    16574076.32049  12919465.11245  23256476.117    23256485.385
  20976585.037    -6138018.40049  -4765327.52147  20976584.563    20976589.693
  22878762.622    12479998.41749   9725635.87446  22878762.332    22878767.459
  24557362.310    -3856610.26649  -2983031.26245  24557361.961    24557372.375
 04  7 19 18 40 30.0000000  0  7G11G19G25G15G14G22G 1
  21869421.245   -15812660.69949 -12296967.45847  21869420.985    21869426.414
  23403540.059     -480474.04449   -356952.38946  23403539.127    23403545.648
  21917532.790   -17084723.14849 -13296990.16647  21917532.688    21917539.593
  23277677.399    16685487.84149  13006279.17945  23277677.139    23277686.526
  20987159.652    -6082448.68349  -4722026.47247  20987159.152    20987164.284
  22891822.646    12548629.03849   9779114.21346  22891822.381    22891827.467
  24539115.221    -3952500.98249  -3057751.13545  24539114.645    24539124.580
 04  7 19 18 41  0.0000000  0  7G11G19G25G15G14G22G 1
  21858576.640   -15869649.84649 -12341374.54947  21858576.313    21858581.753
  23417979.910     -404592.11949   -297823.69346  23417979.160    23417985.788
  21903086.564   -17160639.12149 -13356145.42247  21903086.369    21903093.198
  23298916.632    16797100.01749  13093249.56945  23298916.256    23298925.781
  20997793.788    -6026565.91049  -4678481.48547  20997793.280    20997798.453
  22904911.249    12617409.80749   9832709.56746  22904910.970    22904916.090
  24520896.607    -4048238.96749  -3132352.03445  24520896.167    24520906.140
 04  7 19 18 41 30.0000000  0  7G11G19G25G15G14G22G 1
  21847816.466   -15926194.76349 -12385435.50247  21847816.151    21847821.612
  23432469.903     -328446.93849   -238489.86046  23432469.229    23432475.726
  21888710.879   -17236183.80349 -13415011.35847  21888710.701    21888717.537
  23320193.422    16908910.76949  13180374.69345  23320193.226    23320202.807
  21008487.189    -5970371.71749  -4634693.82647  21008486.697    21008491.831
  22918028.237    12686340.66549   9886421.87946  22918028.119    22918033.311
  24502707.397    -4143822.95449  -3206832.93845  24502706.969    24502716.908
 04  7 19 18 42  0.0000000  0  7G11G19G25G15G14G22G 1
  21837140.946   -15982294.75949 -12429149.77947  21837140.652    21837146.020
  23447009.163     -252043.36249   -178954.67546  23447008.234    23447014.929
  21874406.085   -17311356.06949 -13473587.10947  21874405.854    21874412.692
  23341507.621    17020916.39449  13267651.66945  23341507.360    23341516.862
  21019239.172    -5913869.91949  -4590666.47847  21019238.664    21019243.702
  22931173.748    12755419.71449   9940249.64946  22931173.558    22931178.568
  24484547.527    -4239253.58249  -3281194.34445  24484546.862    24484557.110
 04  7 19 18 42 30.0000000  0  7G11G19G25G15G14G22G 1
  21826550.507   -16037948.15349 -12472516.03847  21826550.174    21826555.534
  23461596.837     -175384.88149   -119220.88246  23461595.835    23461602.745
  21860172.550   -17386153.77949 -13531870.99047  21860172.298    21860179.117
  23362858.381    17133114.17049  13355078.38445  23362858.040    23362867.488
  21030049.104    -5857063.06649  -4546401.42847  21030048.620    21030053.705
  22944347.265    12824646.64149   9994192.65146  22944347.039    22944352.068
  24466416.455    -4334530.03549  -3355435.64645  24466416.113    24466426.535
 04  7 19 18 43  0.0000000  0  7G11G19G25G15G14G22G 1
  21816045.340   -16093153.63549 -12515533.28947  21816044.966    21816050.232
  23476232.199      -98474.97949    -59291.18646  23476231.263    23476238.341
  21846010.469   -17460575.49349 -13589861.88447  21846010.262    21846017.107
  23384245.294    17245501.13549  13442652.50845  23384244.704    23384254.010
  21040916.721    -5799953.26149  -4501900.30647  21040916.287    21040921.427
  22957548.672    12894020.87749  10048250.42646  22957548.569    22957553.642
  24448315.224    -4429651.77949  -3429556.35345  24448314.874    24448325.431
 04  7 19 18 43 30.0000000  0  7G11G19G25G15G14G22G 1
  21805625.659   -16147909.16549 -12558199.91747  21805625.350    21805630.623
  23490914.977      -21316.40849       832.30046  23490914.098    23490921.090
  21831920.599   -17534618.36249 -13647557.57847  21831920.366    21831927.265
  23405667.633    17358075.61249  13530372.74845  23405666.894    23405676.252
  21051841.708    -5742542.43549  -4457164.62847  21051841.263    21051846.407
  22970778.485    12963542.46849  10102423.02846  22970778.241    22970783.313
  24430243.994    -4524617.59849  -3503555.57045  24430243.664    24430254.047
 04  7 19 18 44  0.0000000  0  7G11G19G25G15G14G22G 1
  21795291.909   -16202213.19049 -12600514.72447  21795291.614    21795296.957
  23505644.867       56087.61549     61147.05046  23505643.861    23505650.575
  21817903.259   -17608280.22549 -13704956.37347  21817902.990    21817909.817
  23427125.105    17470835.16949  13618237.19245  23427124.339    23427133.867
  21062823.548    -5684832.73049  -4412196.05347  21062823.071    21062828.206
  22984036.228    13033211.09249  10156710.21046  22984035.814    22984040.805
  24412202.240    -4619426.60049  -3577432.58545  24412201.994    24412212.412
 04  7 19 18 44 30.0000000  0  7G11G19G25G15G14G22G 1
  21785044.532   -16256063.43949 -12642475.93647  21785044.208    21785049.633
  23520420.451      133733.98649    121650.65346  23520419.562    23520426.311
  21803958.883   -17681558.50249 -13762056.26247  21803958.534    21803965.354
  23448617.725    17583777.68749  13706244.23145  23448616.739    23448626.301
  21073861.982    -5626825.94849  -4366995.98847  21073861.459    21073866.605
  22997321.648    13103026.78149  10211111.99646  22997321.365    22997326.367
  24394190.709    -4714077.55349  -3651186.47945  24394190.474    24394200.671
 04  7 19 18 45  0.0000000  0  7G11G19G25G15G14G22G 1
  21774883.957   -16309457.49049 -12684081.67047  21774883.642    21774889.112
  23535241.719      211620.26249    182341.18146  23535240.921    23535247.726
  21790087.891   -17754450.42349 -13818855.11247  21790087.656    21790094.416
  23470144.696    17696901.37549  13794392.42645  23470143.657    23470153.184
  21084956.662    -5568523.36949  -4321565.44047  21084956.109    21084961.249
  23010635.162    13172989.93249  10265628.68646  23010634.909    23010639.978
  24376209.703    -4808568.81649  -3724815.95245  24376209.252    24376219.317
 04  7 19 18 45 30.0000000  0  7G11G19G25G15G14G22G 1
  21764810.546   -16362393.86149 -12725330.77547  21764810.176    21764815.710
  23550108.309      289743.04749    243216.00746  23550107.400    23550114.034
  21776290.887   -17826954.28449 -13875351.57047  21776290.638    21776297.314
  23491705.254    17810203.63649  13882679.77545  23491704.511    23491714.033
  21096107.008    -5509927.53849  -4275906.38147  21096106.509    21096111.653
  23023976.621    13243100.11049  10320259.93146  23023976.393    23023981.548
  24358259.189    -4902899.78049  -3798320.51245  24358258.608    24358268.733
 04  7 19 18 46  0.0000000  0  7G11G19G25G15G14G22G 1
  21754824.457   -16414871.07349 -12766222.09547  21754824.079    21754829.535
  23565019.106      368098.81249    304272.33946  23565018.197    23565024.733
  21762568.044   -17899068.13149 -13931544.11447  21762567.788    21762574.489
  23513299.546    17923681.99849  13971104.33345  23513298.782    23513308.496
  21107312.901    -5451040.56649  -4230020.45047  21107312.392    21107317.537
  23037346.165    13313356.76549  10375005.29946  23037345.857    23037350.948
  24340339.062    -4997069.73049  -3871699.59245  24340338.415    24340348.708
 04  7 19 18 46 30.0000000  0  7G11G19G25G15G14G22G 1
  21744926.039   -16466887.85849 -12806754.63247  21744925.651    21744931.058
  23579973.586      446684.12849    365507.57846  23579972.475    23579979.174
  21748919.588   -17970789.87549 -13987431.13347  21748919.517    21748926.270
  23534926.911    18037333.74049  14059663.99045  23534926.130    23534935.968
  21118573.678    -5391864.85149  -4183909.53147  21118573.166    21118578.367
  23050743.414    13383759.32449  10429864.37146  23050743.013    23050748.196
  24322449.650    -5091078.01549  -3944952.74545  24322449.239    24322459.473
 04  7 19 18 47  0.0000000  0  7G11G19G25G15G14G22G 1
  21735115.800   -16518441.38749 -12846926.19147  21735115.333    21735120.707
  23594971.267      525497.06649    426920.17146  23594970.112    23594976.930
  21735346.730   -18042116.04449 -14043009.89847  21735346.563    21735353.308
  23556587.235    18151157.69049  14148357.82345  23556586.274    23556596.065
  21129889.133    -5332401.48349  -4137574.47047  21129888.682    21129893.852
  23064168.373    13454308.89049  10484837.99846  23064168.238    23064173.397
  24304591.406    -5184922.69749  -4018078.42545  24304591.041    24304601.351
 04  7 19 18 47 30.0000000  0  7G11G19G25G15G14G22G 1
  21725393.854   -16569530.33649 -12886735.74047  21725393.433    21725398.762
  23610011.339      604533.65949    488507.03746  23610010.260    23610017.136
  21721849.301   -18113045.46849 -14098279.51347  21721849.087    21721855.816
  23578279.727    18265150.63049  14237183.33945  23578278.667    23578288.295
  21141259.020    -5272652.90049  -4091017.16847  21141258.491    21141263.643
  23077621.660    13525004.77149  10539925.61846  23077621.315    23077626.399
  24286764.310    -5278603.46949  -4091076.35645  24286764.044    24286774.226
 04  7 19 18 48  0.0000000  0  7G11G19G25G15G14G22G 1
  21715760.626   -16620153.27649 -12926182.17047  21715760.212    21715765.560
  23625093.441      683790.69549    550265.65746  23625092.349    23625099.169
  21708427.662   -18183576.01849 -14153238.32147  21708427.499    21708434.247
  23600003.819    18379310.20949  14326138.70445  23600002.697    23600012.133
  21152682.673    -5212621.15949  -4044239.21547  21152682.153    21152687.314
  23091102.443    13595846.17449  10595126.65946  23091102.092    23091107.170
  24268968.925    -5372119.51349  -4163945.94745  24268968.482    24268978.641
 04  7 19 18 48 30.0000000  0  7G11G19G25G15G14G22G 1
  21706216.368   -16670308.31149 -12965264.00447  21706215.970    21706221.314
  23640216.757      763264.97049    612193.54246  23640215.849    23640222.600
  21695082.386   -18253705.30049 -14207884.45747  21695082.267    21695088.993
  23621759.022    18493634.03549  14415222.04545  23621757.977    23621767.366
  21164159.682    -5152308.69249  -3997242.52047  21164159.197    21164164.427
  23104610.971    13666833.26249  10650441.22046  23104610.631    23104615.679
  24251205.077    -5465470.07349  -4236686.54345  24251204.640    24251214.567
 04  7 19 18 49  0.0000000  0  7G11G19G25G15G14G22G 1
  21696761.606   -16719992.51949 -13003978.95347  21696761.275    21696766.718
  23655381.011      842954.73949    674289.37446  23655380.152    23655387.162
  21681814.264   -18323429.89549 -14262215.25547  21681814.063    21681820.756
  23643545.192    18608121.32149  14504432.76945  23643544.234    23643553.658
  21175690.169    -5091716.04649  -3950027.49847  21175689.675    21175694.899
  23118147.334    13737967.12549  10705870.12146  23118146.890    23118152.026
  24233473.018    -5558652.72549  -4309296.34745  24233472.586    24233482.401
 04  7 19 18 49 30.0000000  0  7G11G19G25G15G14G22G 1
  21687396.955   -16769204.02249 -13042325.56747  21687396.618    21687402.047
  23670585.986      922856.69749    736550.53546  23670584.995    23670591.940
  21668623.455   -18392747.70349 -14316229.08047  21668623.254    21668629.958
  23665362.049    18722769.58249  14593768.91945  23665361.152    23665370.614
  21187273.582    -5030845.03749  -3902595.57447  21187273.096    21187278.304
  23131711.377    13809247.43649  10761413.14646  23131711.129    23131716.301
  24215773.277    -5651666.56849  -4381774.58545  24215772.950    24215782.567
 04  7 19 18 50  0.0000000  0  7G11G19G25G15G14G22G 1
  21678122.349   -16817942.29949 -13080303.42547  21678121.989    21678127.515
  23685830.671     1002966.63549    798973.78746  23685829.611    23685836.523
  21655510.309   -18461657.32749 -14369924.83047  21655510.152    21655516.860
  23687208.717    18837575.44849  14683227.90345  23687208.066    23687217.465
  21198909.278    -4969698.76249  -3854949.14847  21198908.801    21198914.035
  23145303.276    13880673.14349  10817069.47146  23145303.040    23145308.172
  24198105.277    -5744511.60349  -4454121.35645  24198104.772    24198114.771
 04  7 19 18 50 30.0000000  0  7G11G19G25G15G14G22G 1
  21668938.261   -16866204.98149 -13117910.70247  21668937.946    21668943.447
  23701114.517     1083282.67949    861557.63246  23701113.320    23701120.472
  21642475.489   -18530156.07349 -14423300.42547  21642475.286    21642481.930
  23709085.556    18952537.71449  14772808.75645  23709084.802    23709094.079
  21210597.152    -4908278.33149  -3807089.10047  21210596.729    21210601.978
  23158922.783    13952245.11249  10872839.78146  23158922.741    23158927.880
  24180469.679    -5837185.94949  -4526335.00945  24180469.220    24180479.413
 04  7 19 18 51  0.0000000  0  7G11G19G25G15G14G22G 1
  21659845.068   -16913990.39449 -13155146.06947  21659844.761    21659850.272
  23716436.819     1163800.97149    924299.05546  23716435.613    23716442.797
  21629519.181   -18598242.11749 -14476354.44047  21629518.986    21629525.535
  23730991.188    19067653.60449  14862509.32545  23730990.657    23730999.953
  21222336.787    -4846586.09849  -3759017.25447  21222336.382    21222341.649
  23172570.243    14023962.36849  10928723.27746  23172570.113    23172575.246
  24162867.003    -5929689.20749  -4598415.41345  24162866.415    24162876.427
 04  7 19 18 51 30.0000000  0  7G11G19G25G15G14G22G 1
  21650842.862   -16961297.76749 -13192008.94747  21650842.554    21650847.920
  23731796.773     1244517.95349    987195.30146  23731795.560    23731802.701
  21616641.567   -18665913.89149 -14529085.65047  21616641.441    21616647.998
  23752925.467    19182920.12449  14952327.25845  23752925.163    23752934.503
  21234127.715    -4784624.39349  -3710735.43347  21234127.349    21234132.620
  23186245.322    14095824.59449  10984719.76746  23186245.087    23186250.233
  24145297.136    -6022020.85649  -4670362.07645  24145296.559    24145306.398
 04  7 19 18 52  0.0000000  0  7G11G19G25G15G14G22G 1
  21641932.040   -17008124.63649 -13228497.40247  21641931.712    21641937.057
  23747194.044     1325430.99649   1050244.32946  23747192.711    23747200.000
  21603843.407   -18733168.43949 -14581491.75147  21603843.291    21603849.805
  23774888.565    19298335.59449  15042261.21845  23774887.978    23774897.415
  21245969.596    -4722395.04449  -3662245.06147  21245969.251    21245974.541
  23199947.828    14167831.86949  11040829.27846  23199947.671    23199952.765
  24127759.484    -6114179.46849  -4742173.89845  24127759.170    24127769.139
 04  7 19 18 52 30.0000000  0  7G11G19G25G15G14G22G 1
  21633112.851   -17054469.36249 -13264610.14947  21633112.578    21633117.939
  23762628.009     1406536.90849   1113443.64346  23762626.915    23762634.044
  21591125.013   -18800003.79349 -14633571.20347  21591124.945    21591131.348
  23796879.565    19413897.60549  15132309.38545  23796878.803    23796888.424
  21257862.243    -4659899.63949  -3613547.36447  21257861.779    21257867.001
  23213678.041    14239984.36449  11097051.93046  23213677.955    23213683.053
  24110255.250    -6206164.33049  -4813850.29745  24110254.829    24110264.986
 04  7 19 18 53  0.0000000  0  7G11G19G25G15G14G22G 1
  21624385.803   -17100330.18049 -13300345.84447  21624385.530    21624390.843
  23778098.727     1487832.96649   1176791.11746  23778097.475    23778104.377
  21578486.863   -18866417.41849 -14685322.04347  21578486.784    21578493.159
  23818897.895    19529604.24549  15222470.21345  23818897.231    23818906.858
  21269804.987    -4597139.92149  -3564643.72647  21269804.571    21269809.830
  23227435.736    14312281.99249  11153387.64846  23227435.741    23227440.988
  24092784.069    -6297974.06249  -4885390.25645  24092783.734    24092794.152
 04  7 19 18 53 30.0000000  0  7G11G19G25G15G14G22G 1
  21615751.319   -17145704.81049 -13335702.69247  21615751.057    21615756.317
  23793604.405     1569316.58749   1240284.77346  23793603.290    23793610.122
  21565929.486   -18932406.98149 -14736742.44547  21565929.388    21565935.725
  23840943.208    19645453.92149  15312742.52045  23840942.748    23840952.561
  21281797.963    -4534117.20049  -3515535.14147  21281797.448    21281802.714
  23241221.186    14384725.31749  11209836.92146  23241221.307    23241226.539
  24075346.622    -6389607.11149  -4956792.53945  24075346.474    24075356.819
 04  7 19 18 54  0.0000000  0  7G11G19G25G15G14G22G 1
  21607209.387   -17190592.93349 -13370680.43747  21607209.100    21607214.347
  23809145.315     1650983.26949   1303921.01546  23809144.242    23809150.927
  21553453.009   -18997971.91949 -14787831.96547  21553452.845    21553459.048
  23863015.123    19761442.77149  15403123.29145  23863014.848    23863024.781
  21293840.105    -4470835.08249  -3466224.43247  21293839.631    21293844.904
  23255034.392    14457312.57549  11266398.35546  23255034.294    23255039.457
  24057943.030    -6481064.21049  -5028057.73345  24057942.763    24057952.873
 04  7 19 18 54 30.0000000  0  7G11G19G25G15G14G22G 1
  21598760.202   -17234993.28049 -13405278.09647  21598759.920    21598765.187
  23824720.267     1732829.71049   1367697.33546  23824719.210    23824725.988
  21541057.622   -19063109.92949 -14838588.83347  21541057.427    21541063.671
  23885113.281    19877568.41649  15493610.62745  23885113.030    23885122.944
  21305931.450    -4407295.35449  -3416712.98847  21305930.931    21305936.126
  23268874.774    14530043.61449  11323071.80146  23268874.633    23268879.792
  24040573.034    -6572344.38049  -5099185.05245  24040572.738    24040582.596
 04  7 19 18 55  0.0000000  0  7G11G19G25G15G14G22G 1
  21590404.411   -17278903.32449 -13439493.70147  21590404.134    21590409.357
  23840328.732     1814853.32749   1431611.74946  23840327.745    23840334.727
  21528743.829   -19127818.50149 -14889011.06047  21528743.711    21528750.020
  23907237.129    19993829.01049  15584203.15145  23907236.903    23907246.786
  21318071.398    -4343499.53449  -3367001.99047  21318070.877    21318076.141
  23282742.509    14602918.87549  11379857.66546  23282742.313    23282747.512
  24023236.823    -6663446.25949  -5170173.42745  24023236.569    24023246.490
 04  7 19 18 55 30.0000000  0  7G11G19G25G15G14G22G 1
  21582142.397   -17322321.08449 -13473325.71947  21582142.054    21582147.208
  23855970.494     1897051.97449   1495662.53545  23855969.466    23855976.624
  21516512.480   -19192094.77149 -14939096.42947  21516512.329    21516518.657
  23929386.790    20110223.13149  15674899.69345  23929386.170    23929395.929
  21330259.770    -4279448.77049  -3317092.34147  21330259.309    21330264.683
  23296637.695    14675938.75949  11436756.19846  23296637.473    23296642.745
  24005935.155    -6754368.01649  -5241021.46445  24005934.648    24005944.678
 04  7 19 18 56  0.0000000  0  7G11G19G25G15G14G22G 1
  21573974.079   -17365245.48249 -13506773.28147  21573973.739    21573978.999
  23871644.683     1979421.84149   1559846.75445  23871643.766    23871651.364
  21504363.570   -19255937.41549 -14988843.91347  21504363.419    21504369.797
  23951561.046    20226747.87649  15765698.04445  23951560.289    23951569.845
  21342496.283    -4215145.36149  -3266985.81547  21342495.828    21342501.243
  23310560.432    14749102.73249  11493767.00946  23310560.145    23310565.496
  23988667.550    -6845109.23549  -5311728.82645  23988667.112    23988677.032
 04  7 19 18 56 30.0000000  0  7G11G19G25G15G14G22G 1
  21565899.771   -17407675.27949 -13539835.44047  21565899.528    21565904.927
  23887351.114     2061959.45449   1624161.66745  23887350.271    23887357.721
  21492297.570   -19319344.60549 -15038252.07347  21492297.412    21492303.852
  23973759.389    20343400.67649  15856596.15145  23973758.682    23973768.314
  21354780.418    -4150591.58749  -3216684.20347  21354779.973    21354785.467
  23324510.673    14822410.48949  11550889.85246  23324510.307    23324515.667
  23971434.425    -6935669.44349  -5382295.15345  23971433.852    23971443.867
 04  7 19 18 57  0.0000000  0  7G11G19G25G15G14G22G 1
  21557920.211   -17449608.48049 -13572510.66447  21557919.903    21557925.306
  23903089.226     2144661.80049   1688604.93745  23903088.156    23903095.309
  21480314.938   -19382314.18649 -15087319.24247  21480314.708    21480321.091
  23995981.915    20460179.41549  15947592.39245  23995980.988    23995990.718
  21367111.917    -4085789.25349  -3166188.91347  21367111.457    21367116.900
  23338487.971    14895861.93649  11608124.65346  23338487.621    23338493.127
  23954236.152    -7026047.66749  -5452719.64645  23954235.458    23954245.318
 04  7 19 18 57 30.0000000  0  7G11G19G25G15G14G22G 1
  21550035.491   -17491043.30949 -13604797.53347  21550035.131    21550040.559
  23918858.046     2227526.52649   1753174.75445  23918856.810    23918863.996
  21468415.927   -19444843.41549 -15136043.27747  21468415.675    21468422.075
  24018227.717    20577082.37549  16038685.42645  24018226.978    24018236.808
  21379490.450    -4020739.50849  -3115500.83147  21379490.067    21379495.501
  23352492.640    14969457.40649  11665471.71246  23352492.466    23352497.932
  23937072.474    -7116242.39549  -5523001.19045  23937071.970    23937081.813
 04  7 19 18 58  0.0000000  0  7G11G19G25G15G14G22G 1
  21542245.753   -17531978.23749 -13636694.85847  21542245.444    21542250.939
  23934657.180     2310550.58249   1817868.74445  23934655.892    23934663.225
  21456601.060   -19506930.32949 -15184422.66047  21456600.844    21456607.273
  24040496.554    20694107.20449  16129873.42745  24040496.091    24040506.013
  21391915.788    -3955444.55049  -3064621.67147  21391915.345    21391920.778
  23366525.010    15043196.84549  11722930.94646  23366524.771    23366530.058
  23919943.844    -7206252.79449  -5593139.12045  23919943.488    23919953.404
 04  7 19 18 58 30.0000000  0  7G11G19G25G15G14G22G 1
  21534551.250   -17572412.58649 -13668202.14147  21534551.051    21534556.470
  23950485.591     2393729.76749   1882683.57045  23950484.454    23950491.756
  21444870.656   -19568574.17049 -15232456.77847  21444870.455    21444876.896
  24062788.335    20811250.84049  16221154.00045  24062787.788    24062797.944
  21404387.235    -3889906.82949  -3013553.34747  21404386.722    21404392.246
  23380584.362    15117079.16249  11780501.51046  23380584.098    23380589.441
  23902850.677    -7296079.03649  -5663133.52545  23902850.151    23902859.888
 04  7 19 18 59  0.0000000  0  7G11G19G25G15G14G22G 1
  21526952.524   -17612344.13649 -13699317.63347  21526952.291    21526957.752
  23966343.061     2477061.43749   1947617.22845  23966342.047    23966349.357
  21433225.113   -19629772.22949 -15280143.54047  21433224.887    21433231.279
  24085102.244    20928511.72549  16312525.95345  24085101.781    24085112.023
  21416904.593    -3824127.80249  -2962296.98847  21416904.106    21416909.591
  23394670.906    15191104.79049  11838183.74546  23394670.777    23394676.102
  23885792.517    -7385719.52449  -5732983.18145  23885792.130    23885801.753
 04  7 19 18 59 30.0000000  0  8G11G19G25G15G14G20G22G 1
  21519449.828   -17651770.92649 -13730039.80247  21519449.625    21519455.063
  23982229.412     2560543.56849   2012668.13345  23982228.269    23982235.686
  21421664.837   -19690522.00549 -15327480.99147  21421664.620    21421670.936
  24107438.425    21045887.77449  16403987.62745  24107437.788    24107448.164
  21429467.632    -3758108.83649  -2910853.67147  21429467.139    21429472.593
  24151200.002    -1784440.66349  -1373895.03145  24151200.192    24151208.217
  23408784.837    15265274.35549  11895978.13146  23408784.786    23408790.175
  23868770.106    -7475172.79849  -5802686.99645  23868769.715    23868779.075
 04  7 19 19  0  0.0000000  0  8G11G19G25G15G14G20G22G 1
  21512043.221   -17690693.35049 -13760368.95647  21512043.002    21512048.338
  23998142.808     2644170.96049   2077832.22245  23998141.743    23998149.704
  21410189.791   -19750823.21049 -15374468.90647  21410189.634    21410195.927
  24129795.520    21163375.10649  16495536.02845  24129794.890    24129805.568
  21442075.697    -3691853.20649  -2859225.93347  21442075.200    21442080.677
  24134292.223    -1873283.30149  -1443123.01245  24134292.497    24134301.581
  23422925.948    15339585.74549  11953883.03646  23422925.826    23422931.212
  23851782.918    -7564439.84249  -5872245.66245  23851782.584    23851792.135
 04  7 19 19  0 30.0000000  0  8G11G19G25G15G14G20G22G 1
  21504732.678   -17729110.50549 -13790304.38747  21504732.443    21504737.703
  24014083.328     2727940.02349   2143106.73645  24014082.406    24014090.291
  21398800.389   -19810674.55149 -15421106.28347  21398800.249    21398806.588
  24152173.077    21280970.79849  16587168.87145  24152172.769    24152183.173
  21454728.271    -3625363.57349  -2807415.85947  21454727.761    21454733.236
  24117389.456    -1962110.84849  -1512339.20045  24117389.698    24117398.265
  23437093.951    15414038.12949  12011897.83246  23437093.718    23437099.165
  23834831.247    -7653520.23549  -5941658.92345  23834831.000    23834840.685
 04  7 19 19  1  0.0000000  0  8G11G19G25G15G14G20G22G 1
  21497518.681   -17767020.50749 -13819844.63847  21497518.428    21497523.609
  24030050.500     2811848.08649   2208489.50845  24030049.761    24030057.514
  21387497.053   -19870073.78149 -15467391.35747  21387496.864    21387503.312
  24174571.359    21398672.91149  16678884.64545  24174570.863    24174581.039
  21467425.071    -3558641.55049  -2755424.70547  21467424.571    21467430.088
  24100489.420    -2050922.65849  -1581543.14945  24100489.458    24100497.916
  23451288.786    15488631.82849  12070022.71646  23451288.550    23451294.119
  23817915.394    -7742412.79549  -6010925.83345  23817915.112    23817925.140
 04  7 19 19  1 30.0000000  0  8G11G19G25G15G14G20G22G 1
  21490401.808   -17804420.41349 -13848987.41947  21490401.524    21490406.673
  24046044.209     2895893.33549   2273979.17845  24046043.389    24046050.865
  21376280.178   -19929017.91649 -15513321.81647  21376280.099    21376286.570
  24196989.692    21516480.34549  16770682.44545  24196989.013    24196999.070
  21480166.017    -3491687.60049  -2703252.82347  21480165.511    21480171.059
  24083592.778    -2139716.19849  -1650732.86045  24083592.626    24083600.961
  23465510.921    15563368.06649  12128258.69146  23465510.535    23465515.967
  23801035.846    -7831115.46649  -6080044.74145  23801035.386    23801045.504
 04  7 19 19  2  0.0000000  0  8G11G19G25G15G14G20G22G 1
  21483382.216   -17841308.25849 -13877731.19347  21483381.914    21483387.134
  24062063.552     2980073.29749   2339573.85845  24062062.541    24062070.103
  21365150.722   -19987504.14949 -15558895.46447  21365150.544    21365156.968
  24219427.866    21634391.86649  16862561.37445  24219427.208    24219437.141
  21492950.859    -3424502.65249  -2650900.94847  21492950.380    21492955.942
  24066699.839    -2228490.09349  -1719907.26245  24066699.520    24066707.857
  23479760.108    15638247.61649  12186606.31846  23479759.700    23479765.106
  23784192.621    -7919626.48749  -6149014.31545  23784192.326    23784202.452
 04  7 19 19  2 30.0000000  0  8G11G19G25G15G14G20G22G 1
  21476460.217   -17877683.13249 -13906075.23447  21476459.976    21476465.261
  24078107.317     3064384.89349   2405271.08845  24078106.363    24078114.143
  21354108.448   -20045531.03249 -15604111.18147  21354108.309    21354114.825
  24241885.211    21752404.84549  16954519.35945  24241884.372    24241894.714
  21505779.303    -3357088.86149  -2598370.74747  21505778.879    21505784.393
  24049810.641    -2317243.75349  -1789065.89645  24049810.283    24049818.581
  23494036.492    15713270.02649  12245065.25946  23494036.048    23494041.581
  23767386.054    -8007945.31249  -6217834.15145  23767385.702    23767395.854
 04  7 19 19  3  0.0000000  0  8G11G19G25G15G14G20G22G 1
  21469636.240   -17913543.83749 -13934018.63447  21469635.930    21469641.172
  24094175.520     3148824.65349   2471068.19145  24094174.630    24094182.646
  21343153.959   -20103096.94449 -15648967.69347  21343153.832    21343160.427
  24264361.341    21870516.72849  17046554.40145  24264360.762    24264370.841
  21518651.097    -3289448.19249  -2545663.76447  21518650.518    21518655.983
  24032925.596    -2405976.73049  -1858208.40345  24032925.141    24032933.104
  23508339.835    15788434.71149  12303635.07646  23508339.375    23508345.011
  23750615.983    -8096071.62349  -6286503.96745  23750615.701    23750626.011
 04  7 19 19  3 30.0000000  0  8G11G19G25G15G14G20G22G 1
  21462910.373   -17948888.70449 -13961560.09147  21462910.037    21462915.261
  24110267.632     3233389.73849   2536962.94045  24110266.989    24110275.121
  21332287.618   -20160199.82049 -15693463.40147  21332287.495    21332294.077
  24286855.967    21988725.38449  17138664.87245  24286855.400    24286865.475
  21531565.476    -3221582.48249  -2492781.41947  21531564.978    21531570.437
  24016044.640    -2494688.03549  -1927334.00345  24016043.850    24016052.020
  23522670.323    15863741.81549  12362315.86646  23522669.984    23522675.568
  23733883.198    -8184004.36349  -6355022.92845  23733882.855    23733892.817
 04  7 19 19  4  0.0000000  0  8G11G19G25G15G14G20G22G 1
  21456282.628   -17983717.44049 -13988699.36347  21456282.345    21456287.547
  24126383.263     3318076.13249   2602952.19545  24126382.552    24126390.588
  21321509.547   -20216838.58249 -15737597.46447  21321509.476    21321516.015
  24309368.022    22107027.50149  17230848.16745  24309367.684    24309377.645
  21544522.228    -3153494.43949  -2439725.84147  21544521.728    21544527.214
  23999167.482    -2583377.79749  -1996442.81945  23999166.583    23999174.648
  23537028.019    15939190.12449  12421106.67346  23537027.365    23537032.817
  23717187.247    -8271743.56149  -6423391.09845  23717186.774    23717196.513
 04  7 19 19  4 30.0000000  0  8G11G19G25G15G14G20G22G 1
  21449753.565   -18018028.28549 -14015435.09347  21449753.275    21449758.395
  24142521.513     3402881.05549   2669033.79545  24142520.710    24142528.180
  21310820.161   -20273011.49049 -15781368.52747  21310820.116    21310826.622
  24331897.777    22225420.97749  17323102.64645  24331897.377    24331907.147
  21557520.914    -3085185.45449  -2386498.08647  21557520.479    21557525.955
  23982294.344    -2672045.10449  -2065534.15745  23982293.444    23982301.558
  23551412.478    16014779.93949  12480007.74546  23551411.637    23551417.271
  23700528.218    -8359288.29449  -6491607.71545  23700527.656    23700537.308
 04  7 19 19  5  0.0000000  0  8G11G19G25G15G14G20G22G 1
  21443323.373   -18051819.55849 -14041765.95047  21443323.016    21443328.154
  24158681.529     3487802.02149   2735205.90445  24158680.643    24158688.278
  21300220.063   -20328715.89649 -15824774.51947  21300219.935    21300226.374
  24354444.883    22343904.44349  17415427.26745  24354444.099    24354453.775
  21570561.481    -3016656.90649  -2333099.24847  21570561.071    21570566.537
  23965425.940    -2760688.43649  -2134606.78545  23965425.191    23965433.190
  23565823.443    16090511.69449  12539019.43946  23565822.771    23565828.624
  23683906.140    -8446636.99949  -6559671.59945  23683905.603    23683915.405
 04  7 19 19  5 30.0000000  0  8G11G19G25G15G14G20G22G 1
  21436992.332   -18085089.69449 -14067690.73447  21436991.959    21436997.044
  24174863.102     3572836.15549   2801466.17045  24174862.141    24174869.848
  21289709.392   -20383949.90949 -15867813.97447  21289709.231    21289715.632
  24377007.841    22462475.69249  17507820.27845  24377007.549    24377017.197
  21583643.610    -2947910.27849  -2279530.48547  21583643.155    21583648.605
  23948562.505    -2849306.59349  -2203659.81645  23948561.786    23948569.502
  23580261.651    16166385.45349  12598141.77246  23580261.204    23580266.911
  23667321.691    -8533788.59349  -6627581.89645  23667321.294    23667330.818
 04  7 19 19  6  0.0000000  0  8G11G19G25G15G14G20G22G 1
  21430760.511   -18117838.11749 -14093208.97647  21430760.114    21430765.204
  24191065.651     3657979.57749   2867811.57246  24191064.524    24191072.324
  21279288.345   -20438712.70149 -15910486.24947  21279288.225    21279294.559
  24399587.229    22581131.75949  17600279.37245  24399587.077    24399596.949
  21596766.678    -2878948.24249  -2225793.84947  21596766.210    21596771.636
  23931703.654    -2937899.62149  -2272693.27245  23931703.047    23931710.914
  23594726.844    16242400.09349  12657373.86846  23594726.331    23594732.050
  23650775.092    -8620743.17949  -6695338.67445  23650774.490    23650783.731
 04  7 19 19  6 30.0000000  0  8G11G19G25G15G14G20G22G 1
  21424628.050   -18150064.21949 -14118320.21647  21424627.669    21424632.771
  24207288.573     3743229.00149   2934239.55546  24207287.234    24207294.847
  21268957.347   -20493002.88249 -15952790.25047  21268957.137    21268963.383
  24422182.626    22699869.86749  17692802.39245  24422182.275    24422192.321
  21609930.263    -2809772.73049  -2171890.88547  21609929.857    21609935.311
  23914849.833    -3026467.22349  -2341706.89945  23914848.995    23914857.111
  23609218.528    16318555.20949  12716715.43946  23609218.148    23609223.931
  23634265.710    -8707500.19749  -6762941.52445  23634265.059    23634274.373
 04  7 19 19  7  0.0000000  0  8G11G19G25G15G14G20G22G 1
  21418595.246   -18181766.60349 -14143023.37447  21418594.905    21418599.953
  24223530.142     3828581.31849   3000747.74145  24223528.960    24223537.146
  21258716.521   -20546818.70649 -15994724.61947  21258716.317    21258722.541
  24444793.195    22818687.67249  17785387.49745  24444792.572    24444802.853
  21623134.133    -2740385.81949  -2117823.19147  21623133.726    21623139.238
  23898001.185    -3115008.63149  -2410700.10645  23898000.169    23898008.131
  23623737.139    16394850.60049  12776166.30746  23623736.777    23623742.657
  23617793.948    -8794059.24649  -6830390.09345  23617793.342    23617802.697
 04  7 19 19  7 30.0000000  0  8G11G19G25G15G14G20G22G 1
  21412662.476   -18212943.43349 -14167317.00647  21412662.103    21412667.159
  24239790.973     3914033.44549   3067333.68045  24239790.142    24239798.364
  21248566.207   -20600158.35149 -16036287.94447  21248566.074    21248572.305
  24467418.048    22937583.26949  17878033.22945  24467417.729    24467428.254
  21636378.012    -2670788.91849  -2063591.86447  21636377.587    21636383.228
  23881157.217    -3203522.53349  -2479671.90045  23881156.379    23881164.603
  23638282.536    16471286.32349  12835726.52346  23638282.197    23638287.881
  23601360.238    -8880419.16949  -6897683.50045  23601359.629    23601368.899
 04  7 19 19  8  0.0000000  0  8G11G19G25G15G14G20G22G 1
  21406829.894   -18243593.65249 -14191200.28947  21406829.540    21406834.684
  24256070.818     3999582.66149   3133995.30345  24256069.692    24256078.017
  21238506.989   -20653019.66849 -16077478.55347  21238506.868    21238513.097
  24490057.703    23056554.64849  17970738.01545  24490057.306    24490068.053
  21649661.526    -2600983.58549  -2009198.12447  21649661.131    21649666.839
  23864318.885    -3292007.92449  -2548621.44345  23864318.216    23864326.290
  23652854.507    16547862.22249  12895395.97446  23652854.239    23652859.842
  23584964.567    -8966578.85249  -6964820.85746  23584963.909    23584973.276
 04  7 19 19  8 30.0000000  0  8G11G19G25G15G14G20G22G 1
  21401097.703   -18273716.23049 -14214672.42047  21401097.379    21401102.593
  24272368.055     4085225.89049   3200730.16645  24272367.249    24272375.396
  21228538.980   -20705401.40449 -16118295.46347  21228538.908    21228545.153
  24512711.767    23175599.22549  18063499.81245  24512710.813    24512721.797
  21662984.389    -2530971.69349  -1954643.43147  21662983.988    21662989.715
  23847486.208    -3380464.14749  -2617548.26745  23847485.580    23847493.520
  23667453.100    16624578.27849  12955174.62946  23667452.893    23667458.565
  23568606.941    -9052537.74749  -7031801.76946  23568606.533    23568615.959
 04  7 19 19  9  0.0000000  0  8G11G19G25G15G14G20G22G 1
  21395466.168   -18303310.43949 -14237732.84547  21395465.837    21395470.975
  24288682.729     4170959.70349   3267535.59345  24288681.866    24288689.962
  21218662.679   -20757302.31749 -16158737.70847  21218662.525    21218668.700
  24535379.028    23294714.34749  18156316.53545  24535377.881    24535389.025
  21676346.047    -2460755.47049  -1899929.51447  21676345.708    21676351.358
  23830658.883    -3468890.70449  -2686452.00745  23830658.448    23830666.417
  23682078.196    16701433.78949  13015061.94746  23682078.198    23682083.833
  23552287.688    -9138295.54549  -7098625.96145  23552287.272    23552296.809
 04  7 19 19  9 30.0000000  0  7G11G19G25G14G20G22G 1
  21389935.588   -18332373.65649 -14260379.50147  21389935.276    21389940.469
  24305014.155     4256782.27449   3334410.17945  24305013.308    24305021.037
  21208878.444   -20808719.30549 -16198802.86647  21208878.229    21208884.376
  21689746.600    -2390335.54249  -1845056.87747  21689746.191    21689751.814
  23813838.022    -3557285.54649  -2755331.02445  23813837.453    23813845.418
  23696730.427    16778430.06349  13075058.92946  23696730.184    23696735.754
  23536006.968    -9223850.35649  -7165292.01645  23536006.601    23536016.120
 04  7 19 19 10  0.0000000  0  7G11G19G25G14G20G22G 1
  21384506.092   -18360905.58249 -14282612.16847  21384505.805    21384511.005
  24321361.810     4342689.89349   3401351.04145  24321361.192    24321368.943
  21199186.318   -20859651.50649 -16238490.28047  21199186.129    21199192.262
  21703185.532    -2319713.94249  -1790027.08647  21703185.058    21703190.638
  23797023.101    -3645648.20449  -2824184.95545  23797022.554    23797030.539
  23711409.095    16855566.18049  13135164.92046  23711408.753    23711414.342
  23519765.411    -9309201.80149  -7231799.58845  23519764.776    23519774.131
 04  7 19 19 10 30.0000000  0  7G11G19G25G14G20G22G 1
  21379177.784   -18388906.32749 -14304430.93147  21379177.523    21379182.667
  24337725.274     4428678.62549   3468355.15345  24337724.534    24337732.678
  21189586.603   -20910098.68049 -16277799.74047  21189586.345    21189592.448
  21716662.246    -2248893.56249  -1734842.39847  21716661.768    21716667.363
  23780214.600    -3733979.16049  -2893014.18045  23780213.771    23780221.811
  23726113.937    16932840.77549  13195378.80246  23726113.673    23726119.333
  23503561.863    -9394350.44349  -7298149.11845  23503561.384    23503570.843
 04  7 19 19 11  0.0000000  0  7G11G19G25G14G20G22G 1
  21373951.017   -18416373.57049 -14325833.97047  21373950.652    21373955.817
  24354103.546     4514746.09749   3535420.58545  24354102.575    24354111.011
  21180079.545   -20960058.40349 -16316729.37647  21180079.296    21180085.368
  21730176.530    -2177875.38849  -1679503.59547  21730176.052    21730181.673
  23763412.077    -3822276.38449  -2961817.16045  23763411.243    23763419.275
  23740845.154    17010254.70749  13255701.23846  23740844.985    23740850.787
  23487397.166    -9479294.59149  -7364339.30845  23487396.883    23487406.441
 04  7 19 19 11 30.0000000  0  7G11G19G25G14G20G22G 1
  21368825.747   -18443306.98649 -14346821.04847  21368825.370    21368830.518
  24370496.110     4600888.78749   3602544.60845  24370495.226    24370503.271
  21170665.452   -21009529.56149 -16355278.30747  21170665.214    21170671.287
  21743728.041    -2106661.64549  -1624012.38747  21743727.591    21743733.239
  23746616.109    -3910539.71749  -3030593.73545  23746615.300    23746623.182
  23755602.960    17087807.22149  13316131.65946  23755602.768    23755608.579
  23471271.901    -9564034.12549  -7430370.05645  23471271.497    23471281.002
 04  7 19 19 12  0.0000000  0  7G11G19G25G14G20G22G 1
  21363802.282   -18469705.25149 -14367391.12047  21363801.928    21363807.101
  24386902.422     4687104.25249   3669725.38245  24386901.370    24386909.625
  21161344.724   -21058510.09749 -16393444.94447  21161344.476    21161350.620
  21757316.425    -2035253.83449  -1568369.97147  21757316.004    21757321.780
  23729826.809    -3998767.94049  -3099342.90245  23729825.964    23729833.816
  23770387.217    17165498.25549  13376670.04446  23770387.003    23770392.788
  23455185.487    -9648568.03849  -7496240.59845  23455185.113    23455194.685
 04  7 19 19 12 30.0000000  0  7G11G19G25G14G20G22G 1
  21358880.743   -18495567.85949 -14387543.79847  21358880.425    21358885.630
  24403321.494     4773388.78649   3736959.99445  24403320.573    24403329.170
  21152117.581   -21106998.68549 -16431228.24047  21152117.374    21152123.502
  21770941.511    -1963653.94949  -1512577.88447  21770941.051    21770946.814
  23713044.187    -4086960.51149  -3168064.29945  23713043.322    23713051.261
  23785197.311    17243327.08949  13437315.80446  23785197.340    23785203.292
  23439138.549    -9732896.11449  -7561950.74645  23439138.083    23439147.500
 04  7 19 19 13  0.0000000  0  7G11G19G25G14G20G22G 1
  21354061.400   -18520893.05549 -14407277.71547  21354061.131    21354066.407
  24419754.230     4859740.00849   3804246.49045  24419753.156    24419761.214
  21142984.457   -21154993.59249 -16468626.85147  21142984.267    21142990.357
  21784602.929    -1891862.89849  -1456636.83547  21784602.503    21784608.170
  23696268.150    -4175115.84949  -3236756.65845  23696267.586    23696275.791
  23800034.035    17321294.63449  13498069.63946  23800034.209    23800040.159
  23423130.970    -9817016.78249  -7627499.26345  23423130.484    23423139.773
 04  7 19 19 13 30.0000000  0  7G11G19G25G14G20G22G 1
  21349344.628   -18545679.87049 -14426592.12247  21349344.396    21349349.652
  24436198.554     4946154.72649   3871582.50145  24436197.672    24436205.617
  21133945.646   -21202493.23049 -16505639.53447  21133945.384    21133951.484
  21798300.432    -1819882.77849  -1400548.46247  21798299.941    21798305.596
  23679499.907    -4263233.03049  -3305419.28045  23679499.554    23679507.636
  23814896.991    17399400.32849  13558931.13146  23814897.250    23814903.207
  23407162.843    -9900929.49449  -7692885.72545  23407162.399    23407171.638
 04  7 19 19 14  0.0000000  0  7G11G19G25G14G20G22G 1
  21344730.342   -18569928.20249 -14445486.92647  21344730.081    21344735.321
  24452653.604     5032629.17049   3938965.06345  24452652.902    24452661.478
  21125000.998   -21249497.41749 -16542266.15447  21125000.776    21125006.893
  21812033.282    -1747716.26449  -1344314.83447  21812032.854    21812038.468
  23662739.081    -4351312.10149  -3374052.22145  23662738.577    23662746.792
  23829786.473    17477642.90049  13619899.27146  23829786.512    23829792.506
  23391234.307    -9984634.53049  -7758110.34946  23391233.795    23391243.079
 04  7 19 19 14 30.0000000  0  8G11G19G23G25G14G20G22G 1
  21340218.725   -18593637.12949 -14463961.41147  21340218.424    21340223.658
  24469119.993     5119160.45849   4006391.92845  24469119.330    24469127.975
  24753067.141    -4928709.17949  -3826014.84245  24753066.428    24753073.798
  21116151.047   -21296004.27449 -16578505.24947  21116150.813    21116156.926
  21825801.339    -1675364.63249  -1287936.97247  21825800.892    21825806.659
  23645985.702    -4439351.78649  -3442654.50045  23645985.076    23645993.195
  23844701.643    17556022.50049  13680974.18446  23844701.607    23844707.848
  23375345.444   -10068130.99649  -7823172.47446  23375344.926    23375354.245
 04  7 19 19 15  0.0000000  0  8G11G19G23G25G14G20G22G 1
  21335809.626   -18616807.38749 -14482016.15447  21335809.257    21335814.496
  24485596.910     5205743.98249   4073859.45045  24485596.015    24485604.550
  24734931.966    -5024010.29749  -3900275.42545  24734931.313    24734938.947
  21107395.567   -21342014.27649 -16614357.18147  21107395.394    21107401.478
  21839603.973    -1602831.43949  -1231417.62247  21839603.497    21839609.279
  23629239.884    -4527353.01549  -3511226.79545  23629238.979    23629246.929
  23859642.533    17634537.28249  13742154.44745  23859642.563    23859648.745
  23359495.988   -10151420.03249  -7888072.94946  23359495.517    23359504.799
 04  7 19 19 15 30.0000000  0  8G11G19G23G25G14G20G22G 1
  21331503.785   -18639434.94549 -14499648.02547  21331503.427    21331508.627
  24502083.346     5292379.55349   4141367.53045  24502082.451    24502090.711
  24716819.774    -5119189.99749  -3974441.41545  24716819.153    24716826.932
  21098735.592   -21387523.00849 -16649818.51447  21098735.369    21098741.416
  21853441.526    -1530115.24749  -1174755.67747  21853441.037    21853446.703
  23612501.736    -4615311.93849  -3579766.14945  23612500.925    23612508.730
  23874609.856    17713190.08849  13803442.24545  23874609.841    23874615.900
  23343686.657   -10234498.08749  -7952809.01745  23343686.083    23343695.545
 04  7 19 19 16  0.0000000  0  8G11G19G23G25G14G20G22G 1
  21327301.314   -18661519.23749 -14516856.56547  21327300.907    21327306.159
  24518579.068     5379063.96849   4208913.73845  24518577.892    24518586.294
  24698730.698    -5214248.00549  -4048512.60045  24698730.065    24698737.440
  21090171.267   -21432529.04349 -16684888.13747  21090170.979    21090177.046
  21867313.478    -1457217.78349  -1117952.49847  21867312.954    21867318.614
  23595771.742    -4703227.64549  -3648271.82145  23595771.068    23595778.825
  23889603.164    17791980.33049  13864837.12845  23889603.262    23889609.233
  23327917.550   -10317364.53449  -8017380.18945  23327917.059    23327926.457
 04  7 19 19 16 30.0000000  0  8G11G19G23G25G14G20G22G 1
  21323202.453   -18683059.10149 -14533640.88747  21323202.054    21323207.274
  24535083.687     5465794.90649   4276496.13645  24535082.305    24535091.041
  24680664.927    -5309183.18749  -4122488.03245  24680664.352    24680671.535
  21081702.847   -21477030.78049 -16719564.79747  21081702.551    21081708.579
  21881219.643    -1384140.89449  -1061009.49447  21881219.087    21881224.739
  23579050.383    -4791098.85849  -3716742.80245  23579049.594    23579057.454
  23904622.668    17870908.30649  13926339.32545  23904622.854    23904628.764
  23312189.181   -10400018.52449  -8081785.82245  23312188.607    23312197.821
 04  7 19 19 17  0.0000000  0  8G11G19G23G25G14G20G22G 1
  21319206.932   -18704055.03449 -14550001.36047  21319206.571    21319211.804
  24551596.254     5552567.73249   4344111.18445  24551594.954    24551603.535
  24662622.560    -5403995.90349  -4196368.00445  24662622.122    24662629.113
  21073330.328   -21521028.54949 -16753848.75447  21073330.037    21073336.092
  21895159.363    -1310887.34649  -1003928.83347  21895158.837    21895164.463
  23562337.089    -4878926.01549  -3785179.43745  23562336.405    23562344.506
  23919668.138    17949972.13149  13987947.40545  23919668.208    23919674.271
  23296501.045   -10482460.86549  -8146026.51046  23296500.458    23296509.465
 04  7 19 19 17 30.0000000  0  8G11G19G23G25G14G20G22G 1
  21315315.326   -18724505.76049 -14565936.99947  21315314.935    21315320.196
  24568116.157     5639379.73049   4411756.78945  24568114.877    24568123.147
  24644603.653    -5498685.02249  -4270151.71145  24644603.147    24644610.612
  21065054.008   -21564520.38449 -16787738.47747  21065053.737    21065059.901
  21909132.427    -1237458.35549   -946711.46947  21909131.884    21909137.565
  23545632.889    -4966707.80249  -3853580.73245  23545632.058    23545640.113
  23934739.670    18029171.94649  14049661.46045  23934739.544    23934745.594
  23280853.511   -10564690.46949  -8210101.42246  23280852.722    23280861.587
 04  7 19 19 18  0.0000000  0  8G11G19G23G25G14G20G22G 1
  21311527.472   -18744410.90049 -14581447.50347  21311527.117    21311532.374
  24584643.245     5726227.62449   4479430.30745  24584641.747    24584649.690
  24626608.647    -5593250.28849  -4343838.89945  24626607.983    24626615.515
  21056874.260   -21607505.48649 -16821233.34547  21056873.989    21056880.132
  21923138.454    -1163856.00549   -889359.00447  21923137.987    21923143.612
  23528937.263    -5054443.57749  -3921946.20045  23528936.447    23528944.365
  23949836.911    18108507.55549  14111481.27445  23949836.663    23949842.743
  23265246.036   -10646707.17949  -8274010.45346  23265245.236    23265254.181
 04  7 19 19 18 30.0000000  0  8G11G19G23G25G14G20G22G 1
  21307843.754   -18763768.77449 -14596531.56947  21307843.427    21307848.728
  24601176.385     5813109.38949   4547130.23645  24601174.920    24601182.971
  24608637.474    -5687689.77849  -4417428.10945  24608636.707    24608644.349
  21048791.273   -21649981.82449 -16854331.76847  21048790.975    21048797.100
  21937177.465    -1090081.09949   -831872.09947  21937176.908    21937182.611
  23512250.760    -5142131.54749  -3990274.41345  23512249.878    23512257.597
  23964960.054    18187979.24749  14173407.18145  23964959.724    23964965.764
  23249679.390   -10728509.58349  -8337752.47946  23249678.723    23249687.581
 04  7 19 19 19  0.0000000  0  8G11G19G23G25G14G20G22G 1
  21304264.218   -18782579.43049 -14611189.23347  21304263.955    21304269.238
  24617715.461     5900021.61049   4614853.90445  24617713.982    24617722.059
  24590689.675    -5782003.26649  -4490919.12245  24590689.170    24590696.682
  21040805.217   -21691948.60949 -16887033.14047  21040804.924    21040811.061
  21951248.572    -1016135.92649   -774252.50247  21951248.187    21951253.928
  23495573.787    -5229770.92149  -4058564.77645  23495572.883    23495580.282
  23980108.680    18267586.56249  14235438.75545  23980108.436    23980114.599
  23234153.769   -10810097.31949  -8401327.24046  23234153.090    23234161.868
 04  7 19 19 19 30.0000000  0  8G11G19G23G25G14G20G22G 1
  21300789.040   -18800841.62649 -14625419.52547  21300788.721    21300794.066
  24634259.237     5986961.21249   4682598.94845  24634257.718    24634266.349
  24572766.521    -5876189.79749  -4564311.18945  24572766.177    24572773.347
  21032916.377   -21733404.44749 -16919336.37147  21032916.095    21032922.303
  21965352.086     -942021.66949   -716501.17047  21965351.643    21965357.362
  23478905.959    -5317360.85049  -4126816.60345  23478905.182    23478912.473
  23995283.114    18347329.09549  14297575.67645  23995282.951    23995289.108
  23218669.012   -10891469.71149  -8464734.18546  23218668.302    23218677.282
 04  7 19 19 20  0.0000000  0  7G11G23G25G14G20G22G 1
  21297418.721   -18818552.51349 -14639220.22647  21297418.464    21297423.847
  24554868.623    -5970246.48949  -4637602.04645  24554867.998    24554874.574
  21025125.357   -21774346.01149 -16951238.87347  21025125.169    21025131.391
  21979487.798     -867737.98049   -658617.81347  21979487.407    21979493.117
  23462248.122    -5404897.97749  -4195027.28046  23462247.325    23462254.748
  24010483.736    18427208.84449  14359819.50345  24010483.687    24010489.783
  23203225.352   -10972624.11549  -8527971.27946  23203224.783    23203234.140
 04  7 19 19 20 30.0000000  0  7G11G23G25G14G20G22G 1
  21294153.211   -18835712.83149 -14652591.90547  21294152.944    21294158.363
  24536994.899    -6064173.72749  -4710792.06245  24536994.352    24537000.988
  21017432.284   -21814773.24449 -16982740.58447  21017432.065    21017438.312
  21993655.428     -793287.55549   -600604.51747  21993654.910    21993660.583
  23445600.492    -5492382.52049  -4263196.94746  23445599.560    23445606.935
  24025710.384    18507224.42949  14422169.22245  24025710.257    24025716.192
  23187823.321   -11053561.22749  -8591039.06246  23187822.825    23187832.219
 04  7 19 19 21  0.0000000  0  7G11G23G25G14G20G22G 1
  21290992.062   -18852324.97149 -14665536.43747  21290991.773    21290997.147
  24519145.098    -6157974.13849  -4783883.25045  24519144.639    24519151.445
  21009836.676   -21854688.41649 -17013843.29147  21009836.453    21009842.710
  22007853.578     -718675.34249   -542465.15447  22007853.110    22007858.791
  23428962.302    -5579816.70549  -4331327.38846  23428961.288    23428968.730
  24040961.850    18587372.29649  14484622.01945  24040961.839    24040967.853
  23172462.305   -11134283.66049  -8653939.56146  23172461.849    23172471.174
 04  7 19 19 21 30.0000000  0  7G11G23G25G14G20G22G 1
  21287935.797   -18868385.73749 -14678051.32647  21287935.509    21287940.862
  24501320.360    -6251644.09549  -4856872.76045  24501319.730    24501326.768
  21002339.333   -21894087.32349 -17044543.71847  21002339.113    21002345.320
  22022082.585     -643900.33049   -484198.94247  22022082.230    22022087.994
  23412334.152    -5667196.86649  -4399415.74746  23412333.299    23412340.823
  24056239.269    18667654.78949  14547179.67445  24056239.142    24056245.239
  23157142.586   -11214788.24749  -8716670.29446  23157142.234    23157151.529
 04  7 19 19 22  0.0000000  0  6G11G25G14G20G22G 1
  21284984.709   -18883893.75349 -14690135.50447  21284984.442    21284989.738
  20994940.578   -21932968.28849 -17074840.54547  20994940.335    20994946.487
  22036342.780     -568963.33849   -425806.50247  22036342.327    22036348.085
  23395716.781    -5754521.27949  -4467460.65246  23395715.903    23395723.487
  24071542.762    18748072.31749  14609842.57845  24071542.378    24071548.370
  23141864.823   -11295073.97849  -8779230.49446  23141864.391    23141873.400
 04  7 19 19 22 30.0000000  0  6G11G25G14G20G22G 1
  21282138.564   -18898850.77149 -14701790.33147  21282138.242    21282143.476
  20987640.018   -21971332.84049 -17104734.97747  20987639.789    20987645.932
  22050632.966     -493868.60749   -367291.14947  22050632.475    22050638.144
  23379109.606    -5841791.46049  -4535463.31046  23379108.810    23379116.377
  24086870.847    18828622.20649  14672608.61345  24086870.486    24086876.728
  23126628.234   -11375142.64149  -8841621.57746  23126627.649    23126636.937
 04  7 19 19 23  0.0000000  0  6G11G25G14G20G22G 1
  21279397.402   -18913255.40349 -14713014.72947  21279397.100    21279402.324
  20980438.054   -22009179.19449 -17134225.61447  20980437.815    20980443.974
  22064952.972     -418616.66749   -308653.30747  22064952.411    22064958.218
  23362513.335    -5929005.27549  -4603422.03946  23362512.380    23362520.014
  24102224.398    18909305.22749  14735478.38945  24102224.097    24102230.391
  23111433.078   -11454992.54649  -8903842.21246  23111432.659    23111442.003
 04  7 19 19 23 30.0000000  0  6G11G25G14G20G22G 1
  21276761.326   -18927108.20749 -14723809.12647  21276761.065    21276766.290
  20973334.709   -22046507.39749 -17163312.49847  20973334.463    20973340.620
  22079302.242     -343210.31649   -249895.14947  22079301.717    22079307.601
  23345927.591    -6016162.65849  -4671336.82146  23345926.781    23345934.344
  24117603.090    18990119.73449  14798450.63545  24117602.820    24117609.078
  23096279.562   -11534624.40449  -8965892.93946  23096279.069    23096288.451
 04  7 19 19 24  0.0000000  0  6G11G25G14G20G22G 1
  21274230.555   -18940407.46749 -14734172.19647  21274230.287    21274235.524
  20966330.439   -22083315.04349 -17191993.75447  20966330.202    20966336.356
  22093680.848     -267649.92549   -191016.93747  22093680.453    22093686.168
  23329353.005    -6103261.70349  -4739206.11846  23329352.335    23329360.012
  24133006.872    19071066.74149  14861526.12545  24133006.627    24133012.757
  23081168.044   -11614036.48849  -9027772.41646  23081167.431    23081176.704
 04  7 19 19 24 30.0000000  0  6G11G25G14G20G22G 1
  21271805.291   -18953152.64549 -14744103.50947  21271805.006    21271810.249
  20959425.417   -22119600.93049 -17220268.44347  20959425.182    20959431.355
  22108088.699     -191936.95749   -132019.86447  22108088.139    22108093.856
  23312789.903    -6190300.96149  -4807028.83546  23312789.332    23312797.030
  24148435.708    19152146.07749  14924704.74645  24148435.585    24148441.667
  23066098.408   -11693228.25949  -9089480.21346  23066097.843    23066106.875
 04  7 19 19 25  0.0000000  0  6G11G25G14G20G22G 1
  21269485.527   -18965343.51849 -14753602.89447  21269485.192    21269490.499
  20952619.890   -22155364.27349 -17248135.95247  20952619.643    20952625.825
  22122525.273     -116073.01149    -72905.12647  22122524.684    22122530.380
  23296238.607    -6277279.48149  -4874804.22046  23296237.881    23296245.487
  24163889.918    19233357.50249  14987986.25045  24163889.717    24163895.821
  23051070.539   -11772199.30849  -9151016.01746  23051070.086    23051078.982
 04  7 19 19 25 30.0000000  0  6G11G25G14G20G22G 1
  21267271.297   -18976979.23449 -14762669.68847  21267270.974    21267276.268
  20945913.929   -22190604.11049 -17275595.53647  20945913.726    20945919.880
  22136990.167      -40059.79749    -13674.07447  22136989.591    22136995.229
  23279698.955    -6364196.06849  -4942531.35046  23279698.141    23279705.707
  24179369.184    19314700.67949  15051370.41445  24179368.971    24179375.146
  23036084.917   -11850948.83049  -9212379.19446  23036084.540    23036093.303
 04  7 19 19 26  0.0000000  0  6G11G25G14G20G22G 1
  21265162.886   -18988059.34749 -14771303.54747  21265162.554    21265167.764
  20939307.811   -22225319.45349 -17302646.42148  20939307.609    20939313.695
  22151483.202       36101.33149     45672.23447  22151482.578    22151488.231
  23263171.013    -6451049.77449  -5010209.48046  23263170.253    23263177.843
  24194873.308    19396175.10149  15114856.86145  24194873.178    24194879.478
  23021141.758   -11929476.50849  -9273569.51646  23021141.186    23021149.897
 04  7 19 19 26 30.0000000  0  6G11G25G14G20G22G 1
  21263160.162   -18998583.62749 -14779504.29447  21263159.851    21263165.010
  20932801.777   -22259509.20849 -17329287.76648  20932801.543    20932807.587
  22166003.771      112408.62849    105132.42447  22166003.265    22166009.174
  23246655.366    -6537839.39749  -5077837.68546  23246654.735    23246662.239
  24210402.446    19477780.59049  15178445.43245  24210402.206    24210408.620
  23006240.553   -12007781.94349  -9334586.66446  23006240.042    23006248.796
 04  7 19 19 27  0.0000000  0  6G11G25G14G20G22G 1
  21261263.518   -19008550.88549 -14787270.99947  21261263.174    21261268.348
  20926396.063   -22293171.72449 -17355518.27648  20926395.847    20926401.789
  22180552.403      188861.60349    164706.14347  22180551.823    22180557.622
  23230152.636    -6624563.12349  -5145414.54346  23230151.830    23230159.036
  24225956.603    19559517.72849  15242136.59145  24225956.240    24225962.873
  22991381.783   -12085863.81949  -9395429.60646  22991381.448    22991390.379
 04  7 19 19 27 30.0000000  0  6G11G25G14G20G22G 1
  21259472.757   -19017961.45249 -14794603.91847  21259472.403    21259477.604
  20920090.574   -22326307.39349 -17381338.25348  20920090.323    20920096.236
  22195128.337      265457.78249    224391.44147  22195127.683    22195133.429
  23213662.199    -6711220.60449  -5212939.80446  23213661.397    23213668.606
  24241535.049    19641385.20749  15305929.31245  24241534.984    24241541.966
  22976565.792   -12163722.53349  -9456098.67446  22976565.345    22976574.334
 04  7 19 19 28  0.0000000  0  6G11G25G14G20G22G 1
  21257788.032   -19026814.69749 -14801502.55747  21257787.660    21257792.872
  20913885.663   -22358914.49549 -17406746.35848  20913885.399    20913891.315
  22209731.177      342196.19549    284187.57947  22209730.593    22209736.361
  23197184.320    -6797810.16349  -5280412.12246  23197183.724    23197191.097
  24257138.966    19723383.40849  15369823.89245  24257138.942    24257145.946
  22961792.509   -12241357.19649  -9516593.13746  22961791.992    22961800.841
 04  7 19 19 28 30.0000000  0  6G11G25G14G20G22G 1
  21256209.421   -19035110.36749 -14807966.72847  21256209.073    21256214.256
  20907781.363   -22390992.34149 -17431742.05448  20907781.085    20907787.109
  22224360.733      419074.96049    344093.07547  22224360.155    22224365.996
  23180719.849    -6884331.04549  -5347830.90446  23180719.272    23180726.664
  24272767.475    19805511.63849  15433819.76945  24272767.413    24272774.345
  22947061.779   -12318767.66249  -9576912.90246  22947061.270    22947070.070
 04  7 19 19 29  0.0000000  0  6G11G25G14G20G22G 1
  21254736.781   -19042848.97449 -14813996.82247  21254736.462    21254741.672
  20901777.779   -22422541.04349 -17456325.43848  20901777.521    20901783.583
  22239016.388      496091.55249    404105.98247  22239015.860    22239021.784
  23164268.641    -6970782.95149  -5415195.95546  23164267.981    23164275.249
  24288420.613    19887768.65049  15497916.02145  24288420.645    24288427.263
  22932373.579   -12395954.09749  -9637058.10046  22932373.159    22932381.890
 04  7 19 19 29 30.0000000  0  6G11G25G14G20G22G 1
  21253370.445   -19050029.23549 -14819591.83847  21253370.138    21253375.245
  20895875.369   -22453558.86449 -17480495.13748  20895875.027    20895881.080
  22253698.196      573245.46849    464225.86747  22253697.756    22253703.761
  23147830.982    -7057163.72149  -5482505.58146  23147830.241    23147837.418
  24304098.512    19970155.03949  15562113.08245  24304098.481    24304104.857
  22917728.390   -12472915.21249  -9697027.73346  22917727.858    22917736.602
 04  7 19 19 30  0.0000000  0  6G11G25G14G20G22G 1
  21252110.311   -19056651.18849 -14824751.81447  21252110.001    21252115.108
  20890073.930   -22484045.18349 -17504250.69448  20890073.633    20890079.742
  22268406.035      650535.01249    524451.47447  22268405.524    22268411.418
  23131406.627    -7143472.41349  -5549759.02346  23131406.101    23131413.309
  24319800.873    20052670.34649  15626410.60845  24319800.673    24319807.143
  22903126.110   -12549650.73049  -9756821.56846  22903125.606    22903134.301
 04  7 19 19 30 30.0000000  0  6G11G25G14G20G22G 1
  21250956.645   -19062713.52549 -14829475.72447  21250956.379    21250961.495
  20884373.965   -22513998.47249 -17527590.89848  20884373.709    20884379.831
  22283139.535      727959.88149    584782.50647  22283139.004    22283144.909
  23114996.765    -7229706.68049  -5616954.48246  23114996.201    23115003.420
  24335527.498    20135315.22849  15690809.10045  24335527.335    24335534.170
  22888566.984   -12626159.21549  -9816438.48846  22888566.486    22888575.166
 04  7 19 19 31  0.0000000  0  6G11G25G14G20G22G 1
  21249909.290   -19068217.82949 -14833764.80747  21249909.004    21249914.109
  20878775.302   -22543419.46049 -17550516.32248  20878775.035    20878781.130
  22297898.127      805516.91349    645216.52847  22297897.667    22297903.575
  23098601.067    -7315867.15149  -5684092.45146  23098600.412    23098607.608
  24351278.452    20218087.91849  15755307.17845  24351278.401    24351285.411
  22874050.960   -12702441.94049  -9875879.49546  22874050.304    22874059.026
 04  7 19 19 31 30.0000000  0  6G11G25G14G20G22G 1
  21248968.233   -19073163.46749 -14837618.57347  21248967.896    21248972.922
  20873278.138   -22572307.16649 -17573026.20148  20873277.880    20873283.991
  22312681.707      883204.97749    705752.64346  22312681.252    22312687.149
  23082219.681    -7401952.29049  -5751171.71146  23082218.942    23082226.052
  24367053.935    20300988.28149  15819904.73245  24367053.759    24367060.725
  22859577.931   -12778498.07249  -9935143.93646  22859577.214    22859585.888
 04  7 19 19 32  0.0000000  0  6G11G25G14G20G22G 1
  21248133.488   -19077549.81249 -14841036.51647  21248133.183    21248138.222
  20867882.669   -22600660.47549 -17595119.66848  20867882.416    20867888.528
  22327489.893      961023.12349    766390.12447  22327489.541    22327495.519
  23065852.874    -7487960.25149  -5818190.84646  23065852.123    23065859.286
  24382854.052    20384016.48449  15884601.86545  24382853.632    24382860.589
  22845147.984   -12854326.81449  -9994231.18146  22845147.394    22845156.061
 04  7 19 19 32 30.0000000  0  6G11G25G14G20G22G 1
  21247405.325   -19081376.08449 -14844018.04747  21247405.008    21247410.067
  20862589.125   -22628477.82049 -17616795.50348  20862588.910    20862595.038
  22342322.968     1038970.48449    827128.29146  22342322.482    22342328.507
  23049500.866    -7573889.31949  -5885148.48746  23049500.303    23049507.484
  24398677.749    20467172.75249  15949398.86145  24398678.045    24398684.525
  22830761.500   -12929927.04949 -10053140.37946  22830760.913    22830769.736
 04  7 19 19 33  0.0000000  0  6G11G25G14G20G22G 1
  21246783.610   -19084642.89349 -14846563.62047  21246783.288    21246788.496
  20857397.544   -22655759.40349 -17638053.86148  20857397.394    20857403.471
  22357180.041     1117044.79549    887965.38746  22357179.517    22357185.569
  23033164.303    -7659739.29549  -5952044.50246  23033163.572    23033170.772
  24414526.530    20550455.82849  16014294.63145  24414526.305    24414532.892
  22816418.527   -13005299.27449 -10111871.90446  22816417.993    22816426.724
 04  7 19 19 33 30.0000000  0  6G11G25G14G20G22G 1
  21246268.247   -19087350.75849 -14848673.64947  21246267.995    21246273.233
  20852307.877   -22682505.69849 -17658895.11148  20852307.688    20852313.773
  22372060.803     1195243.66049    948899.53846  22372060.355    22372066.351
  23016842.685    -7745509.61749  -6018878.47446  23016842.002    23016849.095
  24430399.156    20633864.47349  16079288.29045  24430398.617    24430405.240
  22802118.962   -13080443.96049 -10170426.13946  22802118.432    22802126.952
 04  7 19 19 34  0.0000000  0  6G11G25G14G20G22G 1
  21245859.435   -19089499.15049 -14850347.73147  21245859.148    21245864.441
  20847320.266   -22708715.38649 -17679318.22548  20847320.131    20847326.215
  22386965.157     1273566.56349   1009930.34146  22386964.727    22386970.675
  23000536.555    -7831198.26849  -6085648.79046  23000535.921    23000543.041
  24446295.539    20717399.06449  16144380.05745  24446294.832    24446301.500
  22787862.868   -13155360.06249 -10228802.23746  22787862.331    22787870.814
 04  7 19 19 34 30.0000000  0  6G11G25G14G20G22G 1
  21245557.313   -19091087.05649 -14851585.07847  21245556.987    21245562.264
  20842435.202   -22734386.70049 -17699321.82948  20842435.042    20842441.136
  22401893.165     1352012.95449   1071057.37046  22401892.632    22401898.521
  22984246.478    -7916803.20149  -6152353.83646  22984245.807    22984253.029
  24462215.598    20801060.39449  16209570.56645  24462215.261    24462221.878
  22773650.503   -13230045.91149 -10286998.91646  22773650.040    22773658.497
 04  7 19 19 35  0.0000000  0  6G11G25G14G20G22G 1
  21245361.814   -19092114.18449 -14852385.43647  21245361.532    21245366.884
  20837652.647   -22759519.06949 -17718905.47148  20837652.484    20837658.584
  22416844.270     1430581.40549   1132279.50046  22416843.712    22416849.700
  22967972.560    -8002322.78949  -6218992.40846  22967971.894    22967979.097
  24478159.185    20884848.14349  16274859.59845  24478159.363    24478166.433
  22759482.074   -13304501.34049 -10345016.05546  22759481.639    22759490.003
 04  7 19 19 35 30.0000000  0  6G11G25G14G20G22G 1
  21245273.024   -19092581.09049 -14852749.27547  21245272.763    21245278.054
  20832972.625   -22784112.47249 -17738069.14248  20832972.473    20832978.601
  22431818.376     1509270.18449   1193595.40046  22431817.805    22431823.829
  22951715.034    -8087756.47549  -6285564.05846  22951714.459    22951721.440
  24494127.019    20968761.41049  16340246.44445  24494127.548    24494134.778
  22745357.510   -13378726.41349 -10402853.70146  22745356.997    22745365.379
 04  7 19 19 36  0.0000000  0  6G11G25G14G20G22G 1
  21245290.823   -19092487.58349 -14852676.42347  21245290.532    21245295.868
  20828395.297   -22808166.56749 -17756812.57548  20828395.142    20828401.219
  22446815.042     1588077.79349   1255003.89746  22446814.414    22446820.397
  22935474.181    -8173102.99849  -6352067.78546  22935473.533    22935480.442
  24510119.411    21052799.91249  16405730.81145  24510119.806    24510127.038
  22731276.751   -13452720.91649 -10460511.69946  22731276.185    22731284.669
 04  7 19 19 36 30.0000000  0  6G11G25G14G20G22G 1
  21245414.735   -19091835.90049 -14852168.63647  21245414.506    21245419.863
  20823920.338   -22831682.53949 -17775136.68448  20823920.150    20823926.229
  22461833.386     1667000.95449   1316502.42746  22461832.877    22461838.979
  22919249.617    -8258363.08449  -6418504.14246  22919248.934    22919255.882
  24526135.202    21136961.27649  16471310.98745  24526135.210    24526142.347
  22717239.676   -13526486.40949 -10517991.22346  22717239.073    22717247.525
 04  7 19 19 37  0.0000000  0  6G11G25G14G20G22G 1
  21245645.360   -19090624.13549 -14851224.41547  21245645.096    21245650.509
  20819548.181   -22854658.23649 -17793039.80648  20819548.037    20819554.087
  22476874.030     1746039.99349   1378091.25546  22476873.474    22476879.658
  22903042.106    -8343533.53449  -6484870.66746  22903041.424    22903048.360
  24542174.209    21221246.97649  16536988.05545  24542174.406    24542181.494
  22703246.607   -13600020.47749 -10575290.41146  22703245.980    22703254.470
 04  7 19 19 37 30.0000000  0  6G11G25G14G20G22G 1
  21245982.385   -19088852.81149 -14849844.17047  21245982.153    21245987.662
  20815278.969   -22877093.36349 -17810521.69948  20815278.762    20815284.797
  22491936.512     1825193.10449   1439768.98646  22491935.887    22491941.983
  22886851.879    -8428613.35949  -6551166.59146  22886851.173    22886858.164
  24558237.343    21305655.96149  16602761.11845  24558237.065    24558244.164
  22689297.387   -13673323.15649 -10632409.32446  22689296.797    22689305.406
 04  7 19 19 38  0.0000000  0  6G11G25G14G20G22G 1
  21246425.672   -19086523.04049 -14848028.77947  21246425.516    21246431.021
  20811112.354   -22898988.51749 -17827582.83248  20811112.187    20811118.253
  22507020.201     1904458.27849   1501534.02546  22507019.595    22507025.592
  22870678.952    -8513602.38149  -6617391.73446  22870678.279    22870685.253
  24574323.528    21390187.22149  16668629.48445  24574323.100    24574329.921
  22675392.283   -13746395.13749 -10689348.44346  22675391.643    22675400.225
 04  7 19 19 38 30.0000000  0  6G11G25G14G20G22G 1
  21246975.845   -19083632.69349 -14845776.57947  21246975.625    21246981.072
  20807048.902   -22920341.50549 -17844221.50748  20807048.810    20807054.906
  22522124.942     1983835.90649   1563386.69246  22522124.578    22522130.645
  22854524.012    -8598497.19049  -6683543.48046  22854523.343    22854530.306
  24590432.805    21474842.27249  16734594.33045  24590432.328    24590439.422
  22661531.298   -13819234.07349 -10746105.98946  22661530.749    22661539.311
 04  7 19 19 39  0.0000000  0  6G11G25G14G20G22G 1
  21247632.574   -19080181.79749 -14843087.58247  21247632.290    21247637.760
  20803088.883   -22941151.70949 -17860437.22648  20803088.751    20803094.812
  22537251.255     2063324.83249   1625326.09046  22537250.855    22537256.900
  22838387.295    -8683296.49349  -6749620.80446  22838386.584    22838393.490
  24606565.808    21559620.74949  16800655.40745  24606565.228    24606572.558
  22647714.756   -13891839.61449 -10802681.66546  22647714.283    22647722.965
 04  7 19 19 39 30.0000000  0  6G11G25G14G20G22G 1
  21248395.447   -19076172.30849 -14839963.30147  21248395.252    21248400.815
  20799231.844   -22961420.33649 -17876230.94048  20799231.712    20799237.761
  22552398.261     2142922.05149   1687349.87146  22552397.860    22552403.868
  22822268.570    -8768000.43749  -6815623.79646  22822267.843    22822274.851
  24622722.084    21644520.90549  16866811.22145  24622721.295    24622728.886
  22633942.522   -13964213.02049 -10859076.44546  22633942.018    22633950.745
 04  7 19 19 40  0.0000000  0  6G11G25G14G20G22G 1
  21249264.743   -19071604.46449 -14836403.96447  21249264.550    21249270.045
  20795477.883   -22981147.42949 -17891602.68148  20795477.720    20795483.796
  22567565.474     2222626.31449   1749457.04846  22567565.010    22567571.110
  22806168.098    -8852607.94549  -6881551.67646  22806167.469    22806174.537
  24638900.914    21729541.70849  16933061.04145  24638900.193    24638907.630
  22620214.460   -14036354.06649 -10915290.17346  22620213.992    22620222.643
 04  7 19 19 40 30.0000000  0  6G11G25G14G20G22G 1
  21250240.719   -19066475.88249 -14832407.68447  21250240.505    21250246.014
  20791827.541   -23000329.95449 -17906550.08348  20791827.367    20791833.517
  22582752.974     2302438.39449   1811648.25946  22582752.686    22582758.873
  22790086.930    -8937115.08649  -6947401.33446  22790086.231    22790093.365
  24655102.764    21814685.40749  16999406.71845  24655102.428    24655110.055
  22606531.167   -14108259.88649 -10971320.59746  22606530.724    22606539.116
 04  7 19 19 41  0.0000000  0  6G11G25G14G20G22G 1
  21251323.016   -19060788.47949 -14827975.95047  21251322.785    21251328.352
  20788280.662   -23018968.99449 -17921073.99148  20788280.463    20788286.624
  22597960.742     2382355.77949   1873921.51146  22597960.418    22597966.726
  22774024.903    -9021522.07049  -7013172.94346  22774024.191    22774031.213
  24671328.029    21899950.42549  17065846.81045  24671328.005    24671335.547
  22592892.466   -14179931.79549 -11027168.74946  22592891.986    22592900.364
 04  7 19 19 41 30.0000000  0  6G11G25G14G20G22G 1
  21252511.410   -19054543.65049 -14823109.86147  21252511.192    21252516.704
  20784836.924   -23037065.49849 -17935175.14148  20784836.767    20784842.959
  22613188.002     2462375.81749   1936274.77246  22613187.696    22613194.017
  22757982.099    -9105828.69749  -7078866.37246  22757981.278    22757988.025
  24687576.352    21985334.85249  17132380.01545  24687576.535    24687583.882
  22579298.038   -14251370.69349 -11082835.36346  22579297.568    22579305.983
 04  7 19 19 42  0.0000000  0  6G11G25G14G20G22G 1
  21253805.977   -19047741.09649 -14817809.18347  21253805.706    21253811.103
  20781496.626   -23054618.76249 -17948852.99448  20781496.469    20781502.657
  22628434.899     2542497.79649   1998707.45746  22628434.510    22628440.747
  22741958.570    -9190033.13849  -7144480.15646  22741957.601    22741964.345
  24703847.946    22070838.86949  17199006.39145  24703847.851    24703854.948
  22565748.076   -14322575.77749 -11138319.78946  22565747.628    22565756.082
 04  7 19 19 42 30.0000000  0  5G11G25G14G20G 1
  21255206.772   -19040380.29649 -14812073.50747  21255206.457    21255211.839
  20778259.955   -23071627.67349 -17962106.67448  20778259.800    20778265.927
  22643701.004     2622721.09649   2061219.08546  22643700.492    22643706.804
  22725954.548    -9274133.16549  -7210012.60346  22725953.819    22725960.588
  22552242.906   -14393545.99049 -11193621.18346  22552242.447    22552250.741
 04  7 19 19 43  0.0000000  0  5G11G25G14G20G 1
  21256715.644   -19032451.08649 -14805894.91347  21256715.312    21256720.791
  20775128.874   -23088081.57949 -17974927.88248  20775128.708    20775134.812
  22658987.980     2703055.13849   2123817.01846  22658987.629    22658993.900
  22709972.869    -9358116.79949  -7275454.34146  22709972.263    22709978.951
  22538784.578   -14464270.27849 -11248730.92846  22538784.094    22538792.252
 04  7 19 19 43 30.0000000  0  5G11G25G14G20G 1
  21258329.666   -19023969.28249 -14799285.73347  21258329.345    21258334.873
  20772100.461   -23103995.90449 -17987328.64248  20772100.334    20772106.430
  22674293.036     2783483.15249   2186488.16346  22674292.584    22674298.900
  22694010.870    -9441998.28749  -7340816.50446  22694010.124    22694016.771
  22525369.886   -14534764.07449 -11303661.08546  22525369.462    22525377.730
 04  7 19 19 44  0.0000000  0  5G11G25G14G20G 1
  21260049.202   -19014932.66449 -14792244.23347  21260048.934    21260054.386
  20769175.301   -23119367.87749 -17999306.77948  20769175.169    20769181.210
  22689616.063     2864006.17649   2249233.35146  22689615.646    22689622.014
  22678069.015    -9525773.66549  -7406095.95146  22678068.170    22678074.857
  22511999.644   -14605024.78449 -11358409.63146  22511999.257    22512007.659
 04  7 19 19 44 30.0000000  0  5G11G25G14G20G 1
  21261874.465   -19005341.23549 -14784770.40547  21261874.201    21261879.550
  20766353.508   -23134196.59649 -18010861.62048  20766353.383    20766359.367
  22704957.030     2944623.41749   2312051.95146  22704956.596    22704962.944
  22662147.457    -9609441.27649  -7471291.45746  22662146.713    22662153.282
  22498674.009   -14675051.64649 -11412975.93746  22498673.493    22498681.910
 04  7 19 19 45  0.0000000  0  5G11G25G14G20G 1
  21263805.461   -18995194.05949 -14776863.52847  21263805.154    21263810.550
  20763635.292   -23148480.95649 -18021992.27148  20763635.165    20763641.059
  22720315.818     3025334.99049   2374944.05646  22720315.473    22720321.899
  22646246.989    -9692998.31449  -7536400.79746  22646246.191    22646252.835
  22485393.062   -14744842.90349 -11467358.66046  22485392.567    22485400.907
 04  7 19 19 45 30.0000000  0  5G11G25G14G20G 1
  21265842.035   -18984491.27449 -14768523.71447  21265841.774    21265847.232
  20761020.789   -23162220.60949 -18032698.48448  20761020.605    20761026.462
  22735692.317     3106139.83049   2437908.83646  22735692.088    22735698.484
  22630367.920    -9776442.89349  -7601422.48346  22630367.133    22630373.845
  22472157.122   -14814397.99149 -11521557.36446  22472156.630    22472164.900
 04  7 19 19 46  0.0000000  0  5G11G25G14G20G 1
  21267984.143   -18973234.49649 -14759752.22147  21267983.911    21267989.391
  20758509.579   -23175416.59849 -18042981.06348  20758509.433    20758515.324
  22751086.509     3187035.70049   2500944.55546  22751086.181    22751092.512
  22614510.220    -9859774.89049  -7666356.46946  22614509.501    22614516.212
  22458966.010   -14883717.95349 -11575572.84846  22458965.462    22458973.722
 04  7 19 19 46 30.0000000  0  5G11G25G14G20G 1
  21270231.596   -18961424.44549 -14750549.60247  21270231.335    21270236.811
  20756101.980   -23188068.82649 -18052839.92948  20756101.800    20756107.697
  22766497.636     3268021.37049   2564050.24946  22766497.252    22766503.475
  22598674.473    -9942992.72549  -7731201.48746  22598673.644    22598680.284
  22445819.662   -14952802.45549 -11629404.85546  22445819.103    22445827.351
 04  7 19 19 47  0.0000000  0  5G11G25G14G20G 1
  21272584.636   -18949059.05349 -14740914.24547  21272584.366    21272589.844
  20753798.220   -23200175.05149 -18062273.34148  20753798.045    20753803.920
  22781925.918     3349097.85249   2627226.69346  22781925.571    22781931.693
  22582860.952   -10026092.88949  -7795954.80246  22582860.151    22582866.866
  22432718.555   -15021649.00049 -11683051.44046  22432717.952    22432726.085
 04  7 19 19 47 30.0000000  0  5G11G25G14G20G 1
  21275042.910   -18936140.73049 -14730848.04047  21275042.625    21275048.064
  20751598.116   -23211736.73049 -18071282.43648  20751597.908    20751603.775
  22797371.115     3430262.23349   2690471.62946  22797370.728    22797376.738
  22567069.739   -10109075.58749  -7860616.60446  22567068.993    22567075.749
  22419662.330   -15090259.19749 -11736513.87346  22419661.801    22419669.988
 04  7 19 19 48  0.0000000  0  5G11G25G14G20G 1
  21277606.443   -18922669.19049 -14720350.75847  21277606.180    21277611.639
  20749501.673   -23222753.29849 -18079866.76148  20749501.509    20749507.442
  22812832.747     3511514.02949   2753784.68746  22812832.505    22812838.497
  22551301.299   -10191938.51949  -7925185.07346  22551300.549    22551307.392
  22406651.380   -15158632.04949 -11789791.35046  22406650.839    22406658.979
 04  7 19 19 48 30.0000000  0  5G11G25G14G20G 1
  21280274.946   -18908645.22649 -14709423.00347  21280274.733    21280280.341
  20747508.889   -23233225.05849 -18088026.56048  20747508.789    20747514.702
  22828310.992     3592851.79349   2817164.71646  22828310.570    22828316.779
  22535556.016   -10274680.49749  -7989659.30346  22535555.299    22535562.109
  22393685.410   -15226767.56749 -11842883.88646  22393685.004    22393693.108
 04  7 19 19 49  0.0000000  0  6G11G30G25G14G20G 1
  21283048.074   -18894072.18949 -14698067.41747  21283047.893    21283053.484
  24351330.580    -6481204.26349  -5038971.14645  24351330.705    24351338.175
  20745619.351   -23243154.42349 -18095763.72448  20745619.247    20745625.229
  22843804.703     3674271.58749   2880608.68046  22843804.263    22843810.439
  22519833.514   -10357302.75049  -8054040.26046  22519832.844    22519839.570
  22380764.196   -15294668.39549 -11895793.55546  22380763.860    22380771.860
 04  7 19 19 49 30.0000000  0  6G11G30G25G14G20G 1
  21285925.016   -18878953.88449 -14686286.94147  21285924.801    21285930.348
  24347899.091    -6499233.30149  -5053019.71645  24347899.190    24347907.312
  20743832.304   -23252545.15049 -18103081.16348  20743832.214    20743838.182
  22859312.965     3755768.85549   2944113.00646  22859312.647    22859318.815
  22504133.322   -10439807.16349  -8118329.35546  22504132.693    22504139.561
  22367887.004   -15362337.56449 -11948522.70546  22367886.764    22367894.806
